GFSNW_2pvu_pres_000.txt.gz
Presure
215 276 394 280 251 226 226 226 225 197 241 236 183 208 231 142 220 171 206 210 212 202 224 217 209 207 143 139 147 138 141 143 188 190 150 177 157 174 165 157 167 167 157 164
210 249 299 339 274 220 197 228 232 233 220 208 228 231 223 220 190 199 206 213 210 208 222 191 207 144 209 189 188 195 162 172 165 182 162 154 153 153 168 171 171 169 165 150
208 153 294 393 309 212 240 219 237 241 230 232 235 225 149 106 115 204 209 214 139 197 223 211 224 170 177 153 182 160 168 189 167 152 159 172 160 178 170 144 130 145 138 164
197 216 233 402 155 206 170 208 202 180 195 237 221 236 239 208 213 210 179 215 211 224 199 195 181 178 205 145 193 181 138 173 91 150 156 153 114 127 137 175 166 172 93 167
199 196 222 268 166 169 259 173 211 211 225 232 231 214 220 229 234 205 111 207 199 230 188 198 164 207 205 203 194 189 186 183 80 86 180 163 181 133 173 144 148 172 163 157
202 202 211 207 286 189 167 167 196 156 233 142 245 247 218 191 207 233 181 157 229 123 226 185 149 133 154 204 198 192 188 155 115 179 170 172 170 183 183 165 171 167 169 165
205 206 202 214 224 273 221 162 180 201 176 194 183 245 256 249 201 246 263 169 219 229 219 217 196 207 206 215 204 186 186 182 185 160 173 169 166 180 172 183 163 168 162 146
187 199 196 207 210 215 218 347 287 169 178 188 203 184 176 253 251 249 257 160 224 215 212 205 174 200 189 190 183 186 191 179 182 142 182 178 174 174 177 128 171 180 172 157
190 202 180 165 193 198 215 220 219 190 304 163 168 259 205 181 146 196 130 235 139 224 198 178 202 197 208 202 189 192 165 177 187 138 135 186 183 179 160 180 173 171 170 179
191 187 195 193 171 192 186 199 212 215 227 192 311 305 297 260 240 157 267 173 147 179 211 152 161 216 180 155 201 210 196 174 184 164 151 187 169 174 181 169 188 187 157 159
184 191 186 184 186 201 188 188 186 202 211 210 217 191 215 262 233 329 288 232 159 177 180 222 155 163 212 165 149 130 152 200 196 181 168 177 171 175 176 171 190 189 190 188
126 180 187 192 184 185 179 193 187 170 180 201 198 198 206 197 172 221 205 197 226 176 171 184 189 159 159 221 170 189 169 164 154 162 175 200 135 236 109 188 237 168 168 187
164 119 186 192 166 192 192 186 180 140 158 161 163 193 195 201 201 195 203 169 171 215 219 217 214 215 220 219 220 219 208 209 192 194 181 131 134 134 114 144 99 176 206 184
172 142 132 129 158 139 142 134 136 148 134 141 136 170 153 135 138 173 171 140 136 131 139 165 184 141 184 210 213 206 191 202 167 116 164 183 109 101 172 169 156 100 124 153
184 144 129 124 122 129 127 125 127 124 127 124 127 130 137 198 186 153 143 146 153 144 148 133 143 142 143 179 194 203 200 171 195 158 155 149 159 161 161 144 196 181 124 150
176 187 186 184 136 133 129 176 122 127 125 125 137 130 111 149 190 146 142 138 139 142 130 133 144 142 129 150 158 203 169 169 119 211 216 128 198 116 149 224 226 190 174 181
184 183 191 188 191 193 190 189 187 191 110 115 148 208 211 140 154 122 131 135 144 132 147 149 152 163 198 170 185 177 202 210 111 223 152 188 210 211 173 208 121 154 200 216
179 181 190 204 181 192 181 187 207 198 186 195 188 166 203 195 206 162 121 184 192 212 185 182 213 196 184 150 153 115 162 200 171 157 152 163 156 141 237 166 181 168 229 216
173 180 187 174 175 194 192 184 181 187 189 191 186 200 193 189 197 211 210 206 173 210 206 171 183 199 160 121 138 134 152 214 215 205 202 181 140 215 129 147 180 218 234 231
197 195 195 168 164 169 177 178 185 181 193 182 183 187 187 189 185 196 202 192 208 206 211 165 118 202 145 177 139 150 151 151 153 147 224 103 215 216 221 228 204 240 210 246
161 186 196 191 166 165 180 179 173 186 185 199 191 198 198 204 197 123 209 170 206 170 151 146 134 126 96 174 153 153 169 225 227 223 221 240 236 237 163 210 198 120 149 262
188 198 177 165 174 193 150 198 187 179 150 200 188 187 197 196 190 203 174 149 142 142 147 170 160 147 207 158 140 217 213 212 226 222 228 229 189 236 239 246 240 248 279 295
194 196 190 146 202 194 203 181 196 211 175 200 189 194 189 150 159 146 142 146 179 191 201 196 200 197 208 211 208 212 222 209 143 214 194 238 128 234 233 238 250 289 299 275
201 205 156 201 189 193 203 193 188 207 139 200 133 139 153 192 141 142 202 203 201 194 184 176 170 210 194 212 212 212 229 213 219 213 232 242 243 227 241 239 282 304 319 420
188 199 202 199 184 199 195 148 154 187 177 207 184 146 137 209 213 163 195 181 203 178 186 206 201 209 214 204 200 216 219 222 225 232 227 169 234 244 250 287 294 304 395 391
152 203 192 173 211 212 198 182 182 187 206 201 207 184 141 193 210 207 205 203 205 169 185 211 207 219 219 220 227 217 230 235 235 245 243 248 257 207 284 292 296 318 393 376
217 208 218 150 184 195 216 194 208 205 209 205 207 202 206 207 203 194 174 212 164 212 205 216 229 239 242 233 231 233 220 244 154 236 255 256 252 287 295 299 316 382 377 374

GFSNW_2pvu_pres_003.txt.gz
Presure
217 223 241 361 253 238 183 213 228 214 219 222 213 217 206 216 210 203 219 209 209 211 215 225 216 220 225 234 238 244 93 154 246 235 229 205 193 184 179 176 149 171 158 163
216 217 240 350 261 255 229 212 217 207 221 228 215 186 209 198 205 207 211 203 217 209 208 224 209 225 221 222 218 221 228 229 224 211 206 198 173 204 196 185 161 144 174 151
150 213 232 308 254 169 234 164 227 187 239 221 217 220 167 211 193 210 208 216 221 205 219 216 217 220 185 213 180 181 170 211 210 191 140 181 197 145 166 155 158 156 182 177
210 220 235 179 365 160 239 219 209 221 183 232 219 222 216 208 205 207 219 216 216 208 216 199 190 210 167 206 203 203 202 191 208 209 201 199 171 192 189 151 137 175 144 155
197 214 202 177 314 287 176 188 244 213 197 219 232 228 226 227 86 204 208 216 216 214 225 209 207 220 131 207 208 203 141 132 199 147 137 83 81 82 126 167 165 164 158 181
208 201 208 228 278 182 186 159 166 248 191 190 226 225 193 225 189 210 214 216 225 211 213 235 222 208 216 211 206 214 117 135 138 207 189 184 112 159 184 170 183 165 150 173
200 213 204 210 222 225 187 139 222 235 210 241 238 195 227 226 234 203 159 220 226 216 194 220 225 167 177 183 216 134 206 140 133 172 202 177 156 179 167 171 168 173 184 182
188 199 198 204 207 217 352 259 205 246 154 197 215 162 225 221 142 153 208 187 153 222 227 225 220 229 219 180 206 211 212 211 201 207 193 191 196 178 184 176 187 188 185 174
200 188 173 197 197 204 226 386 280 158 186 270 172 189 203 234 230 222 211 142 211 228 225 177 216 203 226 211 216 200 201 172 206 194 201 185 189 175 151 180 134 139 184 180
184 193 202 172 192 200 201 216 255 181 236 194 167 261 201 200 253 247 156 257 268 173 231 238 238 243 181 184 157 201 219 174 203 168 190 182 187 186 186 183 149 189 186 189
189 185 185 190 190 165 187 194 208 209 271 316 254 279 228 245 158 179 175 256 220 263 146 224 235 181 192 194 173 181 156 202 195 181 167 192 167 182 192 181 160 155 162 135
187 187 191 185 187 188 171 173 183 197 203 206 223 255 332 304 285 210 254 177 200 187 157 198 263 251 134 157 208 150 244 189 164 169 164 156 197 210 160 201 204 187 205 140
172 178 180 195 191 186 184 189 167 183 181 195 198 197 217 225 234 244 278 174 266 264 246 164 167 197 181 209 217 174 166 161 212 176 190 196 125 196 205 154 156 228 200 101
181 184 181 183 189 191 185 193 187 184 168 158 160 160 182 202 201 210 216 210 215 196 201 193 220 227 232 220 233 181 237 227 225 180 175 213 201 168 187 169 161 166 181 194
142 182 185 191 173 176 195 150 157 127 168 157 144 142 156 177 198 163 200 156 140 131 157 131 146 135 137 142 141 135 142 170 170 152 155 193 197 201 204 191 153 220 127 208
183 186 191 185 185 156 189 176 179 134 129 126 129 127 131 133 137 139 129 139 141 144 145 137 142 140 140 133 143 139 138 143 161 190 169 163 181 213 147 190 207 94 198 162
184 190 191 173 132 184 180 135 127 125 127 130 127 126 126 128 128 120 152 140 136 140 132 160 137 145 148 139 159 145 163 171 199 193 152 103 144 199 196 138 201 125 220 159
181 173 144 203 190 186 169 151 146 159 139 138 181 127 122 123 154 162 169 148 212 180 130 166 136 195 167 145 172 172 212 195 155 114 141 220 185 224 218 213 216 181 195 187
201 184 135 109 117 169 195 179 184 193 191 181 199 183 117 119 186 197 144 199 182 197 199 198 197 206 196 205 139 210 117 126 164 178 200 185 191 200 201 144 149 226 166 213
146 165 191 194 183 170 191 171 182 188 203 190 192 203 190 190 193 189 194 187 187 187 185 186 187 187 179 206 134 134 128 198 161 150 206 201 218 208 150 214 227 216 218 148
206 197 201 202 202 203 183 187 189 165 196 184 186 195 190 190 188 191 195 196 196 186 189 190 195 187 161 155 188 133 203 151 147 148 146 209 213 203 225 200 220 232 120 143
184 201 195 189 202 198 203 205 199 194 191 192 158 168 174 173 189 188 192 193 177 209 206 111 178 195 200 155 140 170 146 146 149 214 213 216 215 221 213 148 218 122 231 233
204 177 201 203 198 194 202 193 201 197 199 198 195 191 193 167 197 199 201 197 197 174 195 198 199 203 125 138 142 144 197 204 212 220 211 216 215 222 226 125 203 225 227 194
211 223 203 207 204 203 198 202 151 197 197 199 178 185 201 203 199 206 208 208 209 198 203 205 201 140 135 150 156 214 213 220 117 211 212 220 227 204 126 192 221 227 235 247
197 215 215 214 201 194 212 198 182 198 194 163 192 197 195 194 197 171 154 148 188 168 131 134 137 145 206 206 206 210 210 211 207 219 217 212 125 226 224 224 227 238 258 250
220 210 213 194 209 211 214 200 204 204 200 202 203 199 207 199 177 201 166 204 206 214 215 205 200 201 203 203 208 208 208 208 211 215 221 226 170 218 228 235 245 251 251 259
252 224 219 214 213 182 217 211 208 208 175 174 184 186 178 178 201 201 170 195 196 187 195 207 204 174 211 210 140 215 213 218 217 223 232 217 227 235 237 249 251 258 264 307

GFSNW_2pvu_pres_006.txt.gz
Presure
207 220 229 240 212 228 242 220 216 214 217 213 223 215 219 229 225 238 232 232 198 198 197 197 194 186 185 186 191 190 200 182 204 189 162 189 189 194 151 180 171 193 172 172
208 221 176 188 292 236 218 217 232 208 169 207 220 155 87 226 226 221 219 249 249 198 198 196 197 193 192 191 188 186 186 184 182 185 183 171 171 171 183 233 159 192 185 178
189 218 230 173 296 245 227 229 236 212 221 221 214 179 204 204 227 221 230 227 202 233 240 222 205 196 196 198 201 201 197 209 175 172 202 198 195 188 195 177 159 190 185 145
209 218 227 246 191 215 230 232 227 195 229 227 214 208 218 211 208 216 228 222 219 218 226 226 235 229 238 242 240 233 196 195 195 195 190 197 211 191 175 176 211 183 197 150
195 222 230 249 163 159 216 160 207 210 240 231 206 215 220 177 222 231 220 210 223 211 225 225 229 219 228 225 232 226 218 183 142 145 154 138 149 219 156 217 197 196 134 141
203 201 226 189 184 164 233 174 241 229 214 227 212 213 216 216 211 220 225 218 206 220 225 230 215 223 219 183 220 164 227 231 236 226 204 192 218 144 171 118 199 192 149 159
200 204 207 229 240 286 174 163 195 229 190 220 203 215 220 196 213 213 213 151 224 209 214 217 224 233 137 222 214 174 213 140 148 220 184 188 192 180 175 175 158 157 192 149
195 195 208 195 223 299 208 136 193 218 222 233 228 229 234 233 203 209 209 211 219 221 211 150 180 213 211 213 140 131 223 205 138 202 158 170 140 150 193 199 194 196 189 198
195 192 196 196 207 231 381 194 180 191 183 199 242 199 209 226 223 229 221 182 218 222 140 220 232 215 194 138 140 205 206 216 203 154 179 149 200 200 195 198 169 171 164 188
198 195 188 193 202 205 231 372 224 200 190 256 199 227 235 224 183 205 243 232 190 154 192 197 201 223 221 229 189 184 211 207 215 197 124 192 201 204 196 195 202 206 187 183
151 201 199 193 179 180 199 216 324 251 197 257 185 165 254 240 237 205 221 175 137 230 219 215 221 204 218 217 153 194 232 204 151 212 216 205 182 182 192 194 206 208 195 202
147 183 181 192 191 194 171 188 207 331 338 274 273 192 225 228 249 248 242 162 166 231 252 203 225 237 239 237 128 165 197 165 198 140 195 194 201 215 213 161 207 174 175 170
189 189 183 181 191 191 188 172 174 184 204 239 321 302 256 255 204 232 252 157 178 241 248 154 148 149 159 225 224 203 161 207 200 203 204 205 147 201 204 194 200 196 189 163
190 165 192 195 189 190 192 191 188 198 171 185 193 216 282 295 320 259 212 201 237 253 246 195 213 164 168 209 212 255 197 192 224 205 199 241 240 216 179 197 163 182 224 202
181 136 150 185 190 191 199 193 192 190 188 188 177 188 164 168 206 234 245 267 223 175 266 247 241 225 217 228 211 246 241 171 147 146 142 144 146 150 169 187 160 163 146 161
127 180 184 179 182 165 183 177 193 182 193 159 161 189 154 196 195 188 185 202 206 209 206 145 144 142 137 216 136 131 143 144 140 143 144 145 136 135 164 169 184 186 164 195
188 182 174 134 180 183 191 196 184 191 186 154 151 149 171 151 149 141 138 141 145 158 134 140 150 149 146 143 145 148 140 139 139 140 181 193 125 219 219 173 121 142 183 159
205 169 125 131 193 185 178 184 145 192 192 189 143 127 127 129 125 131 138 133 132 119 151 144 139 141 135 126 137 132 204 177 202 152 180 121 205 206 148 156 194 165 153 179
174 188 186 189 176 193 198 120 155 187 134 133 131 128 126 130 131 129 127 128 129 190 139 139 175 210 158 132 133 133 195 205 212 205 184 176 135 189 210 198 194 196 157 156
193 192 176 177 194 195 119 128 115 159 179 128 126 136 133 141 137 135 190 127 198 129 196 197 132 194 210 211 207 201 199 195 111 193 157 199 207 166 197 192 148 166 160 121
196 198 179 201 187 182 177 189 169 132 184 183 178 189 185 191 196 195 194 197 176 199 196 196 145 194 93 159 114 101 203 201 199 190 208 208 194 187 144 192 213 208 171 217
186 201 202 202 193 186 207 200 181 180 192 192 169 203 181 183 202 184 184 190 190 196 189 188 186 191 183 132 152 203 200 204 215 213 132 139 141 141 151 152 206 212 214 211
218 196 162 160 205 204 196 196 193 196 197 192 193 201 191 180 183 165 201 188 186 177 176 175 179 165 163 191 199 200 206 192 153 126 137 141 152 219 205 207 213 221 178 209
204 214 203 204 183 189 192 197 190 194 206 200 198 201 201 201 200 199 189 150 191 190 192 189 191 199 201 177 203 197 192 127 143 134 142 203 222 206 213 214 214 213 222 213
223 194 212 214 206 199 194 191 203 201 195 197 200 201 194 202 205 201 199 201 202 198 195 183 186 195 197 203 139 135 180 207 201 200 205 186 222 212 154 220 225 215 225 231
268 255 218 217 187 209 211 208 202 202 182 205 198 197 198 203 204 201 201 196 202 203 202 198 210 208 193 192 201 208 201 195 215 211 214 211 220 204 215 217 215 223 229 229
274 276 242 221 167 217 219 214 208 202 207 205 223 216 209 205 185 196 195 192 207 200 199 199 200 208 189 206 203 198 170 197 212 219 223 215 215 226 219 219 217 228 233 247

GFSNW_2pvu_pres_009.txt.gz
Presure
194 210 215 208 185 278 239 220 222 156 214 214 224 228 223 237 229 200 200 204 199 196 199 196 216 229 255 254 177 182 193 195 195 197 189 191 195 186 173 186 164 182 179 164
196 205 218 213 170 277 242 217 220 224 230 211 218 233 227 225 237 203 198 202 203 200 189 197 192 228 241 252 255 186 181 194 195 202 200 193 181 178 163 175 192 160 156 174
195 200 217 214 205 283 204 238 218 222 210 233 219 178 228 236 238 254 202 199 204 204 201 201 188 197 224 227 241 184 165 186 189 188 172 166 196 179 180 189 186 175 159 146
193 200 224 216 185 177 257 184 184 230 216 141 180 228 232 224 227 235 233 196 200 198 199 202 198 188 192 203 195 200 189 193 183 163 159 186 184 171 191 193 197 164 189 157
199 194 219 219 206 155 168 168 224 210 217 216 216 230 217 238 234 219 238 246 198 199 197 199 199 202 197 193 189 193 188 185 186 187 187 138 157 183 178 185 182 186 187 114
201 197 206 182 190 171 166 244 193 229 210 189 219 210 214 199 210 233 209 216 231 247 208 197 196 197 197 196 194 195 195 196 192 193 180 187 185 187 176 193 173 194 182 195
200 202 201 212 230 201 177 213 165 241 217 218 220 220 213 219 211 219 215 223 225 229 219 226 235 231 221 194 194 192 192 192 194 194 194 189 197 202 139 184 147 140 146 204
201 202 203 201 220 248 334 175 249 221 230 231 232 207 212 215 216 208 216 213 213 216 221 236 228 221 229 220 228 230 179 233 158 238 235 235 238 230 220 222 226 230 224 229
203 194 202 210 197 229 266 281 157 190 241 241 236 232 223 214 215 215 218 217 211 208 217 213 222 226 202 221 216 229 219 138 220 217 228 225 228 150 226 178 142 153 225 150
149 168 200 202 202 206 232 345 149 197 228 243 239 236 240 226 217 213 121 220 216 211 212 205 211 213 189 228 226 165 218 170 215 221 220 220 217 211 196 141 141 171 220 210
162 185 199 197 202 203 210 255 305 194 189 144 182 246 237 216 221 229 227 217 193 219 209 220 217 214 180 213 143 176 221 159 149 153 156 145 149 186 192 172 183 210 196 215
192 150 154 193 194 196 206 207 280 332 273 205 200 172 200 244 217 178 227 242 237 239 238 159 214 228 194 194 205 226 217 175 214 218 205 210 205 209 171 211 216 219 219 216
182 147 152 154 202 196 178 194 205 214 340 291 247 188 202 253 253 259 208 208 184 224 211 134 234 206 205 202 205 198 211 176 124 224 222 225 227 156 181 200 193 144 208 206
183 188 144 155 194 197 200 197 198 180 201 229 316 264 252 245 204 258 262 255 196 137 225 213 239 220 172 243 205 212 226 222 228 129 171 218 222 215 207 176 188 193 210 212
202 194 190 191 194 184 187 197 194 194 173 191 189 245 302 282 264 257 222 261 273 259 201 175 190 249 251 224 229 162 226 220 227 214 207 153 191 200 209 181 163 139 134 148
187 166 144 191 193 194 188 189 192 193 194 192 195 198 165 165 199 317 322 282 226 233 230 268 259 269 264 259 240 173 172 177 187 255 259 228 147 142 141 147 151 198 192 159
179 185 197 181 187 192 197 193 198 194 192 199 196 196 191 192 191 194 204 213 259 312 326 308 266 262 265 256 222 244 151 147 140 144 147 147 139 143 141 137 104 185 192 142
210 170 155 131 178 138 176 185 193 192 182 189 191 185 172 174 157 157 161 159 155 155 156 150 174 144 134 165 148 134 150 148 137 142 141 141 141 144 127 185 187 192 172 211
172 209 189 172 173 169 183 188 149 185 186 197 190 198 185 181 150 202 210 183 138 139 143 138 135 119 148 144 139 139 140 143 178 201 154 171 96 139 209 207 145 176 192 203
207 160 204 195 196 174 128 181 181 181 180 137 195 195 196 196 192 132 135 129 131 132 132 129 129 128 87 133 208 209 211 165 114 113 202 208 199 197 185 196 201 206 200 134
195 204 208 209 209 193 188 124 168 180 171 177 117 187 181 188 134 133 130 132 132 134 153 134 145 135 123 176 146 144 119 101 169 113 198 194 191 189 202 196 207 185 171 184
203 200 207 199 204 217 191 201 181 179 188 191 160 125 188 194 155 128 159 135 135 178 193 177 189 202 187 184 199 199 195 139 88 186 188 182 185 195 201 138 137 154 212 160
206 211 198 206 212 185 195 203 174 181 185 179 179 191 179 173 185 191 190 171 190 181 187 185 171 191 194 196 197 194 193 89 172 166 167 198 203 205 179 127 199 211 205 195
223 209 198 213 191 179 199 162 196 194 190 196 165 188 188 186 179 168 171 171 201 200 202 205 201 192 182 188 170 179 186 191 199 203 192 189 126 127 127 170 199 210 208 220
238 229 218 215 206 211 204 183 200 197 180 187 189 177 183 181 171 200 198 197 198 199 197 198 198 199 200 197 169 201 203 186 157 180 195 184 197 199 208 206 210 223 224 217
263 263 232 225 212 206 202 193 197 181 200 195 198 198 199 202 200 194 196 196 196 195 197 195 191 191 191 190 199 192 200 201 196 191 207 200 203 204 211 221 223 220 223 211
270 274 261 235 219 225 217 202 199 197 199 172 214 208 180 198 192 192 201 203 204 208 202 197 186 191 198 165 202 204 201 205 200 201 220 222 219 217 224 219 215 219 222 233

GFSNW_2pvu_pres_012.txt.gz
Presure
194 206 201 192 197 187 218 275 231 217 216 218 228 242 242 181 220 217 207 200 196 231 230 235 239 257 206 188 203 279 198 197 194 187 183 181 185 191 177 168 179 178 171 173
194 207 202 193 201 206 224 279 230 230 224 209 217 234 247 209 210 205 201 192 194 216 225 233 246 259 279 200 194 273 261 196 191 191 190 187 186 191 191 157 192 184 165 184
195 210 203 193 199 213 226 225 212 225 224 216 216 225 229 217 207 207 200 200 195 189 202 223 245 252 255 260 205 270 265 245 189 187 184 194 194 199 187 181 190 178 160 184
201 209 206 196 207 214 225 170 241 229 227 216 218 232 228 220 204 209 206 198 190 201 196 191 221 232 245 253 259 198 265 258 224 198 193 195 192 191 188 191 187 183 177 159
203 198 205 197 206 194 226 162 201 231 222 221 220 123 208 217 237 201 206 204 203 191 193 194 193 200 225 238 244 253 252 184 226 216 213 196 200 198 194 196 197 169 187 164
164 201 206 199 211 186 171 172 181 233 224 219 204 211 243 229 226 233 211 204 200 198 199 201 195 195 186 220 230 241 245 248 202 182 185 186 193 196 190 165 178 185 175 164
211 202 212 199 207 222 177 172 206 225 236 215 218 221 222 214 228 212 225 238 195 202 201 196 194 198 199 193 191 215 219 233 188 191 192 182 179 183 187 180 187 182 181 186
150 197 213 201 207 216 219 259 183 231 241 215 220 217 219 229 216 228 218 231 224 133 192 199 200 206 198 195 195 195 189 187 188 187 183 181 180 182 147 189 187 188 189 191
150 178 208 193 204 212 195 260 290 234 240 231 213 221 216 218 199 221 221 225 228 211 231 227 220 235 203 195 195 194 195 198 199 193 191 187 202 199 191 192 196 189 188 148
214 210 211 210 201 205 221 225 283 188 161 247 228 215 220 212 216 209 210 216 219 228 226 232 219 231 227 221 227 235 238 215 216 216 210 201 202 175 200 174 145 173 142 143
212 204 203 193 209 204 215 220 234 195 183 218 247 233 243 229 219 214 219 215 211 190 209 214 221 228 225 223 224 196 225 224 224 232 220 161 229 129 239 130 194 187 212 183
194 199 199 203 203 207 208 214 222 318 191 189 244 239 236 232 234 224 220 215 170 218 216 215 215 218 211 220 228 234 229 222 225 148 149 140 139 133 174 166 146 219 214 136
205 199 202 151 204 205 205 213 214 223 324 175 199 190 193 251 243 233 233 230 225 224 120 220 215 206 154 180 210 216 217 220 219 214 222 218 219 224 224 192 215 202 211 155
213 194 191 191 152 177 204 208 185 215 219 327 242 176 176 172 243 245 245 240 244 237 234 235 234 176 189 226 229 208 154 138 213 211 180 221 189 127 152 222 210 185 199 178
204 198 199 191 146 151 184 196 197 178 209 218 236 309 271 248 248 237 245 240 254 247 251 202 238 233 237 205 217 224 226 214 220 208 201 213 218 223 132 204 176 179 205 215
206 202 193 194 191 145 152 200 201 201 199 178 199 211 329 277 259 256 250 221 222 246 253 209 143 208 208 225 225 215 231 142 156 147 211 224 225 224 220 230 234 228 184 142
205 203 198 198 190 190 186 203 203 204 204 201 193 178 197 204 210 266 268 260 257 223 221 253 264 263 254 250 251 198 239 252 256 258 263 254 187 221 200 205 147 154 143 139
210 206 201 201 191 189 186 196 190 191 197 195 195 200 200 195 167 164 167 167 233 310 319 280 279 214 233 262 262 250 249 243 247 251 204 143 146 147 143 146 143 137 135 201
211 203 207 200 194 192 159 181 199 196 191 193 193 197 198 200 199 198 197 199 194 196 171 172 172 168 187 225 169 138 139 146 190 143 144 144 144 142 144 189 208 135 216 204
212 205 209 207 201 156 195 194 134 130 176 194 192 199 198 196 184 195 200 174 156 206 192 149 151 150 148 145 128 125 130 138 138 134 143 132 206 134 138 211 122 92 195 193
213 212 205 209 204 200 190 151 130 178 190 190 147 178 181 187 195 202 135 195 150 151 180 132 133 131 126 130 128 128 126 131 133 129 206 209 104 204 203 194 195 197 184 185
216 215 209 194 206 196 202 169 157 146 184 190 186 190 183 183 189 193 201 193 191 190 133 132 135 131 126 127 89 139 145 186 188 192 192 94 88 95 182 169 192 172 167 193
220 210 203 215 212 209 206 201 159 159 166 166 125 132 180 180 180 175 174 187 179 181 122 130 139 137 186 134 137 196 195 194 175 105 196 199 121 158 175 170 186 201 158 198
231 213 215 209 209 198 211 207 202 199 160 180 175 194 195 191 192 182 186 190 164 170 180 136 160 175 182 175 177 174 185 204 206 206 207 204 200 200 198 197 194 194 199 200
244 234 223 218 211 205 208 202 208 207 199 194 181 176 206 201 200 198 188 190 193 187 185 187 182 185 188 192 191 192 198 198 197 196 192 193 192 191 193 160 205 199 207 212
276 273 261 236 223 210 207 203 208 200 210 209 199 200 205 209 206 185 203 201 183 173 195 187 189 178 179 189 193 195 192 196 192 191 192 197 201 199 206 207 208 209 214 221
271 269 271 268 253 227 218 209 212 206 209 200 159 167 201 200 198 202 201 200 200 192 186 190 191 191 194 198 198 199 206 205 200 200 194 198 199 204 205 208 218 224 227 223

GFSNW_2pvu_pres_015.txt.gz
Presure
210 199 194 195 204 208 199 204 209 249 227 229 228 229 258 232 252 256 212 197 220 241 246 254 222 197 294 301 215 204 200 199 193 184 185 188 189 191 182 179 171 176 171 170
212 201 195 194 192 210 202 203 215 245 228 225 229 240 251 208 209 208 197 192 203 232 248 251 230 202 256 295 292 214 202 201 198 193 170 156 151 191 192 187 180 181 184 188
203 202 199 200 205 210 204 169 217 250 231 233 228 229 225 215 217 211 202 194 188 192 222 233 223 201 201 231 303 299 220 208 202 184 185 168 164 164 177 174 164 174 176 190
205 203 201 204 205 196 201 171 197 248 235 234 227 227 220 212 210 203 201 195 192 216 225 228 234 240 208 198 198 227 328 219 212 205 192 187 187 185 187 173 178 180 165 183
207 200 203 204 210 207 194 202 219 257 235 223 228 235 232 217 202 199 195 190 188 204 223 229 248 254 310 312 203 236 190 315 235 211 204 200 193 190 190 184 191 180 191 185
215 204 205 207 213 174 199 214 223 233 240 232 231 221 224 213 229 200 198 195 187 196 189 212 214 236 254 287 295 225 194 250 269 269 254 198 195 194 192 192 187 185 183 183
214 201 194 206 214 202 169 172 203 265 244 228 232 225 218 231 232 232 220 199 196 191 198 190 189 209 223 241 248 273 201 202 230 263 263 257 234 197 191 188 187 187 183 188
215 204 178 167 214 204 212 179 195 179 249 233 225 213 223 224 225 231 230 207 202 201 192 185 190 192 186 202 228 240 243 207 197 202 262 277 263 230 223 216 195 199 201 197
215 204 208 213 214 203 208 218 224 183 259 232 225 221 219 218 222 227 232 224 231 200 212 202 199 198 187 191 190 195 215 219 236 240 247 189 180 176 181 185 183 180 189 189
212 204 169 155 214 203 210 205 220 285 224 236 236 223 230 221 221 219 229 221 222 227 243 213 198 206 198 197 201 195 187 189 204 212 211 211 217 188 187 189 166 184 182 181
213 207 156 212 220 205 212 215 214 230 226 203 245 225 224 218 217 201 220 220 178 225 217 219 233 235 240 229 197 200 204 203 190 197 194 197 126 131 131 159 192 128 130 182
211 208 204 206 213 202 206 210 214 205 193 208 237 243 234 224 215 224 208 213 215 210 230 165 222 223 221 223 234 234 233 232 235 191 192 196 197 144 190 148 131 135 137 134
214 215 206 221 223 214 212 216 217 209 229 183 156 253 243 221 232 227 219 213 215 213 208 178 217 220 226 225 225 226 228 234 225 229 225 131 224 153 189 132 233 233 229 230
214 217 207 215 221 173 215 206 216 215 218 206 195 212 189 245 227 236 243 224 202 210 211 218 215 216 213 219 197 142 222 223 229 229 227 200 230 230 222 220 180 151 183 134
209 218 205 223 203 175 211 211 209 215 218 211 185 259 192 191 202 235 236 234 236 234 228 223 219 221 225 216 211 153 216 218 215 221 220 215 213 215 214 168 223 225 179 220
217 217 212 201 204 206 151 210 205 211 214 218 215 196 180 176 180 228 203 246 237 240 235 232 236 232 226 230 239 222 217 215 221 203 212 216 220 224 222 210 218 226 231 229
207 201 211 214 200 199 157 152 169 210 210 175 212 218 217 283 284 271 216 247 224 251 252 249 251 231 250 152 207 236 238 244 242 224 229 229 212 203 199 208 186 220 191 232
211 205 195 214 204 192 199 150 149 200 196 202 193 183 209 215 219 299 288 276 261 263 236 231 246 252 250 184 193 256 249 247 236 243 253 250 253 261 219 269 272 212 214 141
220 214 223 204 214 197 211 198 185 153 202 198 201 204 198 180 186 206 208 208 208 226 274 263 264 261 252 243 245 231 236 263 264 265 267 248 246 160 139 137 136 134 143 141
222 218 203 198 211 205 200 195 196 188 205 185 196 206 195 198 203 202 201 161 162 162 203 204 203 205 209 206 172 206 206 201 169 126 127 136 128 126 131 132 130 211 212 204
212 222 203 214 203 208 209 197 199 187 186 192 201 194 198 198 197 198 199 198 190 164 159 160 162 169 160 160 161 160 157 143 128 124 126 125 127 132 154 198 84 119 95 198
224 219 215 209 209 210 211 206 200 195 188 192 189 161 201 196 197 199 200 203 198 199 195 160 157 213 214 160 138 138 134 133 132 133 136 136 140 176 198 180 162 193 161 205
211 214 219 216 207 208 203 208 204 202 191 195 198 168 200 183 161 181 181 179 174 175 183 136 198 194 158 133 138 133 134 134 135 142 154 150 168 173 191 200 199 199 196 192
246 216 218 230 219 214 208 208 207 202 199 199 181 193 195 186 195 191 117 181 184 142 155 184 174 173 194 197 193 128 132 144 141 178 178 181 190 198 196 197 192 192 189 189
271 209 213 226 223 215 202 203 206 207 208 205 201 168 162 191 196 186 129 177 176 179 164 192 155 179 186 150 177 171 179 184 176 187 196 188 185 188 191 192 190 190 198 202
269 282 242 232 226 221 210 203 203 206 201 206 207 205 203 167 188 162 175 174 167 188 181 189 190 176 195 195 195 194 195 194 196 190 186 190 193 191 192 198 196 184 171 203
272 275 280 244 235 226 219 211 210 212 201 208 208 212 214 208 200 192 193 193 178 195 196 197 199 201 199 200 199 200 205 184 201 195 195 194 191 193 200 202 204 203 206 212

GFSNW_2pvu_pres_018.txt.gz
Presure
237 234 227 216 215 204 199 203 204 211 212 252 241 225 253 231 256 226 368 206 234 232 234 228 250 223 222 264 259 213 200 197 201 191 188 186 184 188 177 166 184 174 173 186
225 243 234 206 204 203 195 186 203 207 214 251 230 236 220 226 216 185 203 218 224 228 253 260 269 231 249 255 254 208 194 194 194 185 185 193 187 183 175 178 180 184 179 173
232 245 215 210 205 205 201 200 182 205 214 246 237 235 233 212 203 198 198 214 233 223 244 259 224 207 256 256 262 217 204 198 195 189 190 161 183 175 175 177 176 187 185 188
237 222 223 213 191 209 206 203 199 208 208 247 238 230 214 207 201 195 201 219 226 245 242 254 210 212 223 298 262 231 205 199 195 191 193 190 187 182 179 182 183 162 190 193
239 227 203 213 205 210 202 206 207 204 219 247 238 236 204 214 204 197 191 206 216 226 235 248 254 199 211 287 295 242 216 203 201 198 197 195 188 176 175 178 183 182 188 186
237 216 193 213 208 208 194 206 210 208 218 249 235 245 236 213 207 201 199 192 189 213 221 226 240 202 200 222 262 329 248 215 205 199 197 197 193 185 182 178 175 163 165 164
235 220 205 214 214 209 198 202 207 204 224 250 237 236 231 173 212 202 200 198 197 193 217 222 235 243 219 198 192 254 303 305 222 210 202 195 196 192 191 185 188 187 185 186
263 224 206 215 213 209 214 189 184 183 217 242 241 232 236 226 205 202 196 197 193 191 202 208 216 235 251 280 293 199 202 228 209 277 217 209 207 199 201 198 194 191 161 190
166 230 215 212 197 211 205 178 172 200 223 243 243 233 231 234 214 228 200 198 193 190 193 201 206 208 214 241 249 286 287 244 199 199 185 192 236 218 212 207 201 198 196 195
170 233 211 213 205 192 205 211 188 197 189 258 244 232 218 237 184 220 211 226 199 197 195 195 194 186 199 210 214 229 245 250 251 257 190 189 198 266 263 259 260 259 257 212
190 237 216 209 207 170 206 192 212 208 229 206 246 229 227 224 228 227 224 230 208 239 206 193 188 190 197 192 195 194 210 219 224 230 231 236 239 192 228 177 234 148 195 240
243 236 216 214 216 163 207 210 206 201 223 300 250 227 223 231 227 221 223 227 226 214 201 102 208 211 209 185 184 186 192 197 193 204 212 217 220 224 213 214 226 224 220 129
255 204 212 213 198 154 206 211 205 206 222 300 255 237 231 225 227 228 225 229 224 230 223 195 222 200 228 229 199 208 206 209 195 197 162 184 177 195 196 194 192 150 140 135
247 216 222 213 215 148 205 211 206 213 216 232 160 242 238 230 226 222 219 223 223 222 222 225 227 227 195 222 223 222 224 225 221 232 233 236 235 129 213 161 216 240 236 159
247 227 219 216 215 208 206 209 207 208 215 223 197 194 240 238 231 230 222 216 223 218 217 220 216 219 218 224 225 226 159 226 222 224 224 185 223 224 190 224 228 233 229 225
244 233 218 215 216 211 215 203 204 206 216 212 215 192 201 247 242 236 233 232 229 223 214 217 221 214 218 217 216 217 130 221 222 223 224 223 226 228 124 233 232 229 228 221
183 240 217 214 215 216 217 212 172 206 214 213 218 225 295 192 193 202 202 237 230 236 239 231 225 209 221 217 217 222 221 227 226 226 203 222 221 219 225 220 221 222 228 210
252 244 182 211 218 218 219 215 220 171 210 214 215 219 201 242 204 178 181 243 233 249 244 240 238 213 239 232 237 239 243 239 232 241 248 235 241 242 257 253 239 240 245 252
216 236 214 222 215 214 222 213 218 169 152 209 182 207 220 218 214 290 283 269 257 219 240 240 244 225 240 237 245 255 163 157 262 256 259 255 251 241 246 245 263 252 149 131
250 239 222 206 210 215 226 208 210 214 149 151 151 208 177 212 212 217 219 250 294 280 274 268 259 245 234 218 221 251 244 174 210 222 236 249 262 269 175 140 126 114 131 126
260 243 222 220 206 213 226 212 207 211 203 160 153 195 203 201 193 193 208 207 207 205 195 196 206 248 259 219 216 216 217 215 209 209 206 192 138 119 121 129 136 133 138 202
267 244 223 215 182 188 229 189 206 193 202 205 204 162 200 204 201 200 199 198 196 186 168 177 193 200 186 188 201 164 182 198 182 200 144 134 135 126 128 141 137 175 189 185
279 256 235 223 218 224 224 196 212 201 195 198 204 200 203 200 208 205 194 197 198 197 196 194 195 203 201 180 161 167 202 209 131 132 132 134 131 138 142 147 192 186 178 193
285 276 275 238 217 227 208 218 182 214 207 199 194 207 203 203 209 132 195 138 138 197 197 199 202 200 199 200 199 199 202 204 203 190 135 170 187 167 157 196 181 196 197 184
283 282 260 239 233 222 221 207 210 205 191 204 208 208 204 195 191 184 185 175 193 193 193 184 194 195 187 184 164 116 128 148 175 155 189 188 180 178 191 165 170 195 200 206
277 279 280 242 237 215 222 222 212 209 201 206 208 207 205 206 200 197 194 193 191 191 196 128 116 164 163 136 183 178 188 186 180 179 190 197 195 198 193 193 169 191 192 192
276 272 271 270 257 219 211 205 212 212 211 210 204 205 211 202 205 205 202 201 192 196 201 203 181 180 188 195 197 191 189 191 196 199 199 202 207 194 207 206 195 190 193 204

GFSNW_2pvu_pres_021.txt.gz
Presure
296 293 298 280 257 212 176 224 206 203 202 209 218 255 247 224 216 251 353 321 323 336 344 328 324 326 262 252 227 223 222 174 222 201 158 193 185 164 180 180 172 192 89 189
308 296 284 269 244 242 223 216 197 198 203 206 219 256 233 210 209 208 222 260 321 324 327 328 311 285 261 253 227 224 253 217 213 205 194 197 184 172 182 179 171 181 181 183
303 294 268 259 244 217 216 208 205 194 206 211 224 249 246 207 204 204 220 231 228 288 324 276 287 257 239 207 250 257 249 206 212 212 202 192 190 185 177 183 174 178 162 177
292 279 261 240 241 239 212 204 208 204 200 215 239 242 216 206 199 202 219 187 236 217 227 221 226 217 236 239 247 246 226 212 205 198 188 188 199 185 177 175 183 186 131 184
254 276 252 240 239 218 226 205 208 197 197 213 247 242 231 205 144 179 217 226 216 246 260 263 227 210 249 241 232 230 213 201 195 194 194 192 180 179 139 167 176 177 180 179
284 267 243 254 236 217 210 204 207 207 207 214 248 240 235 207 200 199 214 225 234 236 247 261 273 251 230 254 269 242 222 206 197 195 194 191 179 181 181 183 172 188 179 183
277 263 242 256 219 217 207 213 194 209 213 213 245 238 242 211 203 198 204 212 167 227 229 244 245 209 210 240 259 276 216 215 200 194 195 189 190 181 186 186 179 180 182 188
194 260 257 227 220 217 207 209 208 189 211 218 241 235 244 218 206 199 190 199 207 218 224 226 238 201 199 209 297 260 269 217 199 196 194 192 193 190 188 189 188 184 182 179
178 260 243 224 228 217 205 206 208 209 209 220 237 237 232 236 213 203 196 191 188 192 222 225 229 237 232 200 193 217 323 268 226 207 196 195 195 193 193 188 192 191 191 189
272 261 229 228 230 218 207 200 211 217 208 219 240 240 231 237 219 208 203 200 198 192 192 219 220 232 238 276 194 192 220 295 305 267 216 209 204 202 192 193 193 191 176 190
283 262 198 226 204 217 211 177 206 183 172 221 243 244 229 232 233 204 97 204 199 197 194 199 204 215 224 234 253 291 295 194 186 234 294 299 228 209 205 201 199 190 195 195
269 252 238 229 229 217 205 211 201 189 179 182 245 246 229 229 233 230 223 96 198 198 191 192 192 199 211 216 216 237 243 246 250 222 199 261 293 268 181 181 268 246 250 254
272 275 177 225 204 217 207 171 205 211 190 186 187 255 238 226 228 235 230 234 201 207 197 194 195 189 192 189 185 196 213 223 233 236 239 243 241 213 244 244 198 209 200 242
271 266 234 233 227 216 212 208 205 209 208 212 206 271 244 229 227 225 226 232 226 228 212 203 235 196 191 116 189 197 198 197 192 197 205 211 214 221 197 222 137 219 217 160
267 262 238 233 225 214 212 161 208 205 209 200 223 269 259 235 228 226 223 221 223 227 223 227 229 222 208 215 205 174 196 197 214 193 190 191 127 198 197 178 132 170 132 195
262 257 244 238 227 211 216 160 181 207 211 212 221 207 196 243 233 223 235 221 222 220 224 231 229 227 222 219 220 224 218 227 231 134 198 199 199 231 232 231 127 124 225 225
258 254 236 175 226 208 216 217 179 204 210 214 217 208 214 248 204 236 221 227 220 222 216 215 224 220 225 225 225 225 225 229 230 229 226 227 215 230 232 233 233 237 239 239
262 255 241 161 224 209 213 216 206 212 204 213 214 220 253 192 249 239 237 229 230 224 219 222 220 218 218 217 218 220 221 221 222 218 218 222 222 224 229 232 232 230 229 224
254 262 254 235 227 214 210 220 213 205 205 203 213 214 231 257 196 190 211 211 242 237 229 227 230 224 216 219 227 227 222 225 226 230 220 223 240 244 246 246 248 253 258 259
279 253 246 238 232 203 219 214 214 209 202 206 182 219 221 221 273 277 263 182 180 185 248 250 234 227 225 235 183 246 249 248 242 243 210 148 256 258 259 258 264 268 269 173
272 247 250 238 219 219 211 209 223 210 210 213 207 152 217 215 222 218 202 266 219 210 210 238 233 228 241 245 247 254 255 241 249 235 243 196 251 269 274 264 208 131 125 126
276 258 242 237 229 173 213 209 215 213 207 215 206 195 151 179 215 216 217 223 261 306 299 294 271 253 250 247 247 246 248 247 256 262 236 236 207 196 192 206 128 138 134 130
275 269 246 251 242 230 182 210 194 213 203 214 210 210 169 191 150 204 213 214 219 217 215 211 211 231 207 177 200 201 196 194 194 202 196 185 192 207 160 134 135 131 134 142
267 265 269 249 245 243 222 174 206 203 212 210 218 212 208 213 215 212 164 203 202 192 190 192 189 190 170 181 193 189 189 198 162 162 177 194 173 130 130 135 192 194 193 189
270 269 279 258 254 241 224 219 210 209 215 215 210 216 215 205 204 202 203 203 201 200 201 203 203 201 200 198 197 202 207 205 197 168 201 172 157 170 188 166 172 187 187 194
263 279 273 248 263 247 244 219 215 209 205 217 220 209 203 197 206 202 199 202 177 132 175 205 204 203 202 200 199 199 200 197 195 187 120 119 190 186 187 191 189 186 196 196
286 273 279 273 270 255 241 240 219 213 217 216 205 222 211 208 202 193 202 203 200 202 203 202 198 198 198 197 153 131 131 167 135 184 173 186 176 197 190 190 189 196 194 203

GFSNW_2pvu_pres_027.txt.gz
Presure
476 396 353 335 327 317 327 337 367 338 312 286 261 236 230 206 205 222 227 222 209 239 299 331 310 320 348 306 313 261 283 262 255 255 249 254 248 259 249 186 171 230 216 227
371 344 355 343 329 326 328 331 364 317 285 264 168 233 210 201 212 226 227 209 223 271 327 321 320 281 274 264 256 125 246 233 244 258 237 241 255 236 246 273 184 214 232 223
344 346 335 338 324 310 323 342 325 292 277 242 216 216 201 211 221 229 207 213 233 337 353 277 204 272 262 247 261 249 244 248 240 240 243 231 230 248 269 243 219 229 224 217
345 336 314 311 311 316 334 325 289 291 241 170 220 215 207 216 225 219 205 226 228 386 345 310 313 270 252 255 243 246 253 246 234 245 254 237 232 241 263 221 184 142 219 210
330 318 314 309 310 337 325 286 286 248 238 217 212 197 209 223 242 207 208 225 230 294 289 199 270 189 255 215 189 237 145 244 237 242 248 213 194 264 224 228 236 224 202 184
329 322 313 313 330 324 286 281 255 242 222 196 212 205 215 227 228 204 199 217 230 228 252 149 248 200 265 204 182 150 242 188 177 187 234 243 269 208 224 242 233 207 197 181
324 318 324 313 303 283 284 267 247 228 220 202 215 214 220 238 210 200 208 217 229 236 221 222 229 281 253 257 246 258 208 182 204 271 201 248 233 224 246 232 208 194 175 169
325 330 311 301 278 289 275 250 239 228 212 219 208 222 221 246 211 204 202 220 220 233 226 218 205 212 221 272 247 202 272 251 189 190 218 211 235 239 219 209 161 167 168 168
330 322 306 277 293 277 261 238 234 220 196 215 215 219 229 241 210 208 205 212 227 228 237 234 212 204 201 215 244 258 195 253 250 191 196 190 227 204 179 179 176 173 171 178
330 314 290 295 280 263 248 232 223 215 219 214 217 216 239 240 219 208 206 202 222 223 228 239 248 240 208 212 241 247 245 247 236 244 186 228 198 202 188 190 180 180 183 184
326 297 299 282 188 252 230 234 225 207 222 209 214 212 235 238 220 208 206 206 214 219 222 228 287 293 260 233 242 240 243 249 246 268 239 212 203 188 187 185 186 183 182 179
305 295 298 277 229 251 240 224 216 215 216 212 200 205 232 239 239 211 201 207 202 208 215 221 224 236 284 208 208 228 234 244 248 251 226 213 199 193 192 194 191 189 188 187
294 305 284 268 258 243 238 221 215 216 219 214 209 217 227 243 239 235 214 205 203 196 198 207 217 222 230 281 207 204 215 306 251 244 252 204 195 189 191 193 192 191 190 188
297 295 279 265 255 239 234 222 215 219 220 215 208 216 224 240 237 229 236 209 203 202 196 193 189 206 226 240 264 268 201 198 208 272 289 290 247 205 204 199 196 196 195 192
309 290 268 262 247 240 233 224 225 206 220 217 213 216 173 237 237 234 228 239 223 204 198 197 193 201 199 217 226 233 246 250 241 196 199 233 269 271 277 258 258 243 201 200
296 284 267 260 239 241 215 224 208 200 224 196 216 215 192 236 235 234 232 233 222 233 208 202 200 198 197 195 205 207 210 113 115 237 242 250 251 249 251 226 242 244 253 254
294 282 266 261 250 240 223 217 221 202 216 201 209 223 185 219 216 235 230 236 232 231 227 200 201 204 202 197 195 194 195 194 193 111 209 213 227 230 233 233 233 231 229 230
290 280 269 259 245 226 229 220 222 223 211 222 211 208 228 203 196 222 236 231 225 229 232 233 230 213 200 201 201 200 197 194 194 191 190 189 190 191 188 189 191 191 191 193
293 281 273 268 245 242 230 216 220 226 205 209 197 189 212 212 218 221 253 238 229 223 227 226 225 235 237 230 230 223 201 198 196 196 195 196 197 200 202 203 202 201 200 199
299 281 273 269 250 249 228 229 209 225 194 207 152 192 179 218 218 216 223 244 245 226 226 221 218 220 221 230 226 224 228 226 225 228 229 230 229 229 229 228 229 232 226 224
282 277 279 266 254 247 225 233 207 224 217 198 189 167 206 206 216 218 223 226 253 251 230 221 219 171 224 221 221 222 223 220 223 217 217 220 222 223 223 221 222 224 230 238
285 280 275 272 258 257 236 231 209 201 218 200 202 207 194 207 210 220 220 224 197 275 254 232 218 227 226 228 226 223 219 216 219 222 225 225 226 189 230 233 241 244 246 252
298 282 274 276 272 260 234 230 224 194 207 216 206 212 207 180 161 215 218 215 226 200 259 246 241 236 185 185 225 225 225 225 223 221 225 229 232 240 244 246 237 245 247 243
295 290 285 279 280 268 227 220 226 218 203 212 219 205 212 214 209 167 208 214 217 235 268 205 204 190 191 186 185 200 234 233 238 245 243 242 238 239 239 267 268 266 203 202
307 295 287 275 275 272 260 224 219 222 221 211 200 191 213 215 219 211 207 190 190 156 200 241 262 202 238 271 270 236 270 270 273 277 284 297 303 260 200 196 190 188 203 205
305 314 282 277 215 204 261 251 224 223 220 221 218 200 201 203 202 211 200 204 205 204 187 152 170 227 230 237 245 252 255 256 258 259 244 175 175 178 190 192 193 195 198 198
301 310 289 270 264 266 259 261 253 230 222 220 226 228 214 203 203 204 210 214 191 205 209 210 213 212 213 163 214 217 218 215 208 197 196 200 200 199 198 198 197 199 193 192

GFSNW_2pvu_pres_030.txt.gz
Presure
430 431 462 409 411 365 351 344 346 313 307 315 294 263 251 254 264 278 247 231 200 231 242 222 264 351 276 276 259 262 263 259 258 253 285 298 298 310 309 86 281 277 295 295
444 440 400 415 382 361 349 360 316 305 325 346 385 296 269 274 277 245 225 210 231 231 222 278 306 281 267 265 260 121 249 245 252 247 263 269 260 269 276 267 260 104 220 273
475 432 393 375 366 340 349 345 307 332 341 387 337 322 302 272 239 223 214 227 243 219 291 273 201 269 258 244 248 239 251 236 245 255 235 238 250 254 262 263 261 252 220 181
390 374 347 346 342 341 333 321 275 251 366 322 298 288 170 237 223 209 226 244 217 230 398 251 263 257 257 243 242 239 235 236 252 233 240 234 244 246 165 251 251 252 268 246
368 354 337 325 322 320 324 321 321 364 292 285 268 249 235 225 210 223 235 215 219 228 331 273 273 276 241 215 242 237 233 236 241 234 239 242 250 233 237 249 295 280 245 229
345 339 325 326 312 318 314 312 320 285 276 257 250 194 224 223 216 233 226 215 227 351 238 178 253 265 250 204 239 235 255 236 243 239 238 227 220 259 227 258 211 270 207 218
347 334 343 319 320 314 302 314 277 268 250 249 235 221 226 213 229 234 214 216 256 333 248 254 154 260 186 150 181 242 183 230 226 232 169 253 242 260 244 255 232 232 226 217
340 322 315 315 322 324 285 282 265 251 248 239 225 223 218 223 236 219 208 220 249 233 224 219 246 282 184 219 182 179 216 193 184 250 237 214 266 253 262 273 243 228 219 224
323 321 317 328 331 299 291 262 252 248 236 227 225 209 200 236 227 218 210 221 240 238 223 221 215 264 228 212 241 244 230 250 256 192 261 249 210 253 251 209 217 234 223 185
325 325 330 334 127 159 270 255 249 236 231 226 197 210 226 235 226 214 209 220 225 238 236 233 211 220 232 234 251 191 251 215 247 240 217 242 298 208 218 226 233 208 178 171
326 331 329 315 297 273 263 249 240 231 230 207 215 217 198 239 236 212 206 204 221 231 232 237 240 206 221 227 233 211 229 242 193 187 238 233 216 224 229 236 200 178 180 178
337 325 309 293 279 265 245 244 235 228 225 201 220 218 232 239 234 211 205 203 211 221 225 226 236 263 249 244 238 238 236 244 245 236 218 210 182 262 220 185 178 178 176 178
336 311 287 299 278 258 252 229 232 228 227 222 215 209 226 239 237 212 208 200 209 207 219 220 221 275 307 263 261 231 241 238 242 240 250 263 255 193 208 190 187 186 184 185
331 292 302 289 277 255 246 240 234 224 211 221 216 219 235 237 238 237 209 206 205 203 207 215 218 217 223 253 204 209 278 290 242 244 246 247 236 216 198 191 191 193 192 190
335 290 294 282 263 254 246 235 228 225 213 220 220 220 186 240 236 237 236 208 202 207 197 183 203 208 215 231 283 232 238 209 266 278 285 272 247 226 208 205 191 191 190 191
304 294 298 281 259 250 241 233 228 221 215 217 216 220 219 237 234 235 236 230 216 205 203 197 192 192 190 204 224 259 264 267 201 198 207 274 273 280 217 215 202 198 197 196
296 298 290 277 262 250 238 235 233 206 219 216 211 210 219 179 238 229 232 230 235 221 207 205 203 198 197 197 193 210 221 231 237 242 246 211 178 252 255 254 256 257 256 258
296 306 288 274 263 248 242 237 225 227 206 223 208 212 222 222 238 234 232 233 232 230 234 209 210 205 201 197 200 197 198 196 190 199 205 221 224 178 233 245 243 248 247 239
294 304 292 275 261 248 246 237 223 206 217 213 216 210 231 212 194 230 235 231 229 234 230 229 221 222 215 211 205 203 203 198 195 192 193 190 189 190 189 188 190 190 190 191
295 307 293 270 258 251 248 232 228 222 220 195 218 215 214 226 210 199 247 238 231 223 226 227 227 227 232 230 245 203 212 201 200 199 198 198 198 196 195 197 199 199 199 200
302 306 292 267 257 255 246 241 232 216 215 202 199 186 199 197 215 206 207 235 242 234 225 225 219 225 224 224 223 223 235 225 228 226 223 222 220 220 223 228 228 228 226 226
293 308 291 268 260 259 248 236 235 219 214 217 216 209 176 150 208 205 214 215 216 246 247 235 231 225 222 222 220 219 221 225 227 227 227 228 225 225 222 219 222 225 225 230
310 300 290 273 259 263 251 231 227 222 215 214 218 215 209 218 156 204 207 216 216 217 212 227 246 250 238 225 224 226 225 221 220 221 223 223 222 220 225 222 222 169 235 238
308 308 293 282 275 268 253 250 167 221 226 215 209 222 210 207 218 218 203 200 209 217 222 225 198 245 287 255 234 225 224 225 226 225 224 223 222 224 232 231 234 243 241 243
307 320 293 291 271 272 250 144 109 231 220 226 214 212 228 216 202 192 215 210 202 200 223 220 215 234 198 254 203 180 181 182 185 217 234 235 237 250 260 278 289 290 297 258
313 315 325 290 282 269 261 248 245 244 228 226 231 208 211 218 218 205 210 204 205 211 168 208 211 214 218 243 246 246 247 244 266 271 273 275 275 242 261 259 256 221 206 192
321 322 306 307 289 274 264 254 244 244 232 228 229 230 222 203 212 216 206 204 210 207 190 203 201 154 148 154 158 224 230 232 232 233 237 238 237 236 235 229 206 199 200 200

GFSNW_2pvu_pres_033.txt.gz
Presure
452 433 450 471 420 423 387 332 366 342 357 267 261 254 241 237 227 231 227 222 228 236 278 256 212 225 246 266 248 275 273 269 264 244 262 269 277 351 367 354 354 405 373 318
464 442 465 490 410 450 363 341 312 318 362 332 304 262 241 236 236 235 223 237 239 280 246 215 226 249 284 257 276 261 262 249 247 255 248 252 266 269 293 374 379 395 371 287
439 452 449 409 421 399 375 328 317 318 326 321 314 334 288 247 245 249 245 243 274 236 217 225 296 187 254 243 240 262 253 249 242 243 247 249 251 250 272 289 313 386 266 311
499 434 398 415 355 358 341 331 331 310 306 312 313 315 324 363 303 272 252 268 227 228 222 231 233 251 177 271 263 240 243 235 242 245 247 231 255 234 255 255 261 273 290 299
422 386 401 394 349 343 333 319 317 309 291 315 319 325 344 325 295 261 254 227 219 220 231 315 270 237 244 207 242 249 240 234 245 237 232 226 235 251 228 249 256 259 254 268
451 423 435 382 353 336 324 329 317 326 300 308 315 333 314 287 267 240 227 221 223 220 243 286 222 217 174 161 237 244 243 233 239 237 230 233 233 240 233 254 245 240 255 265
380 429 366 367 364 347 355 304 308 321 339 359 316 291 259 250 234 231 204 224 225 217 213 271 187 221 236 168 246 227 241 231 245 229 229 227 221 230 232 239 226 247 256 268
364 352 345 339 333 324 312 311 329 335 305 293 258 246 190 233 227 219 229 217 219 340 274 229 235 267 255 236 187 249 256 247 238 241 238 232 226 229 237 240 233 241 243 184
354 328 332 327 314 309 306 330 305 287 269 253 249 198 236 223 231 249 211 219 225 233 278 194 274 267 235 208 149 151 226 240 243 238 224 222 231 234 233 247 234 246 253 268
343 328 322 320 315 322 153 292 281 262 253 246 234 237 222 231 247 223 210 221 254 250 237 234 237 254 218 198 244 176 174 235 231 223 217 235 249 242 252 233 245 252 248 215
350 337 326 323 324 298 294 276 263 250 247 234 240 226 228 219 247 218 211 224 249 247 235 217 202 256 217 184 206 234 258 215 226 226 232 223 232 209 248 249 263 269 208 213
336 328 329 325 308 292 272 264 252 250 237 233 234 222 203 236 243 218 211 232 227 243 240 239 227 213 220 224 226 189 187 222 222 227 216 230 227 234 245 209 266 212 211 221
332 330 332 335 290 270 266 254 250 238 238 234 231 216 221 238 232 224 210 200 229 227 228 231 237 241 215 239 234 221 231 201 205 232 218 207 218 209 227 211 219 223 222 217
346 326 326 299 284 267 256 251 248 244 235 234 221 218 225 242 229 224 211 204 220 220 223 227 229 213 234 256 264 240 237 229 243 237 226 197 219 222 218 240 236 225 209 180
330 333 335 283 273 264 254 241 249 239 236 237 205 225 199 242 230 223 215 205 215 216 215 217 217 221 223 229 209 311 253 251 271 244 244 246 256 245 245 239 207 189 184 180
326 340 334 295 273 255 253 236 244 242 228 230 219 225 241 243 237 238 214 212 203 210 206 208 211 212 219 224 273 276 201 205 274 283 282 284 290 243 276 216 203 191 191 192
337 330 286 285 269 251 251 241 247 240 228 223 211 224 224 244 238 240 242 213 209 206 210 208 206 207 214 216 219 221 264 272 271 199 200 259 271 274 281 246 208 203 199 194
343 310 293 273 266 253 249 240 248 238 226 225 169 225 217 179 226 237 242 235 213 209 203 204 207 205 201 194 198 205 212 220 221 235 240 221 199 199 213 228 267 248 223 218
330 306 291 283 262 257 249 249 246 231 227 220 212 219 227 209 179 192 237 240 227 237 227 202 201 203 205 201 199 193 191 192 194 201 206 211 215 220 222 223 226 229 230 230
308 309 291 289 265 262 247 247 236 230 233 221 203 219 210 222 218 192 237 234 228 227 230 236 222 208 207 207 207 206 201 198 195 196 191 190 190 190 190 192 195 196 195 193
341 310 293 293 282 265 249 247 239 236 229 226 189 205 183 208 218 196 182 220 202 227 228 230 235 233 234 228 217 215 209 210 211 237 217 202 199 201 201 203 201 199 205 205
334 305 289 291 285 275 253 248 238 228 226 225 216 208 212 208 212 223 208 238 214 217 230 224 226 226 226 229 232 231 231 231 225 227 231 218 225 226 226 225 224 224 226 230
344 311 293 292 287 283 263 244 228 230 223 229 222 216 203 217 208 153 219 211 203 215 240 238 233 224 223 222 221 222 224 224 222 224 225 225 224 224 225 225 224 220 222 216
345 328 310 292 295 292 258 244 231 231 220 226 232 222 219 200 216 169 210 197 209 212 217 215 248 245 240 237 235 233 228 222 223 224 223 222 219 222 224 228 227 225 224 233
338 342 317 309 292 294 258 252 238 234 230 231 228 231 221 177 203 208 215 211 176 205 210 213 210 214 219 223 229 234 243 251 247 233 225 224 228 228 229 230 234 234 233 242
343 340 339 313 296 299 279 251 248 238 234 230 229 227 224 219 216 216 216 201 220 171 200 186 207 209 209 204 196 209 226 277 299 218 181 187 189 191 203 237 244 272 276 257
346 332 340 332 296 297 284 266 253 247 237 220 226 228 228 226 224 215 214 223 202 204 221 216 206 196 207 211 210 210 210 205 215 256 273 276 271 272 270 251 240 236 233 232

GFSNW_2pvu_pres_036.txt.gz
Presure
478 464 446 451 446 479 428 356 336 356 328 311 274 247 236 235 233 222 223 215 215 209 200 206 213 203 230 259 231 228 275 266 249 255 271 263 260 270 302 322 326 386 348 395
495 461 439 476 449 443 383 355 338 334 329 337 282 262 232 233 231 235 226 216 210 211 209 208 206 230 268 225 247 284 251 272 235 258 255 241 256 266 279 323 328 425 372 396
490 471 441 466 447 448 341 332 315 330 332 314 320 272 252 233 233 236 233 220 219 213 216 214 234 260 221 248 181 261 243 257 158 260 251 237 251 261 265 290 420 447 341 323
463 457 448 486 427 391 352 348 324 313 305 312 308 304 269 241 207 230 232 224 220 221 217 232 253 228 238 285 242 234 237 253 246 238 250 151 234 249 267 269 341 336 318 296
504 464 458 419 363 340 325 317 310 312 325 314 313 315 313 266 239 238 246 238 225 210 237 260 225 234 282 218 172 256 157 239 229 229 225 236 235 246 232 261 282 310 307 303
494 467 425 443 349 334 321 314 318 279 310 335 326 319 322 349 301 244 229 231 241 244 263 225 223 237 246 191 221 150 172 236 230 221 230 246 223 236 252 243 248 265 280 294
483 414 432 417 361 335 330 322 305 309 321 317 314 315 318 320 333 333 275 247 251 272 220 223 285 271 186 218 173 251 238 229 231 219 228 230 234 228 234 239 227 249 268 266
424 458 478 397 343 335 317 312 309 309 320 315 317 322 335 319 312 303 283 267 244 223 217 286 285 250 244 179 236 253 243 230 234 227 233 228 238 218 226 234 243 251 242 255
423 378 351 348 336 324 309 302 322 303 306 321 316 327 279 272 263 266 267 228 223 214 260 271 213 177 203 267 170 173 226 188 235 243 213 226 213 230 217 191 232 254 251 240
442 379 359 354 318 313 285 315 166 312 318 311 282 275 269 219 253 236 246 222 247 297 293 287 234 229 187 267 223 159 212 201 211 225 220 221 226 222 225 226 223 241 249 206
352 342 336 341 304 311 306 305 317 340 280 271 266 259 254 241 232 224 227 222 264 292 199 227 204 225 249 219 182 219 176 207 222 220 208 190 242 228 230 239 237 241 250 242
346 337 326 325 323 313 322 326 289 267 264 257 250 193 244 229 203 227 220 229 236 250 255 219 230 190 221 205 223 233 229 224 226 226 226 226 177 243 232 255 258 260 255 243
352 347 324 320 317 319 321 277 262 257 256 247 248 236 234 239 237 223 220 257 256 232 229 232 223 223 194 223 174 231 231 194 222 214 225 229 228 245 226 234 243 298 270 203
349 344 332 332 318 325 280 262 254 256 203 245 238 236 232 245 228 217 222 233 243 245 230 219 225 156 228 236 241 182 195 215 228 236 210 208 203 227 182 186 223 235 210 212
358 312 324 325 332 284 266 254 250 252 250 243 239 236 219 250 228 216 228 231 232 225 229 238 237 238 243 242 236 268 249 243 233 224 209 210 202 219 222 225 185 224 236 229
364 329 333 314 289 273 253 254 249 253 236 240 233 236 211 245 243 220 215 228 227 228 226 223 227 237 231 241 218 293 295 278 253 265 255 241 237 255 239 223 233 245 242 227
366 330 332 298 282 267 251 256 252 250 240 232 240 227 221 236 244 232 213 216 214 221 217 216 214 219 221 223 253 198 199 200 241 264 274 277 284 279 235 243 237 232 203 191
350 329 321 272 278 266 258 252 246 249 240 230 233 218 214 209 241 240 226 211 206 210 213 219 219 221 217 208 212 219 221 264 268 232 199 204 238 261 270 281 227 224 214 194
345 327 324 294 275 270 258 253 250 250 225 232 220 226 209 248 245 236 236 224 214 210 200 201 206 210 207 213 206 207 207 207 209 221 219 240 228 189 191 209 250 248 249 245
352 330 325 291 275 270 253 242 248 232 237 234 228 228 202 213 247 178 247 228 225 219 211 208 202 198 198 206 202 207 203 203 205 204 206 207 208 207 212 215 219 222 227 230
352 340 326 291 281 264 264 231 248 249 240 223 229 226 214 209 215 180 245 242 234 223 221 217 216 206 205 201 202 201 199 200 196 197 201 198 198 198 197 197 196 197 196 195
353 334 325 285 293 274 268 252 235 246 243 233 224 223 221 207 207 219 220 243 236 233 231 229 223 236 231 224 215 211 210 207 207 207 208 205 201 202 205 206 199 198 195 206
350 346 321 320 290 291 273 253 241 236 243 232 232 222 225 215 206 206 201 217 184 179 234 233 227 233 235 234 233 235 233 234 233 230 227 230 231 233 226 222 223 223 225 225
358 350 344 308 310 289 278 252 239 242 239 242 230 230 218 225 207 214 211 202 208 243 192 231 230 229 226 226 228 226 222 223 224 224 225 224 224 222 221 221 223 225 229 230
358 352 352 347 306 301 286 258 245 246 245 238 241 228 223 223 219 209 217 212 184 155 215 204 198 244 240 237 235 234 233 234 234 233 233 233 234 234 228 225 226 229 230 232
533 357 342 360 340 304 285 280 261 248 245 244 240 236 229 221 220 222 210 203 218 214 205 202 206 214 214 213 207 203 202 199 213 216 218 216 235 280 297 270 204 238 217 206
319 482 360 346 351 326 301 275 277 280 257 244 241 239 232 230 227 214 221 174 209 201 214 212 207 195 199 206 210 210 210 208 209 201 204 203 221 229 188 187 190 191 192 249

GFSNW_2pvu_pres_039.txt.gz
Presure
616 456 474 454 420 450 426 426 425 487 374 348 297 281 243 237 260 248 246 231 221 211 207 207 207 216 213 209 215 192 210 224 251 289 258 257 289 259 257 265 271 146 308 347
553 484 442 467 443 435 418 428 432 393 376 336 331 285 249 239 239 260 228 219 216 216 208 208 212 213 210 200 208 200 240 231 263 278 249 254 253 258 245 265 275 366 348 354
456 458 470 459 452 428 416 438 391 368 340 338 330 284 257 237 231 241 232 252 225 214 208 208 209 215 210 208 222 245 219 267 249 241 249 243 227 255 248 243 306 408 394 380
486 481 471 463 445 413 415 347 354 332 337 332 337 306 274 243 165 239 232 210 225 217 216 213 202 211 212 222 242 224 271 252 238 228 223 251 239 238 232 242 277 293 316 329
491 454 477 471 452 392 348 340 325 329 337 334 329 196 343 268 239 216 235 229 222 214 217 214 213 198 219 230 219 201 264 154 234 225 242 231 227 237 242 239 260 319 298 319
435 448 426 448 370 357 340 335 315 305 312 327 306 323 338 286 238 231 226 224 226 224 224 219 223 222 228 260 219 273 223 210 230 241 230 240 223 250 234 256 255 261 301 299
421 422 434 364 354 333 332 331 327 313 297 306 217 316 327 323 249 238 230 224 224 225 221 222 218 218 261 205 215 206 174 237 245 234 228 237 216 228 242 232 245 251 259 288
410 466 488 333 344 332 327 327 323 311 328 307 306 312 321 337 318 234 238 232 229 222 229 238 232 258 239 178 254 230 190 241 224 212 219 232 219 238 237 227 242 240 254 262
423 476 379 333 357 325 324 307 307 168 299 299 316 324 317 310 339 348 246 240 233 236 240 243 255 236 266 285 250 198 170 219 217 227 220 216 218 221 230 232 236 227 247 248
486 448 381 339 347 327 322 316 305 322 327 326 296 297 306 306 334 351 260 239 243 241 202 245 230 255 247 176 238 154 244 206 215 232 217 217 210 220 227 223 226 232 238 232
430 451 355 350 330 325 319 293 308 315 304 297 310 316 313 307 302 294 296 289 271 267 224 215 263 233 198 224 196 184 220 188 225 227 221 213 225 234 227 217 231 230 235 228
373 413 346 351 333 322 314 301 310 323 315 306 280 276 275 277 279 276 272 274 251 219 226 249 211 264 200 239 230 267 246 223 220 215 213 219 179 236 234 242 233 230 230 232
358 356 341 324 308 296 319 312 318 298 274 266 262 260 265 266 257 245 236 228 251 282 378 249 229 192 245 197 232 232 192 201 234 173 229 228 224 239 236 242 255 247 241 232
355 361 343 328 325 325 310 318 290 279 267 262 260 271 251 243 235 234 228 220 243 285 306 230 220 234 227 228 178 173 208 224 226 227 228 216 220 246 208 214 253 266 271 228
370 356 351 362 338 320 330 288 275 267 264 265 261 246 235 218 234 227 272 230 276 262 241 242 227 233 223 224 235 233 216 218 227 240 238 209 200 222 207 210 221 226 206 210
377 355 338 332 323 323 282 275 266 265 265 259 245 237 227 244 234 225 249 251 257 249 237 222 241 192 238 244 231 250 261 282 239 225 220 212 216 216 212 228 214 220 229 212
382 358 335 331 323 294 276 271 265 258 251 254 238 225 244 227 230 226 223 245 241 241 241 236 218 251 238 250 248 260 273 256 262 266 267 267 246 233 245 236 234 218 236 232
383 364 320 327 323 284 274 265 261 254 250 247 241 229 201 245 227 220 213 219 224 227 219 226 224 217 210 220 259 255 254 256 264 263 262 272 263 269 276 240 237 233 231 226
381 370 330 329 324 286 269 265 261 252 258 233 237 238 195 241 233 221 216 227 209 223 225 233 221 227 224 210 196 210 201 233 230 235 197 214 215 251 262 264 263 265 239 224
386 339 334 341 300 285 268 253 254 255 250 234 221 230 199 204 245 244 224 211 211 209 210 216 222 223 214 219 219 211 215 216 204 208 222 224 218 218 221 224 203 241 237 242
389 337 334 336 298 287 266 263 250 258 245 244 230 224 224 210 204 238 242 238 227 211 208 207 211 204 214 211 213 214 200 213 212 212 210 212 209 212 212 211 212 212 214 219
385 357 332 337 307 288 271 260 253 247 258 248 166 225 213 213 206 214 209 176 239 236 226 221 212 208 205 201 199 205 202 192 192 192 192 191 189 191 194 195 196 197 198 197
408 375 347 342 332 298 281 255 251 245 249 251 230 232 224 228 211 205 203 196 207 187 233 226 225 221 219 217 234 214 209 209 207 202 201 200 201 199 201 205 201 202 217 223
341 381 373 353 340 297 279 263 253 257 249 245 243 229 235 220 222 203 214 196 195 217 191 234 233 232 231 232 229 234 228 225 223 239 225 228 231 229 230 227 226 225 224 227
276 366 364 368 358 330 278 269 263 257 258 254 240 244 228 229 218 215 211 214 191 204 184 197 233 232 232 231 228 227 229 232 231 227 223 223 222 221 223 227 232 237 243 247
264 297 420 363 354 343 319 277 268 262 258 257 257 247 242 232 221 223 196 216 209 208 207 194 201 235 190 206 234 232 232 232 232 230 231 232 233 234 228 224 226 225 231 256
265 264 294 499 354 344 327 311 283 274 270 261 254 251 253 242 235 219 220 88 206 200 112 213 208 211 211 201 205 213 215 214 199 205 203 212 215 219 217 214 215 211 205 215

GFSNW_2pvu_pres_042.txt.gz
Presure
328 432 505 464 458 458 416 434 449 436 336 333 311 296 255 244 242 261 269 247 240 218 221 223 326 295 274 214 214 207 208 213 212 205 193 210 247 267 256 75 78 273 286 311
323 452 456 498 461 415 420 418 475 339 318 318 327 300 254 243 244 231 265 247 236 221 218 214 217 212 211 214 211 209 210 210 200 219 217 272 230 265 250 259 259 262 190 129
322 448 489 445 437 406 393 407 417 335 336 324 327 315 256 247 239 238 264 246 239 226 218 214 214 209 212 211 211 214 195 206 214 224 270 247 263 225 256 248 269 278 281 282
319 462 506 408 459 406 397 418 336 316 315 324 319 337 260 247 239 242 263 244 223 220 221 219 216 210 216 214 217 189 211 214 255 258 252 244 226 255 238 243 260 301 283 293
316 471 512 447 414 392 391 384 329 321 307 325 327 335 288 245 242 232 255 254 229 229 215 219 214 212 216 216 214 211 215 229 204 248 238 204 247 246 234 235 259 272 277 298
312 515 493 460 418 389 403 392 411 323 307 335 347 328 282 250 242 237 230 251 234 221 226 217 214 219 221 202 207 221 231 223 246 179 218 163 240 226 233 237 250 221 288 278
306 515 481 388 386 404 374 358 340 306 309 320 325 325 310 250 242 234 230 235 247 239 227 225 215 219 221 210 218 223 226 169 228 238 221 222 224 236 225 227 239 262 264 272
330 496 418 372 365 355 345 328 331 331 356 320 323 266 328 282 241 232 231 227 227 227 222 217 218 221 220 220 220 183 264 209 202 192 221 216 217 216 227 223 233 243 260 276
329 403 369 373 353 343 339 333 324 347 313 312 316 328 318 339 271 236 224 227 229 225 228 225 224 224 215 225 246 225 257 230 216 195 230 216 215 215 216 220 231 227 242 250
322 408 385 362 368 321 336 314 316 303 319 306 308 311 321 241 329 237 241 223 229 218 221 217 225 228 227 259 247 269 224 179 206 223 222 220 221 217 228 215 207 223 230 240
317 445 366 373 337 312 333 321 309 322 314 307 309 311 318 312 324 302 241 233 227 230 220 230 221 238 245 209 219 245 202 206 208 220 233 217 229 234 231 229 226 223 225 229
332 400 399 374 349 330 323 315 319 334 322 318 328 298 294 298 312 347 249 242 242 240 228 240 237 204 259 272 257 238 198 233 238 226 225 219 232 224 239 227 237 229 229 224
337 405 385 368 322 329 327 314 314 305 299 301 303 310 309 308 314 331 305 255 244 239 243 242 236 249 270 256 247 170 199 232 220 224 226 230 229 224 243 242 237 222 236 239
345 394 373 342 327 306 293 306 306 305 306 301 291 290 289 290 297 302 303 308 306 243 244 241 248 205 239 204 222 222 180 230 229 231 233 220 234 240 176 237 256 230 265 226
449 381 372 341 331 326 309 311 314 295 281 278 275 276 276 269 268 268 270 274 274 273 234 240 253 212 246 239 208 177 174 228 231 238 220 224 226 237 243 229 246 246 231 219
622 386 362 358 341 314 315 318 276 275 270 269 266 264 263 261 257 250 228 227 246 244 248 288 239 220 205 246 240 232 235 199 231 221 222 226 221 202 209 209 222 255 203 207
632 386 356 361 343 318 317 285 277 270 267 261 266 255 248 211 233 234 246 231 278 322 326 263 256 248 223 237 219 234 205 249 212 236 208 203 209 212 207 211 215 221 219 214
629 381 353 366 340 330 295 279 276 267 265 268 259 242 208 236 226 244 234 237 276 278 222 252 240 217 240 246 216 241 260 232 253 257 259 264 257 257 235 245 236 229 236 230
482 384 348 344 333 327 284 279 277 268 264 263 247 205 204 227 220 232 246 242 243 236 227 230 251 248 243 256 218 221 258 251 251 251 251 263 275 254 258 237 231 236 237 230
428 383 354 343 329 301 285 272 270 269 266 256 239 202 207 235 228 228 234 227 220 212 246 225 221 235 220 230 216 255 234 240 239 183 225 200 200 202 244 251 264 262 264 228
394 385 365 342 340 293 281 269 268 276 263 259 232 223 247 225 212 229 226 217 224 215 228 222 215 227 223 222 244 208 220 206 202 214 220 205 222 222 220 214 213 220 228 233
283 389 368 355 337 289 278 270 269 262 270 256 231 219 199 199 234 222 221 215 221 218 210 215 227 208 210 223 210 205 220 213 219 221 209 212 212 211 210 209 198 198 199 200
269 351 379 338 326 338 282 268 271 267 256 262 249 222 228 211 200 239 238 228 216 209 210 216 206 201 202 208 201 209 204 209 207 201 200 197 193 191 191 191 193 193 193 194
258 275 385 382 342 341 288 263 274 272 266 253 260 242 221 222 216 190 216 234 239 178 235 218 213 210 209 205 202 201 200 200 200 200 209 200 199 203 241 212 208 209 211 223
257 262 282 395 375 338 325 281 266 274 267 266 247 254 234 217 203 207 198 203 204 214 225 216 236 235 232 229 223 221 224 227 234 222 222 223 222 228 225 228 232 231 224 223
261 255 264 286 400 366 329 310 285 261 271 266 263 253 248 229 222 217 205 216 199 217 210 215 220 165 222 228 225 226 225 222 225 229 229 228 230 228 224 220 220 224 232 234
268 256 254 267 284 429 360 340 306 282 279 274 267 259 260 249 237 222 217 212 138 199 203 200 218 211 229 227 210 230 229 230 229 225 224 225 226 227 227 232 242 245 221 212

GFSNW_2pvu_pres_045.txt.gz
Presure
322 338 428 502 437 416 410 408 441 470 367 349 329 306 298 265 251 239 246 277 261 242 241 236 218 272 280 269 262 253 250 247 249 253 240 231 215 217 213 214 213 243 277 276
350 334 536 460 431 422 400 421 465 498 353 341 318 314 294 262 244 229 247 275 262 241 229 219 215 282 281 272 263 250 246 246 240 205 213 216 207 217 216 271 253 246 259 265
337 330 478 431 416 391 407 435 457 465 350 324 323 304 283 266 238 247 229 268 259 252 222 219 215 311 294 278 270 237 211 212 213 212 204 210 216 251 261 258 253 255 255 314
317 326 468 414 407 409 421 430 390 388 347 336 327 270 291 259 241 233 227 267 257 236 223 219 218 221 222 215 215 210 212 210 215 199 212 218 256 256 255 211 239 250 280 278
313 320 460 401 407 415 402 362 348 345 365 323 317 299 294 255 247 231 225 264 253 238 225 216 214 212 212 209 210 211 214 216 212 216 242 236 262 238 158 236 232 248 260 258
298 318 444 401 403 419 351 341 328 347 338 316 320 301 279 252 236 236 221 259 245 236 229 219 217 215 211 210 207 214 209 211 218 236 255 252 218 194 226 226 235 259 247 259
298 320 434 402 384 419 346 330 341 324 318 326 331 301 274 243 233 229 229 251 240 235 231 213 216 215 215 211 217 210 210 220 222 176 244 216 195 228 228 226 227 252 268 244
297 322 429 422 413 406 354 344 329 319 320 320 328 336 280 250 239 230 231 253 242 229 219 224 218 216 215 217 219 214 215 212 206 188 240 217 227 227 225 227 217 241 258 234
299 318 368 387 390 415 331 328 322 303 316 331 320 324 346 248 221 233 222 231 243 225 231 215 218 222 226 219 217 220 219 240 222 193 223 221 221 207 217 227 215 235 242 231
293 309 365 370 364 361 327 333 322 324 330 300 314 311 324 255 245 241 234 229 244 238 235 222 229 223 217 220 216 220 225 250 245 233 172 233 228 220 224 216 231 217 239 229
312 303 374 366 341 341 341 364 349 317 308 328 328 328 319 270 247 243 238 231 218 230 230 227 223 224 224 215 221 219 265 255 237 161 225 213 218 230 224 226 220 230 225 240
327 302 376 387 336 342 320 304 343 273 316 299 273 297 298 309 266 250 233 235 233 232 231 232 225 229 214 222 220 235 253 242 229 207 227 237 227 230 223 243 227 229 232 252
325 300 379 395 344 329 329 307 302 315 305 295 302 296 311 303 316 259 249 235 232 228 225 218 221 225 222 221 175 217 248 242 159 208 237 226 231 219 224 243 215 251 234 225
320 298 400 393 340 337 334 315 311 322 314 320 313 306 296 305 315 345 262 248 240 238 232 222 229 226 229 221 278 174 174 209 228 250 230 230 236 196 233 242 228 244 239 247
315 294 430 404 354 334 337 318 304 294 296 303 294 303 301 302 306 314 325 239 237 236 236 234 234 228 213 237 236 273 249 237 179 228 230 234 236 227 210 221 234 247 225 212
313 293 422 375 350 333 325 308 301 302 304 307 291 293 292 299 300 309 327 297 245 243 238 237 229 242 195 266 242 262 246 249 226 234 223 235 231 240 216 241 240 246 252 220
307 392 407 370 349 334 302 306 308 300 290 283 284 286 279 272 277 285 294 300 312 283 247 227 216 250 244 262 200 198 203 241 235 234 224 243 222 214 223 211 207 218 219 208
303 571 399 371 354 306 303 307 293 280 281 279 275 265 265 268 264 264 265 266 273 272 282 264 243 272 217 226 227 238 240 242 206 210 214 208 209 215 213 217 210 211 211 220
298 450 387 360 362 313 311 299 278 280 275 269 266 260 250 246 222 232 233 253 301 235 312 238 253 235 220 234 212 242 227 229 235 244 241 252 255 247 256 268 253 244 241 229
293 346 375 362 338 319 311 284 272 276 270 266 258 251 238 227 229 249 226 233 290 288 309 325 294 236 241 250 234 243 208 249 265 252 248 245 256 251 247 256 256 251 246 239
290 273 370 357 337 350 302 283 274 279 267 272 253 239 210 229 236 230 232 249 265 249 253 217 240 226 194 192 245 242 258 250 217 237 244 203 241 203 241 204 198 200 217 223
288 273 385 358 343 337 293 283 275 272 270 269 248 233 210 221 222 227 221 240 247 232 240 228 224 225 220 238 233 254 239 242 223 241 219 227 209 219 220 212 220 220 219 212
286 276 279 376 319 341 305 279 280 269 274 267 256 233 208 216 225 224 223 226 234 231 233 219 254 250 230 234 239 228 206 230 208 202 216 212 225 200 208 218 201 199 194 193
288 276 263 391 382 362 319 282 273 279 267 271 261 231 226 209 229 204 234 217 230 223 232 224 211 222 207 210 226 199 212 232 202 220 210 213 211 194 195 197 198 198 194 204
292 280 269 254 379 350 323 290 269 269 275 267 270 250 227 212 206 220 207 222 226 223 220 217 217 217 213 213 209 206 202 201 203 204 201 202 200 200 202 210 221 224 237 229
277 286 271 263 266 396 359 328 299 280 259 260 264 264 220 220 224 205 218 209 199 235 234 227 224 215 210 192 204 203 203 203 203 203 203 218 232 220 223 226 225 224 224 223
290 280 281 265 256 245 455 383 350 330 278 281 266 269 262 248 216 224 210 224 214 207 113 134 234 234 233 234 232 171 172 202 223 224 225 221 221 222 222 222 222 220 217 215

GFSNW_2pvu_pres_048.txt.gz
Presure
303 317 320 341 425 421 420 431 455 466 434 391 359 324 315 280 251 238 231 242 275 261 256 246 242 236 233 233 232 219 227 230 224 218 216 218 256 260 258 257 250 247 242 225
196 319 316 334 426 411 442 441 481 481 358 333 323 319 307 265 246 241 235 237 271 256 248 240 236 233 234 233 227 224 227 266 268 271 260 250 246 246 245 230 221 215 212 260
307 320 315 328 431 424 458 479 427 373 346 334 323 306 290 254 246 240 238 236 268 254 246 239 231 229 225 218 269 267 265 266 265 250 237 237 230 217 214 214 234 238 256 254
335 321 314 322 424 426 446 505 387 363 335 324 311 298 284 253 248 235 236 240 269 250 233 236 231 224 212 268 275 270 264 265 243 223 219 218 212 209 222 255 246 248 242 167
315 313 334 317 427 427 437 447 358 358 336 324 305 296 283 260 195 235 234 247 266 253 227 226 221 214 229 287 280 275 219 209 213 215 216 217 211 258 223 235 237 233 244 265
334 316 328 315 434 408 437 341 322 356 329 329 317 296 282 261 238 228 229 260 261 250 231 223 217 218 218 216 212 210 209 214 220 210 217 224 247 247 236 233 224 241 255 261
313 318 329 315 426 364 375 370 340 351 333 322 329 265 279 254 239 227 220 244 253 245 231 220 215 216 210 209 208 209 211 213 209 221 219 236 234 243 228 180 227 238 244 231
316 316 334 314 346 360 349 359 367 320 348 339 323 293 268 245 232 223 224 237 249 242 229 221 216 215 214 212 210 209 218 209 217 211 230 245 229 232 227 222 222 226 238 257
303 306 301 312 312 363 350 359 348 357 322 324 328 314 267 249 238 232 221 248 248 241 230 224 217 216 217 211 214 215 219 218 215 213 255 214 209 233 227 214 217 228 240 231
295 297 316 309 290 348 340 352 315 326 314 332 315 306 264 250 238 222 231 234 245 238 235 228 217 215 210 215 212 223 219 210 218 260 227 227 213 227 213 223 222 213 221 234
290 306 296 305 287 376 350 333 323 325 306 318 317 327 264 241 248 242 229 226 248 239 236 222 218 219 221 218 223 222 214 211 191 249 231 224 230 226 231 225 218 235 212 262
300 303 294 306 287 357 361 345 327 335 338 301 301 314 312 262 245 246 234 233 243 247 230 234 221 218 226 221 223 216 200 214 256 252 157 202 220 222 231 226 223 221 223 249
300 303 296 308 286 356 339 325 364 361 316 313 324 314 259 305 255 257 243 237 232 233 240 229 231 237 222 222 217 198 221 221 253 251 240 223 237 230 222 228 239 225 234 224
295 304 324 305 286 356 340 324 310 305 338 331 294 297 306 306 296 251 258 241 238 236 224 231 221 225 228 218 220 202 217 244 207 251 190 227 233 233 220 224 245 222 237 242
296 302 323 302 371 361 340 322 312 310 309 310 307 303 304 312 298 253 251 250 235 233 237 226 232 216 221 222 219 224 206 255 226 245 236 251 249 232 226 227 188 222 237 216
299 304 328 295 389 353 340 335 310 312 316 317 325 334 312 308 310 327 271 237 249 243 224 236 224 229 224 212 197 217 274 216 245 250 254 220 243 228 243 230 231 232 241 246
305 307 318 338 380 345 333 318 317 301 294 301 293 303 301 311 310 316 325 320 254 236 241 230 232 226 220 227 220 230 229 251 250 245 235 232 235 261 233 218 220 222 244 235
313 301 312 419 386 351 327 309 304 304 300 303 294 292 283 286 286 294 304 315 322 253 229 234 229 229 231 193 217 240 236 256 220 205 235 242 223 233 209 222 208 206 208 212
310 303 303 409 358 340 319 314 289 307 301 288 283 274 271 274 275 198 289 297 307 312 249 236 221 187 233 217 243 248 266 229 225 196 237 222 229 208 209 211 259 257 231 238
297 315 296 387 368 339 313 308 300 299 287 279 272 268 264 264 263 263 263 270 280 287 304 257 250 222 245 247 257 271 223 235 237 243 207 244 234 235 241 251 251 261 254 252
310 309 290 285 372 336 317 313 299 293 280 274 265 263 254 254 251 248 266 275 278 300 262 271 273 281 242 253 243 231 238 233 230 240 212 235 251 234 244 245 245 249 257 238
302 307 292 276 370 347 321 314 300 292 275 264 262 254 249 241 238 237 240 246 229 281 262 210 229 237 257 206 231 237 233 222 222 231 214 250 204 193 193 212 237 234 226 224
282 303 294 277 284 339 314 315 295 287 278 262 264 250 244 233 232 248 238 232 223 275 277 283 292 264 267 246 208 199 209 205 234 240 262 226 207 241 236 233 229 203 218 220
289 297 291 281 269 368 328 320 300 285 267 271 266 252 243 234 218 212 233 219 237 250 241 243 254 230 226 226 252 217 227 218 202 258 240 214 241 200 201 207 221 195 193 197
289 295 290 284 268 262 349 311 307 279 280 269 265 260 241 236 229 218 205 223 226 200 232 237 240 234 229 221 215 233 226 234 236 235 233 208 221 199 208 197 202 202 200 200
285 300 284 286 280 265 255 379 339 315 290 279 273 265 251 230 235 228 217 207 224 231 223 221 222 226 229 242 213 213 211 205 217 216 201 203 203 203 203 203 201 204 201 223
280 291 299 278 283 277 262 252 395 379 320 295 287 276 275 247 228 231 234 228 218 216 225 233 226 222 221 214 213 214 220 215 209 212 202 205 205 204 203 202 210 213 227 224

GFSNW_2pvu_pres_051.txt.gz
Presure
286 301 317 346 354 448 481 505 495 375 360 349 341 338 330 318 266 255 259 254 255 265 277 268 267 260 255 250 249 248 247 249 253 248 249 247 248 250 252 253 252 250 252 233
284 291 321 330 344 489 527 494 383 364 346 357 342 333 327 305 261 259 244 237 254 273 270 257 246 243 240 236 233 232 233 236 233 231 227 229 233 233 229 219 214 217 218 226
281 288 314 337 339 532 490 396 370 348 352 346 340 342 325 268 247 247 239 248 280 267 255 243 239 237 235 232 230 230 228 223 221 223 220 217 219 241 261 256 254 243 239 233
284 285 305 308 340 508 481 381 358 350 356 343 343 334 270 258 239 239 240 260 265 254 247 239 235 233 232 234 236 231 223 214 255 261 257 257 256 247 240 231 223 216 228 258
267 296 296 304 317 474 397 375 374 365 349 341 333 273 255 255 242 239 230 269 255 241 235 237 237 236 231 226 218 278 274 265 254 248 251 240 227 221 214 209 245 240 236 245
280 277 293 311 304 405 398 376 361 367 361 324 313 272 208 242 240 233 231 264 251 244 238 239 235 233 221 246 280 278 258 259 241 229 219 218 207 216 226 242 237 219 244 230
278 270 290 316 307 313 406 376 358 346 342 333 318 265 259 235 237 232 230 262 248 233 229 229 227 219 259 290 285 264 226 215 212 212 214 215 245 246 242 229 235 229 236 250
308 278 301 302 307 317 375 386 361 340 339 334 316 268 242 240 236 234 238 260 250 242 228 224 219 215 230 216 214 210 211 215 215 210 222 250 234 230 236 233 226 210 230 248
306 281 294 293 309 312 290 365 351 317 317 334 306 269 241 240 239 223 232 264 252 245 239 226 218 219 215 210 209 210 210 218 214 206 221 249 186 171 235 220 222 223 232 221
312 298 286 323 307 312 292 360 344 355 345 320 334 280 261 254 242 239 228 254 253 247 240 228 220 216 215 213 211 212 211 217 211 220 243 235 248 240 217 202 233 218 242 217
323 284 288 298 303 311 302 374 335 337 339 283 337 317 267 257 235 241 231 222 244 248 241 230 223 217 216 218 211 216 215 225 201 218 253 231 250 229 234 229 218 218 227 223
299 291 288 309 294 319 299 369 347 326 324 311 310 317 260 257 260 234 244 233 246 250 244 235 228 222 216 215 214 210 226 208 221 215 196 231 237 226 221 241 238 219 222 225
309 291 295 296 293 319 295 362 360 322 319 313 307 287 291 258 265 263 251 240 229 248 234 238 218 227 227 228 216 221 221 221 213 224 251 229 215 234 227 235 229 224 234 231
300 284 310 303 296 317 291 354 341 349 331 320 301 307 309 291 248 265 248 248 232 237 240 231 235 233 214 225 227 224 219 216 220 215 257 249 186 231 226 227 217 244 225 230
301 305 301 306 299 310 284 349 337 337 332 334 305 330 317 318 311 249 264 245 245 232 241 244 227 231 224 226 224 214 222 221 219 242 247 203 237 229 250 221 228 235 231 236
294 315 306 298 320 300 366 336 321 319 321 326 329 318 320 315 322 317 249 260 225 241 232 234 225 238 229 230 224 214 213 222 227 251 255 253 240 234 229 211 227 233 232 241
312 304 311 310 313 390 358 337 324 320 312 321 331 319 317 328 316 321 325 259 249 243 226 232 244 222 233 228 218 221 218 230 170 255 181 252 220 239 237 236 228 228 235 239
299 311 307 331 342 386 352 338 328 317 309 308 312 304 304 303 301 312 316 335 257 243 242 230 231 237 221 227 229 220 224 225 234 251 241 240 232 231 246 231 221 219 208 211
301 312 312 316 325 368 347 338 318 310 299 300 304 305 292 290 292 297 307 318 324 261 235 240 235 228 234 233 219 210 225 223 204 251 253 238 189 225 235 235 212 206 205 209
298 304 324 307 288 363 354 335 313 306 299 309 295 284 282 284 284 288 289 258 307 323 261 241 238 239 228 227 225 210 212 231 196 269 247 218 245 258 232 214 207 255 246 267
295 296 304 310 286 362 352 326 319 297 312 302 278 276 275 274 272 273 281 279 283 294 303 275 232 226 221 223 222 221 231 237 269 233 226 200 235 228 196 237 250 250 246 243
277 277 287 302 290 270 353 318 320 310 299 289 277 271 268 263 263 264 270 270 273 282 291 292 283 240 231 229 230 229 235 253 272 211 236 221 221 259 243 210 188 233 243 244
282 291 282 170 299 271 357 305 310 301 303 283 275 268 265 259 259 257 267 269 275 277 295 301 304 283 219 244 233 240 251 206 234 234 243 222 181 255 249 237 228 194 242 237
277 288 276 298 291 280 262 313 300 315 304 277 270 264 255 255 255 248 273 239 239 267 282 288 292 290 271 282 264 231 224 237 246 239 225 188 206 207 261 242 237 206 201 211
284 287 281 298 291 281 271 264 319 311 301 292 271 260 258 251 246 243 236 224 242 234 225 277 281 241 258 257 239 250 246 231 234 217 200 204 214 257 252 210 222 234 212 204
285 282 277 205 287 282 279 266 325 348 335 304 276 257 261 250 247 242 235 226 241 234 234 262 243 256 279 268 245 235 249 233 219 224 229 237 236 243 241 235 208 205 204 204
281 277 284 285 293 284 279 273 256 265 338 339 314 287 257 255 247 245 240 235 225 222 214 220 226 237 243 240 235 233 224 228 218 214 224 209 212 216 216 208 208 210 209 207

GFSNW_2pvu_pres_054.txt.gz
Presure
296 302 313 322 331 329 416 389 388 373 352 348 358 343 385 287 269 266 259 263 272 253 254 253 281 282 274 275 274 279 284 287 290 254 249 251 252 262 255 253 253 260 259 255
298 296 319 322 322 322 391 389 390 364 341 328 342 373 299 270 263 259 268 260 249 250 251 284 280 269 265 264 267 268 266 267 271 276 281 286 287 289 283 281 274 274 264 260
245 299 333 327 318 325 396 405 369 363 368 331 356 304 273 262 259 252 245 241 243 264 276 270 267 256 253 255 255 254 253 250 250 251 252 255 254 252 248 248 252 247 246 241
298 301 308 336 298 319 416 390 394 364 357 346 306 285 274 265 262 251 248 257 272 270 258 251 244 243 241 241 241 240 240 236 238 238 237 235 230 230 233 232 223 224 235 242
294 307 318 319 310 314 393 383 373 363 369 353 255 279 258 244 252 252 253 274 264 257 244 236 237 236 236 237 232 229 227 227 226 225 227 217 216 218 263 255 247 246 241 234
302 320 318 335 310 309 319 383 381 309 356 372 278 259 246 241 249 254 266 258 256 248 236 235 236 238 233 231 232 230 219 218 232 236 262 261 250 246 239 232 225 217 221 250
322 327 317 322 306 309 324 377 380 369 364 285 265 253 245 242 239 259 264 248 243 239 239 237 237 232 231 220 219 268 273 266 258 255 253 236 228 219 221 209 231 239 239 232
316 283 306 322 299 312 296 330 375 366 373 282 271 256 244 241 243 245 259 246 243 237 236 239 238 233 221 269 278 279 273 252 253 224 212 214 215 216 249 244 236 218 232 217
304 328 297 326 305 312 295 310 379 366 355 281 276 264 238 244 240 243 260 253 248 247 242 237 227 223 222 287 283 270 219 215 211 213 217 210 218 248 242 224 228 240 242 229
259 329 295 317 297 317 300 318 311 366 355 297 280 265 262 230 243 242 248 257 249 240 235 232 253 293 265 221 219 214 213 210 210 207 210 223 252 229 229 223 217 220 232 222
197 321 303 308 299 309 305 312 292 363 364 344 278 273 262 258 238 247 241 266 256 247 234 229 225 221 219 218 214 212 209 209 215 215 213 257 244 240 234 229 232 233 225 217
327 310 299 314 295 304 305 300 297 332 374 354 328 285 276 267 260 240 245 225 264 254 245 233 227 222 222 216 215 213 214 209 214 213 211 248 238 237 219 232 233 225 224 227
330 304 295 312 304 296 307 302 308 337 342 354 347 336 276 277 270 264 244 242 224 258 248 238 228 226 219 219 216 216 212 214 228 224 229 221 251 234 225 232 233 223 232 232
319 183 296 314 306 298 308 312 299 343 352 321 318 316 329 275 278 268 261 246 247 260 251 243 235 228 227 220 218 213 219 220 220 218 225 237 219 233 202 233 232 227 230 235
336 317 302 318 302 306 303 313 293 366 353 333 318 313 311 317 267 282 275 254 232 243 257 243 240 236 226 225 230 226 218 219 220 229 224 257 255 241 230 239 231 225 226 244
324 311 318 311 309 316 327 304 366 349 343 333 328 330 322 312 312 324 257 271 255 233 242 248 234 232 236 234 211 219 233 225 225 229 232 259 255 226 240 228 252 216 230 234
325 308 311 310 297 330 333 373 350 335 335 326 327 334 332 308 333 318 331 269 247 254 237 229 244 232 224 228 236 226 219 214 225 237 235 267 258 237 240 232 235 226 231 238
316 317 301 310 325 316 395 360 341 327 322 315 315 315 323 315 316 326 318 330 234 241 247 239 230 234 238 244 225 234 228 222 225 223 215 264 264 236 229 239 226 230 222 225
309 300 302 305 308 306 377 356 338 319 315 318 316 313 312 316 310 309 310 318 326 271 243 236 233 231 235 238 222 228 210 223 223 214 216 249 246 243 231 247 243 230 208 210
316 300 305 303 304 295 370 356 334 318 310 302 298 292 296 296 298 300 302 307 321 332 266 243 235 219 226 229 227 217 230 221 221 217 228 242 181 231 244 230 241 233 211 208
299 297 301 320 308 297 301 345 339 330 307 302 299 295 291 288 289 288 289 300 298 299 315 263 246 235 227 217 233 225 228 220 222 225 233 248 261 240 189 238 234 243 214 253
292 277 302 299 299 299 317 358 346 321 276 309 306 289 288 283 283 280 280 285 287 287 299 308 246 237 238 237 213 225 230 214 234 219 233 261 249 214 247 225 247 235 212 243
292 288 297 291 292 301 282 346 309 303 309 313 291 282 280 275 272 271 276 280 280 278 284 297 298 255 234 229 238 224 230 191 219 217 238 264 255 224 203 229 229 185 212 239
292 288 288 285 297 296 283 281 317 301 299 311 287 279 277 274 270 264 271 275 275 278 276 283 289 297 269 243 234 224 217 238 235 227 246 240 251 221 201 231 182 225 193 230
291 289 282 283 201 291 289 275 310 323 308 307 294 279 277 269 262 262 263 267 268 276 271 278 285 292 302 283 252 230 227 223 231 242 246 240 244 226 232 227 236 210 258 252
295 289 282 280 162 291 285 280 268 333 315 313 302 264 270 265 261 256 255 256 272 257 258 276 282 292 288 296 274 270 203 248 253 232 219 246 234 227 223 216 226 205 202 219
300 287 283 282 283 287 271 287 278 261 268 341 316 299 270 256 259 253 253 246 244 231 235 252 232 287 286 284 241 243 211 272 271 236 242 244 231 233 222 204 204 227 222 225

GFSNW_2pvu_pres_057.txt.gz
Presure
267 290 254 309 307 323 332 399 381 368 357 390 350 320 298 278 277 277 280 268 267 272 269 272 267 261 254 260 253 251 278 267 266 259 257 262 264 250 235 237 239 241 239 244
308 292 310 310 309 322 332 384 357 356 373 385 289 288 271 282 278 264 283 271 269 209 273 263 258 254 252 293 292 291 291 289 264 250 247 255 257 261 247 238 244 237 237 243
327 311 303 307 295 326 324 379 372 345 366 303 288 259 279 254 264 273 276 265 254 254 251 248 250 280 275 275 275 278 282 284 278 275 273 260 252 251 259 255 243 249 246 257
293 317 306 313 284 322 321 400 373 355 310 290 259 280 265 269 273 258 251 248 246 248 267 274 271 264 264 265 264 263 265 267 276 280 278 270 263 257 250 251 248 253 263 282
171 320 301 340 283 315 327 419 381 362 305 285 258 264 273 264 252 249 247 251 263 272 269 264 260 260 261 260 257 251 250 251 255 259 264 266 268 264 270 272 263 256 244 238
307 233 318 325 297 318 323 396 400 369 292 287 269 262 253 250 254 257 259 267 270 260 251 251 250 251 246 244 242 242 242 244 244 246 245 241 239 240 237 230 228 226 224 241
313 306 309 302 316 318 318 316 388 385 297 295 272 260 258 242 247 262 269 264 257 249 248 252 246 242 239 234 231 230 228 227 229 226 225 225 222 217 218 239 254 246 237 227
321 315 326 297 318 323 314 308 393 378 326 293 266 265 255 248 245 266 263 261 249 244 238 239 238 237 237 234 233 235 232 227 222 221 261 263 259 252 247 235 225 219 216 218
319 337 323 299 320 323 308 306 306 384 335 298 278 261 261 254 250 258 251 259 253 245 242 244 240 237 233 228 224 223 234 272 268 264 258 246 229 220 216 215 241 242 239 233
232 321 306 320 319 304 309 303 312 290 381 297 283 279 263 256 254 256 257 255 255 248 244 242 239 236 225 222 263 282 278 266 262 242 213 217 211 216 242 242 242 224 231 222
328 336 309 318 323 305 316 304 303 316 351 369 289 278 277 266 249 249 225 255 238 249 243 245 236 228 254 290 294 287 238 216 213 214 212 218 216 238 242 238 229 234 225 221
329 337 310 313 311 309 319 309 297 315 298 372 361 286 278 266 267 252 246 246 261 256 249 240 230 280 303 309 221 221 216 214 210 215 219 218 207 243 233 236 232 227 232 237
218 316 319 302 324 307 317 309 302 307 317 285 370 351 268 281 267 259 253 249 248 251 243 239 229 271 221 216 218 216 211 210 211 218 216 208 252 248 236 233 227 218 225 230
277 334 323 307 324 307 310 304 304 305 317 291 363 369 337 281 283 266 268 251 255 268 255 239 230 226 227 220 218 214 213 209 213 216 217 216 231 208 238 233 232 224 232 233
349 342 322 308 331 315 258 303 304 317 312 291 354 364 351 331 284 276 262 268 246 234 265 253 237 230 221 224 216 214 212 210 212 222 219 215 226 238 247 240 237 236 236 238
330 320 316 307 332 317 311 303 308 305 293 370 340 332 335 333 329 289 282 256 264 240 246 261 246 239 226 219 222 213 216 212 223 216 212 218 239 264 251 248 217 236 242 233
320 310 325 311 313 308 312 329 320 399 367 353 342 326 321 316 318 329 317 276 256 260 249 242 236 244 233 229 225 217 221 219 222 225 217 215 259 262 257 254 241 228 247 223
322 326 313 305 322 308 310 401 414 372 358 351 340 332 324 327 326 330 324 318 256 260 257 245 230 245 240 236 237 217 213 213 226 221 217 225 239 260 250 246 239 243 239 234
313 321 308 305 309 308 305 401 372 353 344 339 328 323 319 324 333 337 339 341 322 313 257 256 241 215 242 251 235 224 227 223 226 229 224 220 212 254 255 250 241 232 235 231
319 311 304 322 300 311 315 301 351 334 324 322 314 319 317 320 327 319 314 316 313 323 333 253 248 225 223 238 243 223 226 224 237 230 219 216 225 226 251 239 225 237 246 230
300 304 299 318 295 304 304 308 351 321 323 318 312 308 303 310 310 301 298 306 306 308 319 323 243 231 224 239 229 232 233 232 223 215 225 220 224 237 237 240 230 241 202 232
306 304 306 317 295 295 306 304 354 335 325 316 307 293 293 295 287 298 293 294 298 303 304 314 300 242 233 237 230 228 237 234 218 227 215 227 217 227 251 260 220 182 207 246
300 162 307 293 297 292 300 303 302 317 336 298 301 295 294 295 292 286 286 282 286 293 298 302 308 259 245 235 224 232 220 232 213 222 217 223 221 220 242 266 247 247 227 240
308 304 302 316 293 290 294 291 307 316 321 295 301 307 297 291 285 280 281 279 281 289 290 291 296 302 283 245 238 231 226 227 230 226 222 230 220 223 234 264 229 226 218 234
307 297 296 312 284 287 280 298 285 272 324 298 304 308 287 286 280 278 273 273 278 284 281 285 289 294 295 273 245 238 237 227 228 219 232 198 199 220 233 248 263 219 222 200
295 290 298 309 286 284 291 290 281 276 268 341 301 311 278 278 272 271 270 265 266 278 280 277 281 285 286 297 289 246 236 236 233 230 225 216 237 219 232 243 236 237 227 223
296 307 302 291 282 285 282 287 172 281 271 342 327 318 304 277 268 267 263 261 261 260 259 277 270 272 281 279 294 288 279 249 231 236 236 231 225 229 227 227 235 249 233 220

GFSNW_2pvu_pres_060.txt.gz
Presure
127 210 292 286 337 301 334 383 378 350 326 362 337 339 370 322 303 285 268 268 261 276 274 279 276 272 254 281 262 257 274 293 272 253 249 251 257 261 254 241 237 242 233 244
164 131 295 338 312 330 328 389 386 328 305 295 293 361 317 317 291 278 265 264 274 276 286 280 263 271 263 262 261 267 298 295 286 274 251 248 240 244 248 245 244 246 236 246
164 206 297 324 331 326 331 392 359 320 293 305 293 289 275 287 275 281 277 249 274 274 270 266 262 263 259 261 263 256 264 284 280 274 275 263 246 245 240 241 242 240 258 251
177 112 297 330 245 316 330 332 363 313 298 288 289 265 273 287 280 269 269 271 272 268 267 262 259 256 256 270 284 252 273 287 278 275 270 263 263 263 260 262 263 264 252 249
133 191 297 332 220 302 330 319 388 320 308 291 276 270 276 279 271 265 257 258 251 253 251 252 264 283 282 278 279 278 278 279 281 283 278 256 250 251 257 255 249 257 257 264
168 235 299 328 302 324 324 315 397 328 285 276 274 275 269 261 255 259 252 253 258 272 278 274 268 266 264 265 264 264 269 272 272 272 268 268 270 269 268 262 263 269 263 262
214 209 320 337 319 308 306 317 309 385 309 278 291 280 270 265 257 237 253 268 272 266 268 263 262 258 257 257 255 257 257 259 263 268 271 273 273 273 273 273 272 264 254 246
162 308 311 342 330 311 293 322 310 298 372 303 275 261 276 266 265 260 273 276 267 263 258 255 258 252 249 249 249 250 250 250 248 246 248 246 246 243 234 231 233 228 223 246
161 280 321 333 318 316 333 313 313 300 399 352 282 281 254 259 260 245 279 270 263 259 259 256 247 242 239 235 231 229 227 227 227 227 228 227 227 221 221 224 258 254 240 229
106 319 316 336 312 316 329 311 310 303 297 370 317 280 279 253 260 250 280 265 258 246 245 240 242 239 237 232 233 231 231 226 220 225 238 266 263 261 254 240 226 216 219 236
164 309 316 304 332 317 306 295 305 311 297 290 383 304 282 271 252 257 253 249 270 252 246 243 240 242 235 232 224 223 230 262 273 272 271 257 237 217 216 212 232 244 245 235
300 298 320 309 323 320 336 320 308 307 299 307 286 385 309 279 266 257 242 259 262 268 258 249 244 238 237 225 218 274 272 276 273 267 217 214 215 210 217 247 243 245 238 237
188 319 316 331 345 315 333 313 312 305 302 296 309 283 374 296 279 257 265 259 244 262 254 247 246 240 230 228 289 294 286 241 217 217 214 212 212 218 226 245 233 241 236 226
321 321 317 313 341 336 321 304 322 312 302 296 294 320 280 375 311 286 259 256 249 253 243 256 249 239 231 294 309 217 218 215 214 212 223 215 220 215 247 243 235 238 225 223
321 326 326 322 348 311 313 305 327 307 304 296 301 314 298 277 359 333 288 263 249 239 254 251 248 239 238 290 218 215 211 211 213 214 212 214 218 215 218 243 239 174 234 238
322 333 323 328 313 315 317 281 332 309 296 307 304 294 289 343 348 340 331 283 256 252 250 253 229 236 225 225 222 216 215 213 211 212 212 220 218 213 218 215 237 238 241 231
331 331 325 326 229 320 322 322 326 306 302 314 300 360 346 337 347 335 329 323 283 261 254 242 259 239 234 227 222 219 216 211 212 213 210 217 219 211 213 247 247 247 245 233
332 328 330 320 249 312 313 315 317 318 317 424 383 344 334 331 327 334 330 328 334 268 253 257 232 235 239 234 233 219 219 215 212 210 216 218 221 218 215 263 256 258 249 245
326 322 324 318 319 315 308 335 317 324 397 379 358 342 330 323 316 315 316 321 334 333 289 261 248 227 248 243 240 222 220 217 215 218 219 216 227 212 218 266 257 251 245 247
321 321 326 316 307 305 311 309 320 361 354 347 339 343 332 330 325 333 338 343 338 320 324 264 269 229 228 258 251 234 223 222 214 215 212 219 221 209 226 230 268 250 247 241
325 314 312 311 308 306 304 302 308 303 352 345 332 323 320 320 318 323 318 319 322 325 323 324 339 254 231 234 261 250 230 226 227 226 223 220 231 213 220 222 237 248 239 244
313 312 309 306 311 303 305 288 305 346 334 330 318 314 314 310 311 313 310 309 310 307 312 319 319 329 258 223 237 252 245 232 231 226 214 219 230 221 220 215 230 236 243 217
309 309 308 305 298 297 302 290 302 344 332 290 316 315 308 300 297 301 298 299 299 297 299 307 308 313 321 265 244 234 245 232 233 225 231 223 227 210 219 225 219 230 256 258
310 305 300 292 296 303 298 285 300 293 330 325 322 275 300 289 295 290 293 292 290 289 293 296 305 306 308 317 253 242 234 222 231 234 225 230 225 224 221 215 216 221 235 250
252 302 294 295 298 305 310 279 293 289 281 337 326 248 304 293 296 290 283 284 280 282 286 283 290 298 300 304 314 248 241 236 238 234 225 233 225 213 220 219 230 211 225 239
299 297 295 294 303 294 301 276 291 287 280 285 346 277 296 310 292 286 283 278 281 281 282 282 277 288 291 292 298 289 247 245 233 233 225 226 228 229 223 226 221 204 208 227
295 295 292 294 291 301 292 273 280 161 282 274 354 333 306 316 284 281 279 281 275 271 272 274 275 275 282 283 284 295 292 247 239 236 236 234 222 224 228 223 219 213 230 216

GFSNW_2pvu_pres_066.txt.gz
Presure
235 255 267 134 174 310 319 300 362 340 310 311 295 299 297 295 293 288 278 282 285 283 272 300 296 285 284 280 281 288 269 274 288 288 286 282 262 268 273 263 253 256 261 260
239 252 288 150 180 330 318 292 339 346 319 293 311 292 286 284 292 296 295 290 301 304 303 296 290 286 285 278 274 272 282 279 271 269 271 269 274 272 270 260 261 253 263 247
202 105 213 272 347 332 324 360 343 366 323 302 293 281 294 287 283 295 295 289 295 291 286 282 292 287 280 273 266 276 293 290 278 290 272 260 263 263 264 268 272 241 254 255
241 226 148 236 149 335 327 319 307 323 339 312 296 282 300 275 273 290 294 285 287 290 281 274 280 276 283 282 269 265 273 284 286 287 267 257 272 254 262 263 257 256 263 242
236 240 212 252 196 335 328 327 316 339 316 325 300 281 286 262 275 280 291 293 290 288 290 274 268 264 276 281 284 261 258 257 264 283 281 273 264 259 253 251 252 259 263 264
234 203 124 141 307 244 330 314 348 338 326 320 319 293 271 288 283 262 244 275 283 278 271 279 270 265 264 263 263 266 261 259 303 260 279 270 265 266 260 258 254 249 251 254
213 143 158 111 350 336 322 324 332 314 327 325 338 315 289 272 283 263 244 250 263 267 262 257 260 256 252 255 254 260 264 254 285 285 275 271 266 252 250 247 245 242 244 248
139 190 213 361 348 241 307 351 321 314 333 322 314 333 312 283 271 284 254 270 228 282 279 277 278 276 278 278 278 281 285 281 287 283 282 271 267 264 256 249 248 247 245 242
196 218 176 349 347 334 327 324 313 316 311 327 318 303 326 303 277 269 253 246 273 277 279 279 271 267 267 271 272 275 278 284 280 282 283 278 276 271 269 271 272 267 267 265
236 166 357 369 345 333 324 323 329 317 319 332 317 309 354 323 297 275 267 255 249 289 273 270 261 259 263 264 260 257 259 262 269 275 275 275 274 274 272 256 256 254 254 256
153 153 311 370 351 334 329 319 332 316 312 336 322 312 301 315 315 295 275 267 250 245 282 266 254 255 253 251 246 244 242 240 239 247 253 258 268 270 270 270 269 265 261 254
149 150 199 119 353 337 327 217 331 316 316 313 331 307 306 304 305 320 296 277 266 246 250 265 257 247 244 238 234 236 232 232 232 234 231 230 230 233 235 231 231 230 220 214
165 239 161 356 333 335 141 333 330 318 316 302 336 317 301 307 291 301 318 300 277 266 252 249 261 246 243 236 234 235 234 237 235 236 231 227 221 221 222 228 254 256 237 222
276 124 149 352 342 333 270 332 334 321 317 310 333 299 303 308 295 293 301 292 308 282 262 244 254 256 235 237 238 236 235 226 222 228 250 264 271 265 261 242 219 217 231 245
356 197 150 353 339 325 173 334 328 322 320 315 311 299 291 304 302 291 279 304 286 332 284 260 247 256 254 238 241 236 233 225 219 273 275 273 268 243 219 213 220 248 249 247
365 396 182 335 336 324 144 343 327 324 318 314 323 303 301 295 318 288 279 289 302 282 355 291 255 247 258 254 243 235 240 216 287 286 281 280 221 221 218 221 222 246 244 236
400 388 362 332 333 323 105 335 327 327 321 319 308 304 305 294 309 303 284 279 323 308 269 319 308 253 228 257 240 241 236 246 294 305 256 214 222 223 224 225 223 218 244 242
342 319 355 221 328 319 311 330 326 325 316 317 311 308 302 317 299 293 297 293 298 291 277 276 287 342 245 243 260 249 233 267 291 223 215 214 214 215 215 216 225 220 217 217
315 303 345 335 324 315 327 325 322 320 321 309 318 312 326 318 304 303 300 296 292 293 289 309 349 349 253 243 263 258 237 263 245 216 213 212 212 214 213 211 222 216 222 221
148 349 337 324 320 323 323 318 315 315 313 309 322 309 310 332 386 377 367 361 360 355 343 334 330 329 334 254 248 265 237 257 226 220 215 213 213 213 215 213 217 223 220 215
341 332 328 320 312 313 314 311 312 313 314 306 315 370 354 341 319 336 335 331 330 333 338 348 346 326 337 258 243 264 237 246 241 223 220 217 214 213 212 213 214 218 213 228
337 328 321 309 306 315 308 305 305 307 306 309 302 304 331 335 319 321 330 324 318 317 324 323 318 328 337 272 258 230 251 228 246 226 224 219 221 215 214 215 214 216 209 219
334 318 312 307 302 304 306 302 305 321 301 303 297 332 328 318 327 332 325 321 314 314 320 323 327 324 323 325 261 265 248 245 229 246 228 225 217 219 218 213 215 215 216 212
322 312 308 310 306 306 303 302 300 297 300 303 293 295 349 335 328 313 313 311 308 306 307 308 308 306 307 312 314 323 267 247 247 240 237 228 229 225 219 222 218 218 217 222
315 308 304 309 304 302 301 301 293 296 293 303 292 301 329 319 314 309 306 302 298 295 294 290 299 295 292 294 305 310 318 316 261 240 258 240 234 222 227 225 218 220 224 223
300 310 311 304 306 301 302 297 289 285 295 296 287 288 281 293 319 301 299 294 289 285 291 284 292 290 287 288 295 302 303 307 325 310 253 241 260 244 234 221 226 227 224 221
305 308 306 306 304 301 297 290 287 287 297 307 287 286 281 284 313 304 295 294 292 288 287 289 290 283 282 283 284 287 294 298 305 316 318 267 242 235 201 241 236 228 230 226

GFSNW_2pvu_pres_069.txt.gz
Presure
227 193 233 148 253 144 168 347 252 344 134 314 302 293 278 295 303 295 277 283 281 287 282 281 262 292 282 281 274 270 275 284 279 281 275 274 289 286 283 294 312 283 299 299
211 241 141 213 257 256 169 159 344 352 343 324 303 294 277 269 305 299 313 299 286 281 280 291 302 295 281 276 278 277 273 286 283 279 280 274 272 272 271 265 275 284 290 292
233 241 144 132 162 229 257 137 344 305 358 335 314 295 296 283 264 292 300 303 304 302 302 299 295 289 283 277 282 283 284 287 281 279 268 266 268 265 267 271 273 266 266 263
226 239 189 142 194 135 174 292 330 336 338 336 322 304 294 290 268 293 298 298 300 293 292 292 288 284 281 272 276 279 275 273 275 273 282 277 277 276 273 267 266 256 256 257
223 120 160 259 239 169 282 349 336 336 344 335 319 315 297 278 273 258 261 300 296 292 287 285 284 278 279 271 263 263 267 274 283 281 274 268 263 268 266 261 265 262 265 279
139 237 183 125 147 186 268 264 327 331 328 320 336 320 307 285 285 267 256 256 285 291 282 281 277 279 282 279 272 263 263 265 264 271 277 279 275 257 261 258 264 266 265 262
216 232 237 160 222 207 247 235 335 330 332 346 327 316 322 288 273 274 256 255 255 254 265 272 270 265 266 266 272 282 273 259 257 259 269 281 279 262 252 266 247 258 260 256
142 206 137 251 143 139 272 217 332 310 337 322 326 319 345 309 291 278 272 257 251 254 270 264 260 260 262 247 255 256 263 263 261 256 289 267 278 277 269 264 262 260 259 253
126 147 157 165 212 187 129 340 329 332 321 321 329 333 312 342 302 288 272 257 245 267 267 273 274 273 276 279 281 283 287 290 257 254 287 271 270 271 263 263 254 250 246 241
174 186 173 204 166 168 280 126 334 256 326 331 318 332 324 306 338 300 284 268 260 254 273 277 277 272 268 268 274 273 277 280 286 288 268 278 267 264 262 258 247 246 244 242
225 197 182 218 210 163 194 269 339 258 327 328 271 314 336 314 302 331 297 279 272 262 248 279 269 260 259 262 262 261 260 267 277 278 278 278 276 272 265 261 262 264 264 261
188 147 142 134 238 182 185 345 344 312 320 323 321 316 324 325 305 294 323 295 279 267 256 267 265 248 257 254 251 253 247 251 249 260 269 274 272 271 272 271 270 264 254 254
179 143 153 191 133 170 334 103 337 322 315 330 264 313 305 327 319 304 351 329 298 280 269 250 266 254 253 251 245 241 240 239 243 245 248 253 263 269 270 270 270 270 269 267
207 228 207 125 243 391 279 339 340 99 235 327 315 309 322 320 316 306 302 290 328 301 281 267 254 266 248 242 245 234 235 230 227 232 233 234 233 234 239 243 242 242 234 229
216 134 139 128 168 324 225 354 336 214 185 325 315 312 305 325 314 297 312 295 285 337 308 283 263 261 252 240 246 234 233 233 235 235 234 233 223 221 218 223 223 227 251 255
200 134 258 245 142 139 364 348 218 322 314 324 315 311 303 333 299 296 293 311 293 286 311 336 290 260 269 242 239 237 236 235 236 226 222 229 273 244 276 263 261 258 221 218
134 225 284 229 200 365 366 349 337 271 319 315 309 314 312 313 305 297 303 298 306 285 283 298 331 319 258 262 251 243 237 242 236 230 223 270 270 274 270 268 227 219 218 246
181 206 141 281 395 165 322 344 328 325 319 322 322 322 314 310 303 297 299 291 313 312 284 286 305 283 333 254 252 274 243 238 236 241 222 281 280 279 273 219 215 219 221 232
178 163 188 406 375 357 322 326 331 319 279 316 321 311 311 310 302 299 298 302 306 313 290 284 293 319 267 301 278 258 259 248 242 244 235 286 299 290 218 220 218 223 224 221
248 269 131 352 360 340 327 324 104 321 315 315 313 314 309 310 315 303 328 319 308 297 296 294 285 292 288 270 284 369 255 249 249 242 258 283 291 219 214 219 219 222 215 224
127 171 342 365 204 335 320 210 313 317 314 314 306 310 307 312 323 304 296 293 293 292 298 304 301 290 296 290 279 282 335 256 245 247 268 282 225 219 214 214 217 215 211 221
277 275 364 354 335 325 315 312 314 316 312 305 313 305 349 349 342 338 336 341 336 336 338 342 340 347 353 333 336 342 349 255 244 252 267 279 224 224 217 214 214 214 219 216
376 345 344 329 317 318 308 306 312 308 304 301 307 300 343 329 318 324 329 320 324 321 327 325 325 330 331 336 342 346 351 304 237 255 253 271 227 225 220 219 215 215 214 214
355 336 352 324 322 309 306 306 305 301 300 297 304 295 337 326 319 312 311 323 319 316 310 312 313 317 318 317 317 320 329 306 245 254 247 229 244 224 225 225 219 223 216 214
352 345 328 327 318 304 305 305 305 301 295 294 299 298 288 322 329 322 321 312 309 305 300 302 302 303 299 302 302 301 313 327 254 226 239 244 256 229 236 225 224 226 218 219
352 334 318 317 310 305 305 301 298 298 293 292 293 294 285 346 339 316 305 306 308 300 300 293 294 297 291 293 293 295 300 308 301 259 254 246 243 248 238 233 236 226 226 224
340 313 315 308 305 303 303 301 300 297 290 286 289 299 284 280 319 318 308 303 312 295 293 291 290 284 288 286 292 290 294 299 303 311 318 257 248 246 237 243 241 218 207 207

GFSNW_2pvu_pres_072.txt.gz
Presure
147 109 137 199 167 245 194 173 167 242 218 337 333 314 306 291 308 307 296 284 352 311 299 290 297 278 287 284 280 267 268 280 257 290 295 298 291 285 280 285 284 296 314 320
150 146 96 131 174 163 164 169 163 278 183 350 334 323 299 295 280 305 309 299 287 313 295 289 291 289 277 269 286 279 271 278 277 279 286 284 291 301 292 270 302 306 300 294
168 142 207 125 168 193 159 174 197 154 355 338 333 320 308 293 279 275 306 307 306 289 281 274 270 273 278 270 273 277 276 278 281 271 267 275 271 268 276 274 280 292 307 295
123 248 141 148 208 149 123 165 154 194 207 336 330 334 313 301 292 276 285 305 306 310 306 301 309 286 282 276 273 272 274 272 271 275 278 276 277 268 265 264 269 260 271 288
178 115 243 208 194 205 145 144 160 229 354 233 330 336 327 306 295 288 273 271 294 299 298 300 301 301 290 279 282 272 286 280 280 274 260 260 264 266 268 259 258 273 253 261
197 144 136 157 136 121 254 156 143 143 122 275 341 318 321 315 298 286 283 270 264 281 261 295 293 300 288 279 276 267 270 278 284 281 272 271 266 257 259 270 280 269 261 250
133 164 148 239 199 120 126 153 179 171 129 353 333 329 335 313 309 294 269 277 271 263 273 280 270 280 281 285 270 266 267 263 270 272 283 288 278 280 271 265 261 260 259 260
201 206 239 114 126 204 168 154 246 163 156 322 340 323 314 324 307 301 289 279 272 265 257 274 272 266 267 267 268 278 279 274 271 265 263 269 288 286 271 257 256 260 260 251
246 181 226 237 228 167 157 236 141 135 213 351 339 329 322 331 342 313 302 276 274 254 262 277 274 266 262 256 247 248 255 261 276 266 262 261 264 285 284 280 274 265 263 268
152 246 147 153 234 225 232 143 167 146 159 354 341 325 319 313 323 336 309 296 280 271 257 264 278 277 281 278 276 277 280 282 267 262 259 255 289 271 282 283 272 264 259 251
246 221 193 129 123 128 141 215 140 141 177 343 255 273 320 309 323 314 326 300 293 280 269 262 273 275 277 269 268 271 271 274 279 283 285 261 278 270 270 274 270 267 267 259
134 134 216 236 153 206 163 206 186 176 142 314 227 326 318 314 305 321 307 369 296 284 280 268 264 270 267 261 261 264 263 267 269 279 278 282 278 274 264 263 264 260 257 251
227 122 126 190 241 174 170 198 138 344 350 349 137 330 317 319 307 301 315 303 320 296 285 276 260 276 252 254 255 259 254 255 258 261 273 276 277 277 276 267 260 257 257 257
142 120 175 241 137 214 167 178 198 264 237 347 340 249 316 310 315 310 325 311 299 344 292 283 272 264 271 251 252 249 249 248 249 250 252 256 267 271 273 270 273 274 272 270
200 160 242 134 119 132 185 169 212 423 380 347 341 335 318 310 310 307 312 319 297 297 347 296 282 273 262 262 254 241 246 240 240 233 240 238 246 253 263 269 268 270 269 267
190 114 240 127 123 163 157 168 188 385 359 347 339 327 315 313 308 301 300 316 295 300 290 347 303 281 272 269 255 253 241 228 235 232 231 229 229 230 232 231 235 238 253 253
217 135 174 142 146 157 146 144 212 382 357 345 336 190 316 314 309 307 300 322 293 295 307 287 323 330 286 265 265 264 254 239 237 237 232 235 236 230 229 222 222 223 228 224
190 271 193 137 204 166 308 255 134 292 130 261 328 174 233 320 310 306 307 332 302 299 292 310 288 289 318 323 268 259 264 249 236 246 236 236 227 224 227 250 243 255 256 250
154 268 172 133 241 165 129 132 133 362 346 340 328 318 317 315 315 317 309 305 303 293 307 300 308 288 273 287 312 318 262 263 249 241 238 239 240 227 221 272 272 277 262 263
165 170 134 132 140 147 123 166 350 345 333 325 317 308 327 319 312 304 300 302 298 293 290 292 294 312 282 278 300 293 311 266 252 257 248 236 243 240 224 282 276 275 270 215
138 130 123 124 317 117 128 346 337 335 324 318 316 319 317 310 309 308 303 303 310 293 299 311 335 304 306 284 277 291 306 286 291 253 261 255 244 247 230 286 300 285 228 222
186 127 127 125 269 260 346 336 330 330 312 305 312 313 312 304 306 302 298 298 310 299 298 305 308 307 305 294 293 287 285 308 267 305 256 260 258 246 237 283 295 221 222 220
117 113 132 116 251 234 348 327 322 320 308 307 307 304 306 306 330 342 353 348 348 345 330 340 347 350 344 343 345 348 350 285 289 280 290 258 257 247 240 281 292 225 218 218
239 155 177 375 192 353 338 320 316 308 303 306 306 295 303 301 339 325 323 324 322 327 326 324 326 326 331 338 335 336 343 349 350 349 269 293 257 256 245 270 288 224 224 222
168 242 208 369 354 346 328 315 312 309 303 300 302 310 299 298 333 334 322 314 311 316 318 309 309 309 312 310 307 302 306 310 314 320 326 338 274 258 248 252 279 223 219 225
326 288 365 356 338 346 320 312 307 305 298 300 299 293 296 296 311 309 322 313 312 315 304 307 305 296 304 300 303 297 295 294 298 301 306 317 274 246 254 248 274 254 233 225
350 364 351 348 341 336 321 310 303 298 301 299 296 291 292 289 290 318 313 312 321 310 309 299 299 293 298 294 289 294 288 289 292 295 300 303 259 257 243 246 243 261 246 227

GFSNW_2pvu_pres_075.txt.gz
Presure
141 141 149 122 155 124 176 213 226 248 167 240 148 335 337 322 299 298 346 321 305 298 303 309 302 299 296 288 288 287 286 289 288 286 264 280 287 297 285 280 295 292 305 325
137 143 159 153 153 135 229 246 245 178 206 164 263 133 328 323 302 288 314 320 307 311 303 288 282 274 297 295 276 274 273 282 296 287 281 282 280 276 300 307 314 314 312 302
123 152 120 194 126 203 239 138 234 223 139 243 206 198 343 328 314 293 278 305 300 303 292 281 277 294 274 265 284 278 275 265 275 277 282 277 273 291 287 282 278 291 288 291
153 151 118 117 149 190 114 121 211 240 271 226 139 152 341 350 317 304 288 278 306 307 292 296 280 292 277 286 277 281 272 273 282 269 284 274 275 279 278 276 283 293 298 301
207 122 166 143 145 135 157 242 261 160 269 204 128 272 332 338 314 317 294 278 276 303 309 302 291 283 284 287 271 281 270 265 268 269 269 266 262 265 264 268 273 272 270 286
122 105 126 213 151 145 173 213 171 150 190 133 184 138 288 245 331 312 302 290 280 287 278 301 302 301 291 280 280 262 275 284 269 266 266 262 258 267 267 261 259 257 253 265
117 156 172 130 171 183 198 111 125 193 223 121 249 205 136 162 127 331 299 297 282 277 276 282 299 296 301 296 268 270 271 272 273 281 276 282 268 260 271 258 259 257 258 253
127 176 134 185 117 219 242 120 199 196 244 170 139 211 144 111 317 319 312 293 292 284 273 269 282 278 283 287 299 273 268 261 258 264 271 277 291 288 273 254 257 250 273 259
172 191 160 235 236 145 141 244 251 138 187 247 174 185 138 245 328 154 341 298 288 281 274 265 275 271 263 264 268 265 271 274 275 264 266 270 275 284 292 288 275 272 263 259
232 127 228 141 189 211 145 192 236 158 225 144 332 189 195 238 326 309 325 333 300 288 282 266 270 275 272 264 259 250 247 250 256 264 281 262 260 262 265 288 285 274 274 265
193 163 234 111 166 133 163 239 210 159 270 229 443 419 362 345 322 316 310 312 329 292 289 279 268 270 274 275 277 274 273 273 278 271 258 267 265 260 299 270 288 287 266 267
136 211 228 225 237 164 216 199 126 160 185 164 181 181 181 344 322 184 317 315 308 325 283 277 278 269 270 277 282 274 268 271 270 274 280 286 286 255 287 275 273 280 277 272
173 102 129 137 187 155 195 182 126 132 153 256 198 187 151 146 322 307 312 308 329 302 318 289 276 264 274 269 264 267 268 267 268 270 274 279 285 278 274 275 268 272 271 268
185 233 210 127 187 171 188 205 144 119 167 272 361 198 182 337 323 308 307 305 316 320 328 302 281 268 262 271 266 261 258 261 258 259 262 266 275 280 278 269 267 265 267 265
208 146 240 155 195 243 151 239 117 145 156 155 135 136 232 337 319 309 309 305 308 324 306 342 294 278 272 262 274 262 259 253 256 250 252 252 262 268 271 274 278 275 267 261
230 228 228 238 254 248 160 146 167 151 259 160 157 131 357 335 326 314 304 314 300 324 320 299 350 297 277 266 258 273 266 255 233 253 247 248 247 252 260 265 271 272 272 276
249 137 187 257 207 149 137 135 143 141 146 133 155 362 354 331 320 310 302 303 301 304 324 308 296 338 302 277 268 264 267 238 258 232 246 244 239 234 237 238 238 252 270 272
167 184 140 196 133 161 271 133 135 126 152 125 301 352 351 334 318 308 300 318 307 300 299 328 302 302 307 320 278 275 263 272 267 256 233 246 244 239 235 235 236 235 229 224
265 181 130 230 219 168 257 135 124 139 385 133 363 336 334 327 321 306 303 307 307 303 293 319 307 286 295 283 320 308 284 268 262 258 250 244 226 245 235 237 236 228 230 230
136 180 230 170 153 236 142 123 131 181 125 368 352 333 327 323 315 304 300 303 308 306 299 338 308 286 299 298 289 284 312 312 269 263 266 252 253 224 240 242 236 225 223 264
136 140 170 162 257 147 134 117 123 240 364 352 336 327 324 313 307 312 312 311 308 302 297 300 292 286 293 297 295 296 284 273 314 317 269 267 260 249 233 233 246 237 222 225
128 135 139 141 149 223 270 114 281 284 351 334 324 317 317 317 315 309 306 303 303 302 300 294 289 288 293 287 290 289 302 299 281 283 316 299 268 263 255 249 234 238 243 224
231 155 159 163 151 158 138 114 137 179 342 325 318 311 310 313 311 310 304 303 305 300 292 294 310 326 316 314 312 318 319 330 298 285 281 298 318 298 263 261 256 248 243 228
240 186 152 116 150 269 257 116 358 347 333 318 312 307 309 310 302 344 306 349 343 344 336 335 335 325 299 298 295 355 359 329 294 293 285 291 289 317 295 275 259 257 254 238
156 132 128 222 268 242 272 227 355 341 325 317 308 304 306 301 302 338 334 326 317 313 325 327 330 325 322 324 327 332 323 326 329 331 335 339 343 307 291 293 274 257 255 249
153 135 148 259 209 236 359 357 343 341 318 310 309 299 296 292 305 302 312 320 321 316 316 318 307 310 314 308 310 303 307 299 306 305 305 309 311 313 323 282 285 269 257 248
248 267 277 242 349 356 357 347 339 336 334 301 304 296 295 289 292 305 323 298 319 331 310 313 307 297 287 309 304 295 293 298 293 296 297 296 296 301 305 313 319 278 265 257

GFSNW_2pvu_pres_081.txt.gz
Presure
144 142 147 110 141 122 131 155 148 145 154 166 159 129 219 219 316 196 193 327 316 323 315 304 317 318 322 330 322 299 294 275 279 273 272 278 291 268 270 277 280 273 269 277
132 143 131 118 147 108 144 176 127 196 135 149 216 175 249 214 310 302 339 307 326 313 307 314 304 318 310 327 324 292 274 280 267 276 275 274 271 276 272 266 275 282 269 258
127 122 128 145 133 140 141 172 122 145 138 153 217 193 190 218 262 170 177 178 240 314 302 307 291 299 301 312 323 322 286 282 272 255 267 272 271 269 275 280 271 274 273 266
131 117 147 146 125 131 127 139 177 133 142 168 211 180 249 204 171 159 302 173 321 300 292 302 304 301 291 297 306 313 316 281 279 279 271 266 264 270 280 285 267 291 265 273
135 134 99 140 135 143 135 147 164 132 164 158 222 187 136 245 238 152 149 153 258 291 296 302 296 290 278 281 284 301 300 309 317 279 279 278 281 281 283 280 274 241 261 269
137 137 146 127 124 124 140 126 131 149 131 161 221 244 264 271 232 299 359 259 254 214 299 302 293 291 287 271 293 276 290 283 288 297 304 309 308 297 284 287 261 282 281 270
113 129 130 102 115 140 158 117 146 137 158 165 196 235 199 276 220 257 160 159 165 182 305 287 279 292 289 285 276 277 282 260 280 286 281 287 270 278 279 274 272 300 279 262
107 124 101 135 138 121 143 174 125 136 175 140 131 262 253 281 254 156 139 139 157 312 308 292 284 279 292 287 281 280 274 282 283 284 267 267 265 266 267 267 270 269 279 275
104 119 146 135 197 124 135 210 164 206 117 214 236 255 139 143 199 564 135 158 132 152 309 297 278 269 292 304 294 289 282 273 280 264 264 261 272 262 259 262 261 263 267 264
151 132 139 124 133 151 126 176 221 149 225 164 209 260 173 204 378 148 409 206 135 304 306 304 286 270 267 284 298 304 300 284 263 273 270 265 270 266 268 263 273 255 266 259
130 166 134 131 207 200 161 186 146 125 166 172 231 239 240 269 169 141 385 122 138 326 319 308 294 278 269 272 281 297 289 310 280 277 273 269 274 277 274 272 278 291 284 270
163 128 115 216 213 148 136 110 203 185 220 239 255 169 155 280 144 140 386 266 149 326 311 314 301 284 273 263 273 282 280 290 290 287 278 275 275 271 272 264 265 272 279 294
133 129 145 103 210 214 117 209 196 218 254 151 186 241 237 145 150 257 142 128 351 327 314 311 309 293 284 271 263 259 278 272 271 265 264 260 260 259 263 269 279 271 263 266
170 144 119 91 117 131 101 185 176 224 188 195 133 175 136 253 224 152 140 139 346 327 311 302 316 306 291 275 271 262 260 273 271 272 271 272 273 273 276 278 262 270 266 266
154 169 133 210 138 189 228 171 151 223 134 235 255 216 241 260 249 134 135 134 209 324 312 310 309 310 307 286 274 271 266 259 263 282 283 277 272 271 272 278 283 282 262 261
155 137 226 215 124 121 151 197 111 194 204 231 148 201 277 160 265 127 130 127 338 333 316 305 305 298 306 320 285 277 268 267 258 258 271 266 269 266 268 273 279 285 282 267
136 148 214 218 235 166 146 224 202 175 146 137 185 169 265 266 121 131 128 131 133 324 313 311 305 304 322 303 326 289 277 271 265 259 259 257 253 258 258 259 263 273 278 279
201 183 142 183 139 216 97 201 198 127 127 196 200 196 162 271 278 117 124 131 279 319 310 302 302 304 296 310 300 335 292 282 270 265 257 261 249 257 242 253 256 250 256 270
131 169 226 203 194 176 193 206 240 123 220 187 167 146 166 150 282 350 353 344 332 322 319 313 303 296 296 300 303 310 330 294 283 274 266 261 262 257 256 236 254 248 246 245
162 174 216 111 131 135 126 237 227 130 146 133 190 158 252 254 264 115 351 333 328 322 314 310 300 296 299 291 310 316 303 286 304 285 276 268 265 259 260 257 237 248 242 238
214 128 127 222 121 142 178 193 149 171 215 252 173 133 135 165 277 207 340 327 319 319 316 314 302 301 304 296 291 288 309 306 285 315 293 282 274 271 267 263 258 242 241 239
205 193 111 183 223 177 253 243 239 149 127 186 229 140 200 250 263 345 334 327 321 314 308 307 305 298 299 298 295 289 286 306 317 291 285 313 293 282 279 274 268 262 259 243
118 111 138 131 120 226 243 229 237 222 197 147 180 247 222 235 249 338 331 320 315 313 309 309 308 305 301 297 295 296 287 287 303 318 285 290 293 296 303 316 313 286 274 266
149 221 209 206 231 208 236 174 182 124 140 234 253 226 256 267 354 333 326 312 311 314 310 304 299 298 294 294 293 292 289 286 289 333 315 286 286 290 304 300 297 294 295 315
187 157 220 247 225 238 256 119 114 138 138 244 240 238 249 261 351 335 321 313 305 301 348 348 320 297 294 292 290 290 289 292 288 303 304 302 288 300 288 288 301 290 299 318
153 165 247 234 244 175 118 179 223 217 213 237 259 260 268 261 348 334 320 312 301 296 314 330 325 320 322 323 322 321 324 320 336 318 340 320 319 318 320 323 324 325 291 296
248 234 216 244 236 109 247 105 247 210 245 254 253 233 261 371 350 333 323 310 304 301 294 310 321 311 306 319 328 317 315 322 314 319 310 314 315 308 310 311 307 310 314 318

GFSNW_2pvu_pres_084.txt.gz
Presure
129 149 140 145 133 142 143 161 131 112 201 196 158 157 157 164 240 265 168 148 330 335 214 317 310 337 342 344 326 321 298 285 285 287 285 284 277 292 268 282 270 258 261 262
143 125 141 135 142 143 114 145 150 126 138 142 141 151 225 240 177 272 314 146 313 345 327 314 307 299 327 345 309 299 304 288 288 283 290 291 287 287 290 288 273 268 262 257
144 138 143 126 118 128 121 144 149 107 134 132 155 173 158 218 256 265 141 165 248 164 169 312 300 307 321 319 326 307 298 283 277 268 272 268 265 272 269 273 270 273 274 261
140 145 144 122 130 116 127 133 149 146 135 186 180 210 196 224 210 188 246 410 143 155 154 291 299 297 302 321 317 314 297 286 278 278 274 277 276 276 273 269 277 276 273 267
143 162 140 103 119 130 136 135 110 136 203 144 202 236 152 227 230 216 483 152 142 135 154 217 298 295 292 303 314 319 301 292 288 288 279 277 274 270 268 268 271 278 272 282
129 160 133 133 122 143 140 120 120 172 120 163 212 146 159 167 191 239 502 451 145 148 127 156 300 287 298 286 295 301 303 293 278 272 278 287 284 278 261 270 276 269 270 263
153 164 135 121 126 119 138 121 137 150 185 145 170 212 140 220 242 305 336 170 139 360 133 180 303 296 286 289 278 283 291 294 297 298 290 276 263 274 260 268 263 263 271 259
155 140 108 120 117 136 144 104 123 188 195 175 144 163 214 212 224 288 531 393 156 119 341 143 303 283 287 292 285 291 280 281 288 282 285 292 297 296 292 295 294 284 282 267
155 134 131 144 127 134 135 130 183 199 133 137 200 234 178 186 210 297 220 422 150 124 311 324 214 291 279 288 288 280 277 279 264 269 276 273 275 280 275 272 273 268 265 272
162 115 133 122 120 126 139 118 116 151 165 138 196 137 141 172 130 191 477 192 193 361 146 142 308 288 284 280 291 288 287 286 268 283 281 272 279 272 267 269 268 267 268 272
159 146 140 144 144 127 113 190 128 188 130 149 210 190 198 250 200 261 274 347 381 234 203 139 312 293 284 279 271 291 298 296 291 280 275 270 274 273 266 273 265 265 266 265
100 135 153 136 131 132 137 107 168 144 205 144 184 153 110 168 186 255 272 260 404 184 299 140 319 300 286 278 272 268 301 297 300 294 282 266 269 270 267 271 264 266 276 275
137 141 145 130 132 120 180 98 184 168 145 146 233 223 147 149 168 230 284 279 381 130 134 216 322 311 291 279 274 272 264 278 291 295 304 291 276 285 262 276 267 265 268 270
143 141 139 130 152 195 201 159 134 130 172 200 219 153 126 245 237 267 200 281 372 127 132 125 135 322 304 287 275 267 273 266 265 271 278 280 282 278 274 272 270 267 265 279
140 146 137 148 146 112 119 192 141 126 141 191 222 145 124 131 247 141 250 271 384 195 128 273 324 313 325 307 290 280 271 268 262 259 257 265 262 260 258 259 264 276 279 259
129 153 145 136 173 151 190 119 200 162 141 215 119 235 232 133 210 243 157 247 135 326 353 341 318 308 316 315 307 293 280 269 270 262 267 268 275 282 280 276 273 273 275 286
153 141 171 172 207 186 211 214 156 148 151 121 145 156 160 232 254 143 151 258 212 160 314 348 327 323 306 295 298 313 299 283 274 271 266 264 265 280 260 266 267 268 269 279
164 187 162 192 168 180 215 182 155 175 123 176 159 244 118 247 201 239 143 262 308 350 336 331 327 311 301 298 299 316 304 312 293 275 272 267 263 263 255 247 248 257 256 255
183 161 195 203 229 220 212 161 175 122 140 133 142 194 189 243 236 230 133 155 128 254 348 339 322 316 303 289 306 314 307 303 289 308 283 272 266 262 260 259 253 245 262 250
174 222 133 225 159 169 219 208 174 213 223 223 157 241 218 266 194 242 258 132 246 332 347 337 328 324 312 294 294 295 296 305 296 327 306 284 277 268 266 265 262 257 250 244
166 210 211 206 213 207 137 177 223 191 146 209 167 244 167 136 173 258 269 149 269 349 332 325 319 313 309 304 294 294 298 289 310 297 300 304 286 278 272 268 266 264 260 258
205 196 214 207 213 217 107 162 202 235 238 229 207 235 212 127 139 281 280 265 290 342 329 321 310 301 303 300 292 290 298 298 293 297 299 288 291 299 292 284 278 272 266 264
216 218 208 214 226 149 208 232 142 226 210 232 151 124 149 156 200 262 245 230 268 339 325 315 310 306 300 296 294 287 291 299 310 294 280 301 299 286 277 285 292 292 285 283
206 203 201 222 222 209 127 137 217 205 234 229 141 117 190 132 250 255 261 294 316 334 323 313 303 303 304 302 300 302 297 293 291 292 292 285 285 305 309 290 286 287 306 318
198 198 203 176 194 162 222 240 235 167 237 232 113 163 116 129 233 223 252 352 349 332 321 312 306 305 306 303 299 297 293 293 294 291 290 287 285 297 338 328 285 280 285 288
217 196 218 213 216 114 173 202 216 246 143 160 258 241 129 248 250 260 354 360 355 332 320 312 308 298 321 340 336 320 298 295 295 291 290 289 288 288 288 288 288 289 294 295
213 200 207 213 222 170 229 108 115 244 243 103 171 239 244 226 218 244 363 358 350 341 321 314 306 297 298 323 325 324 324 324 321 331 320 325 326 331 331 327 325 328 325 318

GFSNW_2pvu_pres_087.txt.gz
Presure
131 149 132 140 143 149 170 98 148 143 152 138 205 167 148 163 226 155 265 237 155 133 146 149 269 329 340 444 371 334 310 316 300 292 290 289 296 298 280 281 270 266 263 265
130 141 138 141 152 155 135 135 122 119 128 157 146 147 229 157 172 200 138 180 293 394 151 132 151 326 335 387 348 330 322 294 290 290 292 285 287 289 280 278 276 269 264 266
154 137 134 141 152 154 144 116 140 122 154 138 149 155 222 131 199 223 158 250 389 394 143 131 139 321 322 315 342 310 306 303 288 285 271 272 278 289 270 267 262 262 256 259
138 137 136 142 155 151 135 133 141 133 121 105 184 166 124 180 190 220 197 270 358 392 149 139 283 145 322 319 301 309 300 315 302 292 266 272 271 273 269 272 279 265 258 268
136 136 142 151 156 145 127 141 138 122 159 113 176 155 219 135 213 214 176 211 151 402 139 124 313 143 188 314 318 301 299 293 294 292 280 276 293 284 282 279 276 277 274 271
136 134 138 153 156 139 108 122 116 116 120 148 161 128 194 167 202 169 227 330 451 409 333 120 216 140 292 291 319 311 300 299 298 290 279 279 271 267 266 261 257 256 259 271
137 137 140 155 203 132 141 130 107 143 156 166 143 172 238 180 205 190 180 188 355 391 274 240 307 305 142 300 313 318 307 303 295 282 283 278 263 267 269 270 265 264 259 261
141 163 162 170 170 141 134 145 100 140 146 148 190 163 190 222 154 192 203 237 313 409 185 347 279 142 278 293 300 303 300 295 291 291 294 287 284 290 291 292 290 289 275 270
149 217 153 180 144 104 146 145 102 131 125 151 138 200 167 146 118 231 169 254 274 390 370 348 324 290 298 286 298 296 286 300 288 294 295 299 299 296 292 287 287 285 285 277
218 164 182 155 122 135 123 130 136 136 164 175 147 132 147 209 131 158 251 235 293 281 354 354 335 239 243 292 287 292 286 281 271 264 277 276 282 277 284 288 284 286 290 289
207 151 188 161 156 127 126 150 134 134 137 169 168 162 242 194 145 117 138 239 143 310 384 364 173 139 136 297 289 275 290 285 276 277 266 266 278 271 274 279 273 271 269 271
145 150 183 186 147 136 97 125 112 128 198 148 222 138 235 183 122 157 231 182 141 269 315 375 154 335 312 293 290 281 271 296 289 289 283 271 267 259 270 270 262 258 261 266
151 180 135 158 146 130 154 99 113 125 143 155 142 210 221 142 163 166 186 131 239 261 253 296 359 346 334 302 292 285 275 273 278 300 297 292 285 281 264 259 263 262 259 269
163 166 162 127 133 132 142 90 154 117 127 221 129 145 182 138 164 174 202 137 257 135 269 246 302 131 337 320 299 290 286 276 273 262 289 291 305 287 276 271 263 274 269 277
162 165 137 127 136 126 141 140 130 181 153 222 196 169 130 222 155 170 212 236 226 236 123 114 257 353 343 325 318 298 287 282 276 271 265 271 279 296 288 284 282 279 272 269
173 159 113 140 133 141 165 130 132 213 221 190 235 146 241 244 123 165 166 246 245 274 132 133 119 354 340 330 315 311 296 283 280 270 266 265 265 264 265 261 259 259 258 261
163 154 166 150 145 155 147 133 156 194 216 117 220 136 229 174 213 234 190 250 251 238 212 190 356 342 339 327 310 307 305 305 285 277 272 264 259 259 261 263 269 279 277 271
151 167 160 184 135 155 130 191 196 165 180 171 176 226 176 187 183 182 235 246 229 268 249 262 375 348 331 313 304 321 306 302 308 296 280 273 268 263 258 257 265 276 263 264
177 183 225 153 153 120 193 207 148 196 221 216 173 135 232 218 116 224 231 244 198 127 237 253 366 364 343 312 321 308 305 299 300 301 296 290 277 270 268 262 259 261 254 250
187 150 128 159 203 163 219 182 220 220 216 230 219 230 152 228 223 237 211 233 261 128 237 257 323 360 331 321 310 310 310 301 301 300 305 291 302 288 276 269 264 258 260 258
154 171 172 207 187 192 199 195 184 220 152 227 227 173 221 141 210 237 245 252 233 237 250 272 366 334 321 316 311 311 301 300 289 286 297 301 294 315 298 286 278 271 262 260
131 175 184 197 158 199 150 196 210 228 226 226 224 237 235 177 137 242 234 118 115 269 247 300 369 338 322 310 305 301 301 299 295 284 288 288 305 296 319 305 289 281 279 271
176 170 193 208 190 216 191 233 214 223 219 222 217 144 142 216 241 234 225 238 115 247 250 304 390 345 322 313 308 306 301 298 290 285 285 288 289 298 299 294 293 304 293 285
181 197 196 207 211 153 219 199 220 214 219 222 234 232 219 228 113 231 237 110 214 212 235 374 369 348 323 314 307 299 296 289 290 290 286 289 291 302 290 290 297 296 294 291
187 192 206 186 211 200 212 187 214 214 226 170 228 202 225 239 232 238 236 116 243 252 269 365 361 355 337 315 309 299 296 296 293 291 290 289 287 291 292 286 281 283 286 296
193 196 207 212 196 205 217 215 218 207 224 229 229 151 220 103 104 236 255 261 260 236 244 370 358 350 336 322 319 301 325 298 298 295 292 287 287 287 287 288 289 287 283 286
188 200 113 129 205 216 118 213 184 216 221 230 147 236 232 243 242 247 267 254 259 269 378 365 362 348 336 320 311 333 327 325 319 311 303 295 291 291 288 287 288 289 289 311

GFSNW_2pvu_pres_090.txt.gz
Presure
210 135 152 122 135 143 142 146 131 168 142 110 119 102 140 136 219 251 138 204 455 389 354 146 180 341 358 412 407 344 317 296 296 300 286 298 309 324 324 281 277 284 278 255
143 180 164 132 167 140 147 153 148 145 134 155 167 109 136 152 186 188 174 263 199 396 354 277 143 329 319 248 372 335 306 291 290 293 303 294 297 297 317 285 273 266 261 254
125 138 152 154 143 141 150 152 135 139 129 136 142 134 100 198 202 140 205 223 132 195 355 117 128 333 219 246 352 321 299 296 303 294 307 305 277 284 278 274 272 272 270 270
159 146 150 154 139 140 109 151 172 144 139 136 148 163 217 187 145 144 192 176 277 326 335 316 121 153 331 272 332 328 288 299 292 293 290 276 275 287 276 275 270 262 260 266
217 148 154 148 141 144 147 166 164 163 147 104 160 122 100 137 217 178 152 193 217 381 372 343 331 330 324 232 318 322 316 294 286 300 277 275 267 281 282 270 274 268 261 257
136 211 199 136 145 149 157 160 162 118 131 140 149 139 146 141 141 153 141 174 217 281 295 355 332 324 140 316 321 326 318 292 292 285 268 266 268 275 284 267 268 265 269 263
219 152 136 139 144 204 174 121 147 101 156 152 126 152 126 162 170 170 190 130 149 272 152 249 334 219 155 134 325 313 314 315 311 294 279 273 265 265 274 282 275 271 269 273
219 151 137 143 213 213 181 153 101 107 135 103 126 140 145 129 190 235 141 154 178 186 208 356 341 291 130 209 289 324 315 304 304 302 295 289 279 267 283 275 278 274 270 267
205 151 142 142 144 212 169 130 141 111 141 140 151 130 136 155 228 164 163 176 159 228 271 377 348 333 318 310 297 320 320 322 313 299 298 294 271 267 268 266 252 257 255 255
207 150 136 136 147 175 150 148 159 132 133 105 152 140 135 162 134 168 233 186 197 229 148 241 362 298 196 312 304 309 297 295 298 306 308 305 301 294 280 282 271 285 288 289
223 147 140 144 142 161 153 108 140 118 120 139 128 143 152 123 206 168 230 141 186 233 199 260 259 362 332 247 136 294 284 293 295 285 275 295 287 303 307 299 300 298 284 285
135 133 145 138 160 154 172 99 134 127 132 137 126 190 124 117 181 135 157 196 150 230 217 272 255 135 312 325 310 300 287 279 279 282 277 283 279 268 266 276 272 276 276 275
142 140 150 143 178 158 187 138 125 129 97 144 150 142 143 132 232 150 226 204 242 226 248 249 207 116 130 260 323 306 297 289 273 282 277 277 277 275 268 260 266 273 273 277
190 192 193 187 179 175 139 174 123 141 149 142 135 138 192 153 136 223 118 207 231 224 245 249 287 251 124 221 336 313 301 294 282 271 272 284 287 286 284 278 279 261 260 257
183 184 180 182 163 121 123 125 144 146 132 135 199 138 168 150 201 156 214 218 131 214 243 254 289 135 335 294 339 329 312 295 288 280 271 265 266 288 288 296 291 274 276 264
181 184 171 173 174 144 125 134 152 147 134 135 131 152 208 164 124 205 233 215 169 235 241 246 283 129 362 346 343 336 324 314 294 284 277 271 268 262 270 303 304 286 276 278
173 173 176 164 187 111 152 188 135 121 134 167 135 185 208 112 222 198 232 216 224 243 246 246 257 127 263 303 346 343 330 308 311 296 280 273 269 264 262 264 263 265 262 262
175 171 166 169 129 175 183 157 182 134 133 170 137 185 198 165 171 229 236 188 176 243 243 196 267 227 303 290 337 334 334 316 299 298 304 282 272 268 259 260 257 263 263 262
173 176 142 177 142 161 123 140 162 148 184 129 132 181 140 116 227 198 226 142 182 217 244 253 259 273 281 336 345 335 328 326 306 304 302 304 290 277 272 265 263 261 259 260
165 162 135 129 151 176 137 195 146 132 203 130 197 208 206 223 225 143 219 137 225 237 237 231 214 130 257 378 358 349 343 324 321 301 297 296 301 303 290 279 272 265 262 262
139 159 168 153 141 179 180 131 174 187 203 162 214 164 218 177 148 218 144 230 231 242 222 239 243 294 269 341 357 335 329 321 312 311 301 296 303 301 306 297 294 283 272 269
169 160 174 152 178 115 166 193 185 204 210 193 155 222 216 176 222 141 182 224 213 243 239 237 252 304 240 308 358 337 322 315 310 307 303 290 287 289 291 301 298 291 293 287
166 168 161 177 111 167 165 175 196 210 197 220 214 201 214 205 182 232 218 228 230 234 125 249 257 156 251 253 374 349 325 313 306 300 299 297 294 281 280 290 307 303 300 315
170 170 180 157 184 195 113 154 164 192 225 218 212 221 234 220 226 233 227 231 221 111 220 200 257 252 239 241 377 360 335 318 307 300 295 296 294 286 280 282 287 289 296 303
166 171 179 160 199 206 145 190 209 202 152 216 179 211 220 227 234 231 203 155 243 244 232 242 268 280 262 255 368 354 342 331 313 302 299 295 289 288 285 281 286 290 289 291
190 171 182 198 206 204 193 127 206 211 207 216 211 227 211 233 229 230 221 220 246 179 241 244 288 257 249 255 360 353 340 327 324 333 301 296 292 293 293 293 290 289 298 299
182 177 209 220 214 217 183 180 217 212 190 210 222 207 217 229 216 235 219 226 244 237 213 252 272 279 253 290 368 356 342 332 317 322 320 320 307 291 291 289 290 289 289 290

GFSNW_2pvu_pres_093.txt.gz
Presure
242 193 207 145 126 183 162 157 148 149 155 158 164 168 134 151 154 156 154 146 245 358 367 358 339 123 142 278 347 351 330 315 300 297 294 321 330 323 342 285 272 269 254 255
239 195 157 142 135 135 152 155 135 148 156 156 108 178 95 136 141 158 175 146 141 181 375 261 348 364 126 395 420 354 321 299 296 298 299 296 318 325 304 308 276 273 262 273
237 180 188 133 187 151 151 153 150 144 139 160 146 159 127 110 146 164 186 208 153 294 184 193 349 367 262 404 387 332 314 297 292 298 313 299 296 298 307 286 304 274 259 273
234 134 143 223 204 166 150 151 149 145 135 125 164 119 96 149 176 198 155 173 187 264 196 369 354 345 141 165 338 323 315 305 297 291 289 285 302 289 296 294 299 298 260 252
233 189 142 145 194 148 157 149 146 197 153 100 141 121 135 161 115 189 137 166 138 125 268 183 353 349 133 137 139 318 312 285 304 300 289 294 276 276 287 291 308 278 271 263
208 126 201 220 131 202 149 145 143 219 146 155 158 158 160 153 149 160 200 187 189 164 261 236 276 345 175 152 265 310 311 293 295 286 282 289 285 273 274 278 289 274 272 281
140 134 157 174 200 229 150 142 143 157 165 135 123 156 147 146 140 175 182 198 170 211 218 249 281 350 336 184 224 325 301 300 286 278 287 283 271 272 270 274 275 276 274 272
133 122 215 138 139 192 139 139 146 168 148 99 111 145 115 136 151 147 214 174 233 214 158 257 228 343 337 322 326 133 172 308 300 289 287 278 261 265 272 284 284 268 271 268
197 134 223 129 230 145 212 144 140 176 151 172 114 131 96 123 130 207 221 150 162 180 145 250 200 357 336 293 256 133 332 325 310 305 299 278 271 263 270 276 277 283 270 270
220 165 153 136 191 151 149 142 138 162 164 159 135 147 156 149 133 210 149 197 200 199 230 232 245 266 290 315 149 196 320 324 314 301 297 299 292 282 271 268 263 281 282 274
169 229 201 137 220 145 143 138 149 158 176 160 148 128 143 134 159 167 130 202 228 213 195 209 247 253 262 305 263 312 302 299 302 314 312 298 297 287 288 286 267 286 273 274
237 231 169 214 140 143 134 148 188 167 168 129 118 129 152 145 117 144 160 139 235 174 134 242 229 212 254 341 317 320 307 299 289 297 296 290 306 305 304 297 282 272 267 268
226 224 167 192 140 168 143 186 188 182 158 164 128 130 115 157 164 151 139 192 142 233 153 150 238 237 204 380 365 331 312 301 293 287 278 280 279 273 275 288 298 302 298 296
194 193 193 191 172 140 191 188 186 176 169 160 145 152 176 150 138 144 183 195 163 181 176 149 248 203 252 282 331 355 330 311 299 287 280 274 276 275 272 271 266 260 269 273
191 167 193 137 192 188 183 186 179 171 166 160 154 141 143 162 128 184 146 133 211 151 159 145 236 240 197 210 357 346 343 330 312 296 287 272 270 272 275 274 275 271 267 262
188 189 192 191 196 187 185 177 180 96 136 154 183 182 173 132 135 152 217 216 184 229 135 229 238 239 218 195 366 367 346 335 325 311 290 272 270 264 261 268 281 282 284 284
186 189 182 188 184 186 180 183 158 153 131 143 162 138 128 140 203 165 197 168 184 215 235 207 247 232 199 205 184 304 350 343 329 319 310 288 271 262 267 262 262 273 276 295
182 184 182 184 188 180 171 162 183 141 175 175 181 135 144 137 181 133 182 166 201 228 190 236 221 231 225 142 287 300 323 349 340 326 315 308 293 278 272 266 261 263 265 270
186 174 184 193 189 176 182 149 136 189 194 136 163 159 144 154 179 215 143 227 210 193 247 238 239 214 132 256 232 282 338 349 341 332 320 312 302 300 286 275 268 265 261 261
175 180 173 174 184 162 144 168 171 156 148 136 137 132 194 158 142 141 154 228 185 231 242 220 231 223 221 180 239 283 355 364 341 334 332 316 306 296 295 293 281 272 269 264
175 181 173 173 148 144 177 147 142 139 199 174 176 201 158 143 164 219 201 216 191 231 227 235 212 239 226 247 263 263 271 354 355 351 335 330 312 305 305 299 303 294 279 272
165 158 163 167 162 149 161 166 139 176 139 166 208 206 144 137 145 169 211 199 230 223 229 229 151 244 200 241 251 255 311 275 354 335 328 322 311 318 311 299 300 304 297 296
156 166 146 143 144 157 162 169 198 169 197 140 141 164 152 162 162 223 232 217 230 225 120 219 225 250 247 230 258 218 289 329 365 344 324 311 310 302 302 295 290 294 295 292
169 144 143 163 155 166 154 175 156 136 158 154 147 212 201 164 213 163 163 207 228 233 235 228 219 247 233 214 248 245 294 331 362 358 338 316 304 297 296 298 296 295 289 279
167 148 163 156 175 146 179 189 179 157 144 188 188 144 205 153 227 217 217 226 230 224 215 198 226 241 248 218 247 246 282 303 360 354 346 330 313 302 294 290 290 291 291 289
143 163 146 153 168 163 173 199 178 156 149 178 203 187 187 216 223 233 222 231 230 227 210 238 235 224 218 239 221 223 277 352 366 354 342 338 333 312 298 294 290 289 288 289
152 164 153 174 172 185 195 212 169 124 200 142 202 217 148 205 183 226 115 225 232 238 218 235 240 218 221 247 249 218 275 315 372 358 345 333 330 320 323 300 291 291 290 288

GFSNW_2pvu_pres_096.txt.gz
Presure
201 144 255 240 171 229 220 219 136 226 153 156 153 159 164 115 131 166 177 213 146 158 174 364 363 401 420 375 365 352 338 324 313 304 312 300 286 324 314 320 352 319 301 311
197 152 251 135 141 189 138 126 141 144 157 157 154 146 163 101 125 118 160 217 164 177 195 170 366 404 422 233 135 137 271 317 316 307 307 295 292 316 310 308 321 338 279 291
194 257 239 232 166 226 127 145 208 144 194 145 149 143 163 137 136 116 156 183 159 233 245 250 319 358 402 132 135 138 325 318 314 298 302 298 279 309 314 314 326 306 283 293
194 122 246 211 230 156 224 208 135 142 155 144 152 177 106 180 96 159 176 161 146 163 172 284 172 360 352 417 124 128 320 313 312 303 291 285 311 290 303 314 291 304 282 279
195 252 237 241 230 180 219 156 191 144 147 145 167 146 117 135 124 139 113 194 187 147 183 256 158 276 371 388 336 120 139 142 301 300 250 297 283 313 298 292 298 291 285 271
198 245 242 237 229 140 164 146 178 169 141 147 150 155 182 173 166 143 140 160 152 171 248 191 235 272 340 369 353 337 222 302 288 307 295 265 298 295 290 295 293 299 291 286
194 237 240 240 131 171 224 132 161 217 149 142 146 151 91 130 102 134 129 180 197 203 189 197 213 272 231 337 368 337 131 310 295 301 291 277 282 283 274 282 286 295 291 296
156 245 223 219 131 181 160 139 222 169 148 137 149 114 99 133 158 152 152 182 210 161 144 159 222 252 255 303 342 132 130 242 307 293 279 280 273 265 273 269 273 276 278 288
126 242 152 128 126 137 222 148 213 210 143 138 149 165 175 107 139 159 121 162 158 125 175 140 241 157 260 249 207 110 117 224 309 300 296 279 277 273 276 275 262 272 276 280
189 201 185 127 202 225 148 132 146 157 134 145 150 160 170 112 148 134 195 154 139 173 107 192 176 180 227 225 291 332 331 326 334 306 303 297 283 278 285 280 270 273 270 268
172 250 238 121 224 226 225 150 143 135 133 153 180 147 159 171 137 150 123 145 179 221 163 138 221 233 147 252 232 355 312 322 318 331 321 311 307 300 276 272 266 264 279 274
194 247 243 232 223 225 221 205 144 131 158 183 181 182 166 147 133 118 153 137 209 224 156 186 154 221 218 240 199 267 362 328 313 307 293 319 304 296 301 289 278 265 263 268
193 219 237 229 233 216 205 141 123 184 190 189 183 167 129 147 150 153 189 171 174 147 174 143 166 216 227 231 252 234 271 301 322 311 300 287 303 309 309 296 291 284 282 284
188 194 200 214 206 195 196 195 131 190 192 174 178 123 162 133 129 178 142 186 165 136 165 145 221 226 225 224 240 255 254 350 353 317 299 291 281 283 285 289 299 301 259 302
192 191 190 196 198 194 191 130 191 186 182 186 144 138 144 130 142 180 149 139 157 142 151 140 222 231 188 244 246 244 242 256 351 344 314 300 288 281 274 276 275 272 277 280
191 192 190 193 193 190 195 193 195 185 186 173 170 160 109 174 144 133 148 166 145 212 216 108 229 231 229 226 236 240 253 270 296 343 336 320 299 287 283 273 272 272 272 271
184 192 193 191 190 191 188 189 188 184 191 97 178 184 117 122 165 149 128 161 217 160 133 156 210 189 237 236 207 101 224 263 383 352 338 326 321 302 293 284 275 267 264 270
181 184 185 187 185 191 191 190 189 191 153 175 180 176 155 165 154 170 136 154 188 191 189 206 188 130 154 211 168 106 105 228 265 375 341 333 321 316 305 288 286 269 269 263
181 184 185 187 184 187 187 185 189 171 186 104 136 170 193 137 169 190 169 178 154 144 147 166 167 219 231 239 229 134 241 235 248 271 361 337 324 320 314 308 295 283 274 273
187 187 180 187 182 189 189 190 160 150 195 135 162 125 187 181 190 130 143 139 205 224 136 162 237 154 222 217 107 237 240 248 257 254 366 349 335 329 315 309 307 300 289 279
174 182 183 186 187 177 184 177 141 192 145 175 166 174 141 161 134 146 140 188 211 141 235 177 196 212 223 174 137 239 232 245 250 245 370 369 341 328 322 318 307 302 299 296
185 183 188 175 183 175 184 152 151 180 154 124 154 150 170 185 190 194 138 141 168 158 189 203 219 236 234 226 224 231 228 243 252 243 320 375 354 339 329 323 318 304 303 297
166 183 160 165 184 147 155 159 172 154 175 167 198 156 141 141 139 167 147 217 149 144 193 169 223 218 215 240 221 250 225 223 246 237 302 389 370 339 326 340 325 324 305 301
162 165 160 158 144 164 172 144 143 154 189 157 174 176 200 185 181 145 158 192 206 159 215 225 231 204 220 233 246 246 226 213 244 231 272 385 373 361 338 319 308 305 300 311
155 158 150 157 158 163 157 169 140 193 159 160 170 130 160 164 194 152 180 161 231 217 234 226 234 212 233 229 231 244 233 243 246 223 253 393 374 358 353 336 315 303 298 292
155 144 155 157 162 155 148 159 162 169 139 188 147 187 197 149 211 189 142 138 146 178 192 232 221 179 238 224 221 232 241 240 244 242 255 407 384 361 345 343 332 315 302 295
138 141 167 142 176 173 174 145 100 129 140 136 205 138 155 208 172 217 160 185 188 209 232 228 221 214 200 233 221 223 242 229 248 241 253 301 405 380 348 338 333 329 317 304

GFSNW_2pvu_pres_099.txt.gz
Presure
194 198 195 226 222 192 247 245 139 235 135 148 214 170 150 152 167 109 157 177 149 167 258 217 384 422 405 378 331 138 130 333 316 317 311 311 303 292 314 314 330 328 309 298
193 190 168 234 201 203 247 236 235 154 139 193 225 148 141 160 120 110 125 143 131 182 181 169 246 394 367 364 353 132 125 330 317 315 310 298 297 286 290 332 328 321 350 293
193 176 228 203 159 214 235 190 227 161 219 150 184 148 149 165 163 122 123 119 205 112 188 236 214 344 418 363 349 226 123 136 332 312 309 294 296 318 301 313 313 347 330 325
181 194 215 200 201 200 240 225 227 144 170 148 168 147 149 145 165 120 129 120 148 139 125 167 250 240 230 372 325 342 333 319 304 302 297 294 295 304 304 298 297 316 318 314
187 215 182 197 167 248 236 135 216 144 139 148 138 144 134 150 90 167 119 129 131 131 169 243 160 261 261 263 360 347 317 137 304 296 292 265 285 290 305 338 304 308 310 337
189 203 194 199 160 240 239 231 227 215 216 205 146 157 127 150 128 172 125 142 183 125 152 172 162 164 257 190 342 337 337 155 242 304 299 291 303 294 286 310 294 308 305 298
196 193 125 202 246 241 230 127 219 138 226 208 181 193 143 148 99 138 182 138 139 190 146 179 151 236 215 212 260 353 324 323 228 303 301 296 292 291 287 282 296 296 288 303
190 194 203 203 253 243 223 211 150 132 223 136 195 154 141 148 135 145 135 126 145 138 133 221 168 218 228 249 263 292 340 301 146 297 296 280 272 282 288 290 289 284 288 292
191 194 196 243 243 239 220 129 143 165 140 213 188 124 137 146 192 155 134 159 161 129 179 202 161 141 241 234 240 254 354 340 328 315 306 283 283 294 280 268 269 283 282 287
195 199 178 250 248 134 129 136 185 166 176 201 140 93 129 186 145 166 130 169 147 149 205 186 148 147 158 241 231 246 263 320 337 321 313 307 287 276 279 261 275 271 270 273
183 194 190 251 125 228 162 217 168 154 212 142 156 135 186 185 173 130 183 99 190 180 154 163 142 152 161 218 245 246 260 266 118 331 317 320 301 296 279 271 272 269 274 269
195 196 191 252 233 223 214 226 222 215 199 140 120 191 186 181 149 119 163 152 134 139 152 225 140 229 157 145 224 244 246 269 259 342 324 308 321 317 307 295 274 271 287 275
193 167 194 259 226 226 227 227 220 203 140 128 114 187 186 101 150 177 193 147 167 137 215 217 206 149 142 172 236 244 237 259 262 389 336 317 301 293 316 299 307 298 281 275
200 195 196 248 241 237 229 223 207 199 190 130 190 180 179 162 146 142 163 164 158 139 151 151 145 195 117 155 157 233 218 245 252 118 381 331 311 297 285 303 303 290 288 288
192 196 193 198 229 232 216 204 199 198 194 189 182 186 160 174 158 133 185 118 189 179 147 185 183 155 222 193 170 221 232 238 110 160 393 368 330 311 299 285 282 293 296 299
190 193 198 191 198 198 203 199 195 197 132 193 189 184 152 172 149 135 172 135 140 184 150 206 151 147 148 177 168 145 241 233 103 230 274 379 354 336 312 298 285 276 275 273
194 191 193 193 194 195 191 193 187 145 190 187 184 179 187 156 152 141 181 180 112 195 152 138 196 176 210 206 236 171 231 233 235 109 253 328 374 351 334 318 300 287 276 273
194 186 181 183 192 197 193 194 194 194 190 194 186 189 147 146 151 199 132 141 129 171 186 155 191 214 164 185 225 229 215 227 228 114 255 265 322 362 347 333 326 311 292 283
189 186 180 180 181 183 186 189 187 187 190 130 176 157 159 138 138 130 168 163 179 137 144 143 137 228 237 188 238 240 218 211 234 228 251 246 282 371 357 341 333 322 316 306
182 173 172 185 182 183 184 186 187 187 188 182 148 175 99 182 129 123 202 113 166 161 166 148 159 215 222 242 233 246 227 198 219 231 240 244 264 378 363 356 336 326 322 314
178 177 178 183 190 186 188 184 180 188 188 164 192 162 146 136 169 184 149 164 185 143 172 138 167 218 222 217 226 135 220 218 217 229 224 239 257 255 315 362 344 339 331 325
184 181 175 186 188 185 178 178 181 187 156 158 183 139 192 176 129 164 175 153 201 182 151 162 193 223 202 194 210 252 222 224 220 228 225 238 251 257 287 373 368 344 329 314
172 175 175 170 181 181 169 171 183 169 161 145 182 159 145 147 162 188 197 189 134 147 205 207 200 228 153 206 233 212 247 232 238 227 225 235 238 250 294 369 381 355 341 324
172 183 182 185 180 174 164 169 155 152 167 163 161 178 183 130 169 179 169 211 175 186 214 200 223 207 169 231 211 237 233 235 227 218 238 237 245 237 291 367 386 374 356 330
188 167 158 184 187 168 161 159 157 160 169 174 167 176 128 154 123 168 142 147 198 165 204 171 212 222 225 233 204 233 216 232 227 218 242 230 225 240 287 343 403 378 364 351
159 176 151 167 172 184 161 168 180 179 147 143 165 163 172 127 171 176 199 182 189 213 216 161 175 216 221 216 224 218 229 235 226 226 239 250 230 250 273 291 355 395 366 354
152 147 147 156 150 175 146 146 179 161 173 181 155 126 130 186 194 180 174 196 224 208 208 203 178 181 203 236 229 219 225 220 240 221 235 244 245 255 296 336 360 415 390 362

GFSNW_2pvu_pres_102.txt.gz
Presure
170 182 181 202 204 186 194 212 221 211 209 161 133 225 238 204 149 143 140 120 148 123 119 162 222 181 369 429 374 345 335 124 130 329 340 337 299 345 311 308 301 319 323 308
170 180 186 201 204 201 209 220 228 152 141 231 226 143 138 201 146 174 171 133 126 148 158 147 182 287 367 390 383 350 336 303 319 321 322 327 329 304 316 344 327 321 343 310
173 163 206 200 202 202 215 218 200 155 244 210 222 142 121 144 151 169 184 154 138 131 238 113 171 186 233 244 347 349 340 333 179 142 315 315 303 294 318 326 328 337 341 325
162 206 186 209 203 208 224 202 227 250 229 172 153 140 192 171 138 154 161 127 149 140 147 167 189 118 274 251 257 351 343 321 316 131 214 300 302 305 295 293 327 329 309 330
175 197 206 207 198 224 204 191 249 169 228 221 182 134 200 145 139 105 151 151 117 157 133 209 136 161 158 218 129 338 316 315 312 296 118 300 293 302 296 312 313 327 336 313
177 154 146 192 184 215 191 219 240 225 215 222 224 138 196 189 144 151 154 129 114 166 170 137 155 130 150 166 172 273 337 323 304 163 304 301 295 303 309 307 298 312 323 302
164 193 200 195 210 195 190 239 238 231 221 140 157 205 138 198 113 142 185 167 160 129 146 152 184 200 194 186 201 254 329 340 311 303 305 298 294 306 291 292 325 290 302 291
180 179 195 218 164 185 243 238 232 130 220 134 198 156 195 146 140 166 141 153 170 126 125 153 123 166 169 126 207 244 233 354 335 311 299 290 297 294 295 287 289 303 294 300
184 195 190 199 189 231 242 229 221 134 143 135 170 181 189 135 155 125 171 127 136 228 157 115 114 159 223 194 153 220 226 235 361 332 315 293 286 290 292 278 280 279 288 290
178 198 192 196 201 252 237 233 135 133 230 218 135 198 139 174 187 178 173 158 147 151 135 209 142 226 150 141 142 176 203 255 262 362 331 316 298 285 280 280 279 278 280 284
217 198 195 193 194 237 238 139 132 139 227 212 166 193 170 188 185 178 170 175 197 185 159 147 133 154 179 170 235 228 225 219 249 265 356 331 327 306 289 280 282 277 276 274
186 204 194 193 147 234 222 222 132 169 218 209 193 142 136 135 162 146 178 157 192 121 139 157 160 152 170 217 180 208 155 213 239 257 316 355 335 321 323 301 280 285 270 267
191 197 193 194 192 232 227 222 223 126 211 199 191 156 190 104 176 165 125 141 156 202 156 146 205 173 220 154 207 213 228 217 237 227 257 229 109 302 322 328 317 293 278 278
190 194 194 194 194 219 227 187 230 232 210 199 189 186 188 179 178 130 181 137 159 173 191 158 132 153 158 183 206 194 166 218 220 236 247 111 285 358 332 314 305 311 316 301
188 193 194 197 217 237 227 228 176 214 206 198 192 183 190 186 153 172 185 156 117 170 196 193 147 230 166 147 150 222 217 215 208 226 238 247 256 306 365 333 313 299 298 306
196 194 195 199 195 236 236 226 232 205 197 196 194 187 190 180 158 101 158 121 209 131 166 167 141 140 159 219 208 217 223 159 242 242 228 242 246 264 338 370 336 314 299 295
197 193 202 200 193 225 235 226 208 199 197 193 191 184 190 175 138 149 171 143 139 188 189 142 139 158 220 178 211 223 153 219 224 223 229 230 252 259 253 332 365 346 321 303
194 193 193 164 198 194 194 194 192 193 190 184 189 182 183 185 139 149 186 155 144 144 125 151 177 183 159 200 204 176 219 221 238 234 226 226 238 254 252 343 388 366 345 334
194 197 194 191 195 185 191 195 188 192 193 186 183 179 185 162 151 130 155 138 155 146 136 141 227 213 164 148 190 235 223 219 219 234 221 217 244 246 250 275 323 386 361 346
192 195 198 188 189 182 184 183 182 182 187 185 187 180 156 150 185 148 132 149 156 141 126 174 197 138 207 223 217 179 223 219 229 241 214 244 219 251 231 251 312 410 374 363
194 188 196 194 173 186 183 181 182 185 183 186 187 159 178 156 143 154 187 178 140 187 132 148 170 176 183 179 220 182 219 195 238 210 226 225 222 242 228 202 250 406 415 375
191 194 194 187 180 176 178 185 187 188 186 176 180 169 152 180 134 142 158 138 160 179 173 168 149 214 196 188 187 233 236 218 227 224 220 248 226 228 241 255 251 245 389 413
182 194 201 189 184 181 178 185 183 179 182 184 155 151 149 187 132 161 144 146 136 139 152 143 147 191 218 173 223 227 236 207 216 238 222 204 225 239 244 252 247 254 317 373
178 192 192 197 190 175 186 176 169 189 164 159 166 162 155 165 155 117 135 133 152 139 144 136 219 218 196 216 220 132 235 208 223 224 225 219 233 225 237 250 247 242 262 361
198 186 188 179 190 173 187 172 189 169 157 150 185 148 180 129 129 165 147 161 161 125 159 190 171 203 223 231 214 171 231 216 241 226 212 222 220 226 233 251 236 251 263 315
178 171 184 191 189 181 173 176 177 161 172 169 150 165 156 159 151 132 133 198 167 139 195 180 152 197 192 217 157 194 209 225 244 229 220 213 222 229 227 246 239 243 264 312
187 191 177 182 168 156 192 208 186 168 163 151 158 130 162 157 175 123 129 183 143 136 146 150 209 199 193 220 235 226 216 213 226 227 219 219 229 209 226 256 236 242 263 303

GFSNW_2pvu_pres_108.txt.gz
Presure
323 288 282 237 250 261 248 236 233 184 217 198 193 157 213 236 227 152 146 143 158 186 193 147 128 143 197 132 143 143 367 339 322 312 341 336 131 162 275 272 268 262 278 274
239 275 264 242 250 230 247 199 175 196 192 130 177 201 239 230 217 146 147 146 194 166 167 147 223 137 131 136 300 340 146 364 339 319 321 325 197 336 312 282 267 262 273 281
259 262 263 268 254 210 241 154 169 206 171 220 158 208 231 221 211 150 146 180 188 211 143 144 188 145 148 202 131 354 175 361 368 363 340 331 313 324 348 291 264 265 263 255
277 235 254 255 187 243 141 222 194 189 208 220 209 166 229 215 174 145 152 185 139 224 167 137 141 158 189 147 269 134 340 146 334 330 340 374 344 327 315 327 274 277 260 264
272 252 242 252 244 175 213 220 210 194 229 194 238 230 219 209 170 161 150 149 167 235 152 174 145 185 181 151 122 143 200 143 135 322 319 327 325 329 340 327 328 339 272 271
214 262 258 223 170 127 219 132 191 230 214 241 204 229 214 205 176 206 188 151 138 210 107 148 150 149 214 211 247 134 146 316 333 316 313 317 308 314 319 325 326 332 326 270
247 253 246 169 195 224 193 166 219 213 178 194 230 221 206 175 141 189 186 149 186 207 169 134 173 181 190 163 224 231 149 247 238 344 334 326 321 310 304 307 309 317 342 345
259 247 244 184 231 210 187 218 219 208 237 231 233 219 141 200 182 184 217 138 229 170 217 174 137 164 124 170 241 138 149 228 140 234 286 330 327 325 309 315 318 307 320 310
251 164 242 226 146 211 177 221 212 242 140 222 225 209 201 196 164 185 148 140 180 163 205 180 182 139 162 138 189 131 248 136 232 224 226 277 331 333 328 313 321 314 312 312
214 219 183 185 169 190 190 197 206 237 231 228 223 197 140 169 164 171 137 152 156 199 157 181 131 128 160 149 116 138 195 130 247 213 208 233 269 312 330 258 117 326 311 328
200 165 217 214 130 198 188 207 220 236 233 230 219 162 141 188 187 178 178 163 141 168 157 140 139 220 221 215 162 207 160 161 248 216 240 260 263 223 246 276 330 306 315 316
233 224 177 187 179 197 213 210 238 239 232 230 179 134 143 191 185 131 171 154 162 169 213 150 145 133 171 144 134 133 173 193 219 234 254 221 251 267 246 262 275 331 322 316
172 196 182 177 169 204 185 234 238 234 224 229 135 182 193 191 197 164 169 186 142 132 207 112 126 198 184 130 170 145 131 145 226 216 203 240 209 224 266 226 266 277 350 327
228 188 175 173 171 191 218 232 239 229 222 230 133 134 192 193 184 180 172 149 172 173 137 177 141 155 186 173 163 142 210 192 205 222 215 226 229 218 245 249 244 221 263 372
225 204 180 173 198 184 219 235 237 234 223 227 186 140 196 177 187 185 179 169 152 161 164 148 152 134 156 157 132 154 171 191 221 217 204 242 225 219 209 235 262 248 239 267
202 201 173 172 187 203 197 232 234 230 126 229 207 155 202 188 196 180 163 193 172 134 209 136 174 146 148 182 187 147 216 229 224 164 226 226 211 248 228 213 228 257 228 257
174 175 181 170 202 202 180 234 243 232 218 223 211 196 195 189 175 174 166 184 172 170 177 151 122 148 148 126 193 204 159 202 226 206 226 214 225 213 218 224 213 231 245 230
203 202 184 175 190 201 216 233 236 235 222 230 212 194 192 187 176 182 162 179 141 194 179 197 166 148 198 190 193 139 188 229 222 190 202 226 220 220 227 203 212 213 252 224
198 172 215 164 183 200 195 228 236 232 226 231 213 192 184 187 173 170 164 175 161 170 144 179 150 132 174 163 211 162 191 164 202 212 235 197 232 227 220 224 217 231 229 230
185 182 172 176 206 200 195 226 234 236 225 239 203 189 182 182 169 173 167 157 164 154 151 179 169 111 127 206 199 172 207 224 212 220 215 198 220 210 218 228 202 229 228 246
171 171 209 193 203 197 194 231 239 240 225 220 188 187 194 173 185 170 194 179 157 175 153 140 146 136 142 141 153 212 173 147 173 213 201 199 227 217 230 221 233 258 227 220
172 193 164 186 195 196 196 218 239 233 238 189 190 188 182 187 183 174 190 175 161 137 152 144 143 148 125 150 182 180 202 155 170 216 216 225 211 245 229 225 230 217 223 207
173 178 179 175 183 186 192 193 202 193 230 186 185 180 188 173 181 180 182 156 150 184 152 132 159 143 146 167 181 177 206 209 201 222 215 178 214 226 235 224 211 215 238 212
184 195 214 179 200 191 196 193 197 187 186 190 181 181 181 189 183 182 172 195 170 148 156 151 153 145 179 151 168 149 188 173 214 211 204 212 227 219 228 214 250 214 213 209
182 168 206 164 167 182 197 195 194 195 190 190 175 184 175 182 181 168 187 151 148 175 147 130 151 145 189 170 202 199 149 137 184 158 214 227 227 222 236 202 245 220 211 224
173 169 164 198 173 182 192 191 194 190 192 184 193 189 168 189 193 166 180 182 164 183 142 127 172 163 140 180 181 194 207 156 184 233 220 210 227 219 218 224 229 222 232 250
187 168 176 166 169 173 173 201 196 189 191 192 191 196 168 160 189 161 152 156 146 124 189 135 148 146 138 137 190 190 151 203 207 231 214 220 223 243 211 230 209 243 216 219

GFSNW_2pvu_pres_114.txt.gz
Presure
453 434 350 333 277 277 270 261 200 232 238 233 223 222 147 166 225 202 229 224 141 153 157 299 154 294 118 145 281 125 150 156 326 329 350 350 311 292 295 130 129 272 270 252
471 355 312 286 280 279 261 233 248 194 234 193 207 219 215 144 204 226 221 208 182 149 156 212 127 265 161 146 231 334 128 338 298 335 344 366 300 291 282 134 234 275 261 271
464 341 313 272 278 240 252 245 243 220 232 209 222 217 198 215 222 212 207 192 149 166 149 212 227 224 128 138 157 367 270 146 217 334 343 349 300 298 281 272 266 267 260 254
343 285 300 281 275 243 242 248 241 180 218 217 185 209 199 218 207 211 150 162 195 171 141 189 210 267 245 148 249 118 154 360 270 348 347 311 327 321 272 262 265 265 264 258
287 295 284 253 265 246 252 245 233 211 225 211 207 199 216 216 206 200 155 202 151 151 174 101 113 230 154 203 164 131 128 141 151 336 345 343 292 326 287 277 272 272 265 266
279 252 236 224 264 259 248 238 180 216 221 228 230 217 215 193 203 151 190 175 211 151 223 151 204 155 111 185 160 144 156 133 292 346 354 370 334 285 289 285 284 271 264 261
238 257 263 252 262 253 241 181 232 229 135 231 220 214 205 203 197 208 227 183 183 122 232 167 190 151 235 119 230 176 237 191 245 250 233 325 380 339 283 280 276 284 271 276
262 244 227 256 250 208 177 202 214 171 234 222 214 212 204 197 176 139 182 215 131 169 202 153 203 229 218 146 184 132 148 130 255 245 298 273 233 380 351 312 290 280 267 236
240 256 265 253 169 162 197 221 160 207 232 215 214 205 214 196 203 178 186 135 148 222 163 178 162 165 222 203 199 203 130 213 163 202 114 254 252 290 399 407 405 320 310 110
284 266 252 245 187 200 204 132 212 235 219 212 193 206 197 184 188 198 142 172 133 182 179 193 160 241 135 162 162 195 141 234 215 234 169 235 242 232 243 271 251 232 408 409
264 253 249 218 214 217 163 173 230 234 212 211 202 200 202 191 157 186 181 191 174 182 129 162 134 140 163 185 172 178 185 176 164 210 252 242 247 230 234 263 264 293 264 299
253 240 154 236 206 228 199 219 230 235 212 205 202 200 193 191 139 183 180 157 192 217 164 140 173 205 153 145 147 197 226 165 215 183 160 202 185 241 251 254 229 243 256 291
243 169 231 234 196 196 197 224 231 234 211 202 199 197 193 138 168 184 181 150 174 175 175 182 135 154 131 204 166 168 154 141 185 150 136 238 230 223 201 229 256 269 247 231
209 206 192 190 193 192 206 228 225 230 221 200 197 192 133 134 171 169 179 172 180 159 169 179 143 147 156 133 152 189 165 144 163 161 190 163 208 223 226 204 240 235 229 258
235 167 222 246 167 211 196 225 227 225 226 203 197 192 151 128 181 197 179 190 192 178 167 194 173 145 150 176 141 133 137 168 169 162 169 216 219 215 233 219 221 229 220 245
243 155 168 179 189 186 233 229 225 223 227 211 203 193 185 185 180 177 181 175 192 178 186 163 169 132 138 152 172 121 201 199 131 171 192 165 226 170 221 222 230 243 229 254
166 185 199 186 180 218 230 227 226 213 225 220 205 195 187 184 184 176 175 181 176 197 177 160 173 142 160 130 145 169 151 149 126 168 160 172 222 216 197 187 232 217 223 222
146 164 204 155 163 227 235 238 230 228 174 119 216 196 190 179 179 184 187 175 182 184 167 138 157 150 159 150 152 185 190 134 152 175 172 147 158 189 160 212 228 221 233 231
151 153 207 177 167 216 173 232 235 230 219 227 223 206 194 190 180 182 183 182 178 170 166 179 175 161 146 185 152 131 118 144 151 153 149 179 178 212 154 197 218 230 202 212
208 149 175 177 168 217 234 183 236 228 137 219 224 227 203 198 186 187 181 176 183 165 170 160 187 178 159 158 158 175 154 162 142 159 204 147 210 202 151 160 215 212 203 211
230 144 180 203 165 199 200 189 231 237 225 218 220 224 225 195 190 184 187 178 177 174 194 180 181 199 147 183 170 150 166 138 140 144 148 153 148 169 158 213 202 218 226 239
250 155 160 196 167 165 217 223 180 200 230 238 225 219 224 223 192 188 188 190 181 185 184 185 161 172 152 181 154 149 156 182 195 144 176 151 146 192 180 152 170 205 176 230
251 163 214 149 160 177 159 197 169 163 237 230 234 235 221 223 228 189 185 194 178 186 191 189 175 159 134 153 179 194 143 153 158 150 175 176 183 190 156 162 223 215 220 232
246 242 184 157 165 171 178 201 193 187 187 232 223 232 235 224 228 217 193 194 178 178 196 178 181 194 153 157 182 156 137 126 153 156 162 217 149 195 198 210 193 205 205 235
254 253 225 150 151 164 179 167 207 203 172 190 224 232 234 233 220 204 198 186 186 187 183 183 187 182 192 174 141 183 133 141 151 139 141 187 189 202 185 180 204 201 223 226
246 258 246 217 190 167 173 159 188 171 204 205 196 235 237 231 221 208 183 180 182 180 177 193 185 183 167 154 123 150 145 204 200 149 164 188 189 158 187 216 160 217 209 223
258 247 248 243 148 189 182 168 171 183 194 202 196 206 217 219 193 222 180 187 184 188 170 200 169 195 180 174 144 189 132 142 189 192 191 154 156 197 209 169 187 211 220 212

GFSNW_2pvu_pres_117.txt.gz
Presure
472 422 418 317 325 255 265 255 245 225 227 229 231 201 224 200 216 235 196 234 245 273 159 230 160 201 362 167 136 107 180 152 317 313 194 315 308 302 305 125 126 126 279 277
454 424 412 282 292 272 261 244 231 242 241 229 178 222 226 215 230 211 195 225 252 173 254 253 150 269 283 240 152 136 157 330 169 332 331 320 306 292 281 294 287 252 156 286
429 309 291 285 269 259 229 212 243 226 233 226 224 220 214 161 197 225 177 221 241 160 250 222 203 286 211 194 146 158 140 145 334 335 343 333 296 281 275 272 257 255 125 279
327 284 289 250 257 244 176 243 241 233 225 226 221 206 226 214 201 199 188 178 154 202 254 152 196 180 262 178 251 114 300 259 221 353 342 345 294 285 276 266 261 253 271 276
299 291 267 277 255 259 248 171 236 226 226 220 222 225 212 205 208 197 158 234 156 231 152 147 239 244 170 132 296 261 299 247 341 341 349 338 305 291 272 273 266 266 276 271
277 279 279 243 265 251 245 237 221 233 220 223 224 213 220 224 197 207 233 208 230 222 135 242 161 244 178 181 169 222 179 317 293 357 365 345 304 275 292 281 267 277 266 253
292 157 207 272 255 253 243 179 226 203 225 225 212 209 201 199 222 205 155 179 211 143 227 225 207 147 242 195 215 192 138 290 266 318 365 386 305 300 291 282 282 283 271 277
272 234 224 260 255 245 218 215 193 226 225 215 208 202 200 163 193 203 190 236 149 210 176 202 235 146 221 170 215 130 147 250 248 273 336 375 270 324 284 262 270 247 251 250
259 263 243 248 245 236 236 217 228 222 220 214 212 201 213 218 203 179 181 193 146 221 248 228 167 183 217 172 220 259 176 229 152 260 249 233 259 276 374 290 287 268 261 255
264 256 249 250 199 185 212 131 221 224 215 211 199 209 193 192 182 211 147 186 222 197 175 163 185 156 140 154 182 164 209 235 144 223 220 241 260 255 239 239 395 355 326 283
267 252 173 167 190 198 199 216 164 221 212 209 205 202 205 195 175 189 179 195 167 137 176 158 174 140 147 160 141 168 169 218 143 116 213 227 227 240 250 236 272 273 287 339
252 151 178 227 203 200 233 220 134 215 212 207 204 196 193 191 165 195 195 172 166 180 186 150 168 140 156 152 169 163 191 187 125 187 219 222 222 207 271 259 233 270 277 284
241 238 154 213 200 193 234 222 225 211 207 204 200 196 193 190 138 187 186 177 182 172 183 189 146 152 156 152 138 157 166 159 136 193 148 196 222 229 225 246 238 238 263 258
248 190 158 189 178 189 232 234 218 209 209 203 200 196 192 126 136 155 182 184 185 167 196 156 151 143 153 123 164 144 141 132 190 131 166 193 193 203 210 180 219 216 243 241
191 231 164 187 183 190 239 228 218 212 202 205 200 198 193 125 183 181 187 189 180 172 170 170 169 163 146 157 140 185 131 155 129 171 165 148 186 161 194 170 203 207 228 231
241 194 163 154 185 190 183 233 220 211 206 201 204 198 190 123 182 182 190 180 188 180 181 167 175 162 170 140 156 117 142 157 174 141 192 152 143 158 164 222 173 214 210 193
158 192 162 157 186 186 229 229 226 217 206 133 200 196 145 173 190 183 175 179 191 196 184 183 172 152 159 171 155 157 132 137 161 149 146 170 173 198 154 173 210 163 192 234
243 166 161 165 154 173 204 184 222 226 220 173 162 197 198 189 185 189 185 180 174 176 181 170 183 181 168 192 148 174 167 145 145 174 164 161 152 192 138 141 171 206 204 159
243 235 176 203 190 211 169 226 228 218 225 224 210 205 197 191 189 182 188 187 184 181 176 169 167 166 178 171 176 165 171 177 150 123 132 143 171 162 152 153 141 208 193 215
252 197 235 212 211 165 188 156 183 225 222 224 224 218 203 198 190 191 175 193 185 186 177 173 162 172 192 148 161 199 172 166 147 122 144 133 138 144 176 150 170 212 201 201
239 240 226 140 148 162 179 161 189 178 227 224 217 227 219 208 197 194 190 182 185 188 176 170 171 192 172 191 164 157 158 158 141 150 139 150 149 180 167 185 167 157 192 187
251 243 237 215 148 159 179 179 164 232 181 228 226 220 225 224 221 203 193 195 189 187 185 177 178 177 174 169 159 160 157 147 137 160 160 145 150 165 173 165 149 188 215 230
264 263 207 176 211 144 159 178 177 180 156 180 226 226 221 221 222 226 221 197 193 187 186 192 177 177 186 179 191 196 177 168 139 123 142 136 158 154 169 158 187 148 169 181
286 250 258 243 231 217 148 152 167 169 184 178 152 229 231 237 219 217 222 228 223 191 187 187 195 176 192 182 189 197 149 149 191 132 175 196 200 144 181 164 194 176 190 181
296 278 253 245 240 208 187 151 165 171 153 186 166 169 229 232 232 236 231 221 234 228 218 194 204 186 186 188 170 185 199 190 147 128 181 157 159 142 163 157 161 185 208 213
305 294 253 243 231 218 161 156 166 165 179 173 176 179 174 182 232 218 237 231 229 227 223 229 193 182 187 170 196 170 197 146 169 185 140 142 165 144 162 160 185 189 174 224
319 290 278 249 241 234 221 209 182 200 181 177 168 155 183 181 230 217 233 229 226 226 230 228 182 185 204 200 193 185 177 182 147 144 155 139 159 160 172 144 186 198 161 219

GFSNW_2pvu_pres_120.txt.gz
Presure
442 438 374 298 288 272 250 250 213 177 239 232 243 241 215 204 241 180 231 250 242 257 279 162 299 156 345 257 193 320 161 165 303 312 314 232 142 304 310 288 286 271 275 138
438 426 302 259 244 252 252 232 214 237 232 239 227 214 197 224 241 231 252 248 249 213 153 273 149 352 342 223 171 142 139 325 311 140 304 310 310 308 281 275 274 274 131 133
417 300 282 268 261 254 249 240 236 241 239 189 202 207 225 195 237 240 247 230 255 287 286 192 180 163 157 213 185 142 131 324 328 229 305 304 272 276 280 273 271 253 232 274
301 289 271 272 262 246 244 239 236 222 229 216 227 218 202 207 234 258 254 255 210 172 173 208 181 193 220 195 327 159 357 333 201 327 239 308 266 293 282 275 271 283 292 267
290 280 276 256 255 245 249 239 236 180 227 218 216 208 245 204 240 241 176 238 149 253 140 181 273 166 136 157 137 334 334 229 337 332 339 310 266 279 267 284 272 287 278 267
277 273 258 250 256 250 239 236 223 225 221 220 207 243 238 226 233 194 197 188 247 219 246 200 167 264 223 289 140 157 236 358 215 338 346 281 278 290 260 272 281 275 279 279
276 253 266 247 215 218 208 207 230 217 234 220 228 228 201 223 201 184 197 163 242 195 236 250 165 150 148 230 125 285 213 306 247 358 355 281 272 278 285 262 267 275 254 279
246 262 243 247 238 232 218 228 197 224 214 211 210 212 196 200 212 173 156 190 153 144 139 240 153 154 140 185 134 246 131 238 263 272 389 344 285 155 267 280 260 274 271 250
262 252 246 238 173 171 228 182 152 220 209 223 203 212 173 188 200 189 181 166 153 180 161 202 231 216 130 131 232 123 257 140 264 257 320 347 378 262 253 264 272 303 253 248
249 233 238 231 230 188 220 182 212 213 214 203 176 206 189 201 186 169 206 155 135 191 157 196 161 191 193 131 226 136 232 221 229 247 235 270 264 337 277 276 284 298 289 284
251 230 189 164 186 210 220 213 216 213 216 198 206 197 208 198 205 139 175 202 203 199 165 176 164 150 167 120 160 127 197 183 188 155 123 218 211 263 238 267 276 276 348 300
244 156 158 234 190 141 214 137 205 212 202 194 197 195 193 200 200 134 182 180 197 201 194 173 153 150 144 137 172 132 165 134 196 163 126 155 210 234 237 269 267 255 266 261
232 151 160 233 189 226 133 214 212 212 204 204 199 193 195 199 181 135 135 191 172 188 190 193 153 181 155 171 153 126 167 143 182 140 176 125 164 217 189 170 231 245 235 255
240 219 153 167 176 182 209 211 211 208 208 201 198 193 197 191 192 128 186 190 186 174 179 187 182 156 153 150 171 136 134 159 120 141 171 152 186 136 128 215 191 183 218 226
230 224 161 156 187 175 177 210 210 205 215 202 199 195 192 190 125 184 193 193 176 195 173 171 168 173 181 148 140 128 123 146 134 133 119 174 165 139 125 154 136 229 172 224
238 198 215 182 179 213 179 172 215 204 202 208 200 201 191 192 191 171 187 186 190 185 190 185 174 163 206 185 170 154 160 123 148 135 196 131 187 142 182 129 175 163 195 211
221 227 227 199 152 175 184 184 215 203 209 194 205 199 200 191 192 191 182 186 187 181 184 178 176 189 170 177 174 160 172 152 172 154 164 142 141 128 177 173 147 151 239 189
245 221 215 225 160 173 172 181 169 212 204 209 198 205 200 185 183 193 193 187 184 186 178 177 173 170 172 187 193 195 187 160 158 135 138 182 163 202 170 139 169 179 182 174
270 257 226 221 210 167 161 193 184 196 184 210 207 206 203 202 192 195 193 188 193 189 185 189 179 176 165 178 200 168 155 165 150 137 132 143 157 135 147 181 147 198 183 173
227 291 273 240 139 207 221 152 164 226 153 161 199 212 207 202 200 198 198 194 189 177 181 187 186 176 174 194 176 171 160 166 188 185 121 185 153 174 152 174 169 153 158 163
214 209 228 279 256 183 222 158 201 173 191 152 197 223 221 217 207 201 199 196 195 191 186 184 184 184 174 176 178 181 174 163 162 160 153 160 123 178 149 166 167 191 190 174
216 219 234 236 292 250 170 151 194 195 150 197 179 218 228 197 225 222 214 203 196 194 193 190 189 188 187 185 177 178 190 184 176 195 167 175 143 179 162 135 164 204 153 168
200 212 226 227 260 292 253 153 191 168 175 174 178 167 220 180 230 228 222 223 225 215 200 199 197 196 189 187 192 192 156 186 193 192 187 158 184 140 133 128 179 151 191 161
188 214 223 235 245 281 281 241 153 187 161 173 167 202 207 175 225 156 230 225 219 220 221 224 224 219 201 197 189 188 199 178 188 178 192 135 153 153 173 147 170 137 170 153
206 192 217 226 279 294 275 250 232 228 162 156 175 171 161 155 173 191 160 228 226 223 227 216 217 219 223 231 223 219 142 188 178 163 198 161 142 161 138 156 152 191 141 191
201 196 208 268 232 293 276 262 238 220 230 195 223 164 169 141 168 174 174 181 185 230 237 229 233 225 221 220 218 230 221 208 188 159 221 138 189 185 151 150 136 168 166 184
229 234 218 264 250 336 313 267 249 237 213 144 228 223 169 185 154 151 154 169 191 226 231 206 229 238 217 224 227 225 221 219 217 204 216 171 216 175 153 174 173 131 161 148

GFSNW_2pvu_pres_123.txt.gz
Presure
313 308 291 142 185 269 247 261 250 204 147 221 238 236 236 212 247 256 381 326 374 374 211 170 348 170 190 330 225 309 306 298 305 148 136 216 148 290 277 283 280 286 287 301
312 293 279 281 255 266 263 142 217 217 220 220 202 257 230 272 274 240 280 299 199 220 200 357 185 183 334 189 188 296 148 149 275 294 285 309 253 280 282 272 269 290 280 283
271 283 268 153 268 260 204 224 224 222 245 213 222 223 268 265 261 240 270 194 155 216 279 173 170 344 255 216 240 320 135 145 186 300 307 275 266 280 280 267 265 274 238 220
281 240 280 255 257 244 214 227 216 193 235 262 232 250 241 248 257 250 264 181 260 160 142 211 315 311 341 193 155 213 287 312 260 300 252 276 219 267 276 267 265 268 273 276
276 278 263 252 240 232 222 224 178 242 262 245 212 251 225 249 252 245 150 181 164 245 266 295 153 354 311 247 137 133 116 207 318 259 256 270 271 268 275 278 263 269 268 279
235 230 248 235 234 224 209 226 242 230 238 245 239 256 211 218 162 218 241 244 147 241 172 246 199 245 179 133 244 157 343 297 158 294 272 282 277 275 271 269 263 256 267 269
247 219 176 172 201 193 233 241 243 235 250 241 229 227 231 147 224 158 184 175 212 161 237 164 226 152 158 212 231 230 211 349 288 289 287 256 251 272 268 275 268 260 273 269
179 235 215 226 179 181 226 235 206 215 220 224 188 213 185 156 203 208 210 147 173 198 173 181 169 148 218 134 187 146 145 288 280 278 269 271 266 263 252 270 265 274 271 285
234 160 216 227 218 224 220 220 200 235 195 225 226 187 156 204 176 171 165 206 175 142 173 183 163 237 239 126 157 139 184 134 341 296 276 263 276 284 288 277 252 233 254 285
187 185 183 229 216 218 211 221 205 210 207 196 203 210 198 187 205 139 134 205 179 176 214 187 153 171 137 203 154 134 244 153 118 123 205 279 257 256 251 358 413 309 266 259
174 165 176 184 224 218 203 203 209 201 206 203 191 199 200 194 207 147 202 183 191 163 196 160 157 190 158 171 134 199 156 130 146 240 187 197 250 264 254 277 293 282 331 378
196 159 195 184 220 212 213 202 205 195 198 199 192 191 199 200 186 178 195 200 211 195 174 200 156 150 148 129 133 163 145 184 185 133 128 192 113 118 208 253 266 263 268 288
168 185 182 222 183 215 215 206 210 201 198 197 192 191 198 185 182 140 136 194 170 200 190 199 156 165 154 144 135 150 131 150 135 136 180 129 128 196 137 226 252 231 255 277
230 210 191 154 166 184 216 209 207 207 203 202 189 197 196 191 176 159 196 195 189 178 173 177 187 194 176 156 147 141 160 148 132 132 166 162 161 125 138 147 173 191 187 221
236 230 228 192 182 173 183 212 195 204 202 204 196 198 193 191 189 171 125 149 180 188 186 183 203 179 176 188 151 143 175 165 132 145 179 165 132 156 157 143 159 202 161 221
223 265 237 177 178 178 199 217 209 192 214 203 203 192 197 197 189 197 193 191 189 189 193 178 178 171 173 178 182 179 141 141 135 177 138 142 115 135 127 141 126 215 148 197
212 229 272 244 159 179 177 189 219 164 211 210 190 206 200 193 200 193 190 191 190 184 189 181 177 173 178 180 172 176 171 175 181 179 148 201 190 149 146 167 168 172 131 191
182 204 223 268 240 200 194 173 177 186 190 195 195 196 209 201 195 158 197 195 191 191 187 188 187 191 180 172 174 177 178 178 174 152 171 150 154 140 183 147 208 164 135 139
195 199 210 218 248 269 237 173 162 174 166 172 194 210 186 199 208 200 201 199 195 196 188 181 177 188 183 181 172 178 192 182 173 190 170 157 143 190 161 178 155 178 169 167
215 188 195 207 225 242 279 266 161 166 207 178 170 183 210 208 175 212 205 205 204 197 195 191 192 186 182 179 183 176 174 180 178 195 183 174 141 140 121 130 163 171 125 144
193 195 187 185 198 243 252 285 263 205 166 166 189 186 192 180 211 221 216 217 210 204 204 198 196 192 193 190 188 187 190 188 178 178 153 183 172 191 161 168 163 140 119 161
170 170 196 194 203 206 239 250 188 247 231 165 186 188 189 194 199 196 202 219 218 216 222 217 209 206 201 201 200 197 198 199 187 155 187 177 176 177 185 138 165 153 172 155
226 187 223 179 193 197 210 229 265 259 245 233 226 185 194 169 207 161 204 207 223 223 223 220 222 218 220 220 218 219 221 222 224 237 219 206 220 192 174 142 215 216 133 177
205 177 225 172 245 188 189 210 252 212 270 253 238 234 160 170 182 164 165 171 192 155 180 215 227 224 224 217 215 211 211 213 216 219 215 220 227 227 209 134 221 140 188 140
206 234 184 220 215 192 207 197 214 229 273 269 252 231 242 234 160 165 175 176 197 170 175 195 220 221 223 222 225 226 221 221 221 218 218 215 219 221 222 212 211 213 208 195
225 181 237 197 240 197 188 193 231 196 343 297 270 254 251 243 240 227 159 163 174 186 184 177 175 211 211 215 217 226 228 219 221 218 212 159 233 215 220 201 220 220 200 131
205 217 231 221 191 207 214 220 248 233 292 336 334 266 258 244 239 237 232 214 167 183 181 168 153 168 171 139 191 210 209 208 207 203 201 217 214 221 185 216 200 167 192 144

GFSNW_2pvu_pres_126.txt.gz
Presure
285 268 245 246 243 161 234 238 236 275 275 279 223 260 286 251 273 179 367 370 199 344 341 337 182 320 341 331 169 306 307 311 323 313 157 300 294 291 236 287 273 291 282 275
254 237 237 238 248 229 242 210 210 187 259 252 268 267 265 297 286 347 325 363 359 347 346 219 301 322 213 318 306 309 298 300 278 173 264 218 298 195 176 211 272 283 289 289
198 246 223 233 235 214 211 256 255 238 248 251 260 262 258 256 276 294 285 262 267 210 248 336 331 331 328 312 158 160 200 218 137 157 180 280 270 275 276 276 276 278 273 271
180 233 236 244 233 214 245 208 199 241 242 242 248 248 247 257 198 182 285 373 369 362 360 346 341 339 182 316 157 122 213 282 230 281 278 270 275 229 270 277 271 254 278 278
209 235 238 270 226 215 221 242 251 231 247 236 237 181 250 148 176 178 149 176 165 374 373 362 355 347 312 141 306 309 286 283 121 258 273 271 270 271 263 269 269 263 270 288
210 173 184 210 263 217 237 220 237 204 220 232 181 229 150 140 175 157 169 238 178 360 359 279 269 184 162 180 287 331 280 290 283 266 266 268 264 259 268 263 262 262 260 272
208 176 166 218 227 236 225 202 228 218 223 213 186 198 241 165 153 161 240 174 188 251 171 374 139 290 194 142 259 278 270 270 126 260 264 266 268 259 275 264 266 257 258 255
217 217 207 216 228 231 236 186 221 220 216 222 192 201 221 205 180 194 187 167 225 162 154 194 244 155 269 160 121 145 133 280 281 274 278 279 264 265 271 256 269 253 259 249
220 208 215 208 203 194 186 197 206 207 206 206 184 201 227 175 193 195 196 202 188 206 234 139 150 136 137 184 226 127 131 117 110 244 245 390 452 264 267 277 259 264 263 247
154 195 217 202 201 199 205 196 202 181 201 188 193 197 203 191 175 170 207 157 181 201 221 192 147 169 149 205 194 136 157 138 188 125 112 226 325 413 256 261 274 264 267 258
164 164 191 227 215 209 199 204 191 186 202 187 182 196 185 204 205 150 225 191 163 176 179 210 150 208 152 173 126 168 183 112 171 131 127 198 241 288 301 295 290 271 260 264
280 153 167 213 200 216 208 195 195 197 188 187 183 202 204 198 184 183 171 200 211 168 169 162 165 159 202 158 137 129 141 111 140 223 189 114 113 242 239 250 256 283 317 284
214 283 249 152 176 194 213 197 211 205 192 191 188 200 190 154 194 135 198 170 165 200 178 199 172 146 143 143 181 142 218 126 142 145 152 165 190 119 113 137 163 237 240 160
195 216 282 251 166 147 225 194 213 201 205 203 196 192 197 189 188 166 192 190 189 190 158 191 185 174 151 153 148 167 134 141 153 176 131 208 200 208 136 121 109 112 165 236
185 196 202 271 253 223 159 161 212 194 209 199 206 207 185 195 182 193 128 186 190 183 185 181 175 176 186 177 158 188 144 135 139 152 155 147 153 141 171 142 136 131 178 144
191 177 184 196 245 266 241 171 171 167 163 212 190 208 203 210 198 195 198 190 191 189 184 176 176 175 178 177 185 202 175 168 148 182 137 136 134 170 125 157 187 175 163 158
194 194 171 185 207 227 270 248 152 161 214 211 202 191 191 201 199 209 203 198 199 188 187 187 186 182 179 181 169 176 168 168 178 149 154 134 141 139 135 173 158 142 153 137
161 187 173 185 192 193 207 276 255 230 203 189 195 196 194 202 196 194 195 201 205 205 202 197 189 185 187 184 179 180 177 176 185 187 181 156 146 165 189 171 160 152 155 140
173 199 190 190 174 188 204 208 265 268 237 220 195 168 170 228 203 216 214 209 202 195 199 197 197 200 196 186 187 186 185 183 182 192 183 162 179 184 191 163 131 180 155 156
154 168 191 167 196 173 173 184 200 260 265 237 230 215 164 169 209 176 219 217 208 217 217 211 211 212 199 204 205 197 200 201 197 195 195 197 192 151 145 142 154 166 141 135
172 178 165 171 178 176 179 173 212 199 207 275 260 249 234 216 211 158 170 206 200 213 206 211 213 213 210 215 219 218 217 218 221 222 222 222 224 223 229 244 224 209 166 142
227 180 233 191 180 195 177 182 190 178 182 192 255 227 268 255 238 229 209 181 159 217 198 184 223 210 213 216 218 219 220 213 214 217 217 223 224 222 227 193 200 222 210 230
176 192 168 168 174 176 231 176 226 194 197 204 201 150 251 280 269 255 241 225 201 163 194 171 194 181 197 215 215 219 220 222 217 213 222 221 222 222 221 217 216 222 234 201
193 203 206 170 177 172 170 192 189 186 190 196 201 204 246 255 281 275 258 247 237 216 197 166 179 158 173 193 223 222 224 221 218 219 219 222 228 221 217 212 209 206 211 220
190 205 193 169 175 168 237 228 197 223 197 225 197 192 198 322 196 199 238 256 241 231 222 204 182 170 150 166 211 217 175 214 195 211 210 216 222 217 210 196 155 206 185 202
177 179 212 213 192 197 178 184 221 211 189 207 193 189 189 197 278 324 347 271 257 246 236 229 217 208 161 149 192 217 174 171 188 180 181 178 193 206 208 209 206 203 173 201
206 220 187 183 170 189 179 166 190 188 194 240 194 189 242 212 234 263 311 356 292 265 253 243 179 222 200 213 207 151 181 175 169 156 180 188 177 180 189 188 198 201 201 200

GFSNW_2pvu_pres_129.txt.gz
Presure
201 264 256 259 257 260 253 255 260 262 266 280 334 367 365 354 375 377 361 190 343 152 350 339 347 330 331 325 318 320 296 160 276 296 295 299 276 181 170 164 300 149 243 182
227 237 230 253 232 252 250 243 246 255 259 263 274 334 367 127 365 366 354 345 347 338 328 339 341 315 314 301 320 318 314 295 295 283 273 272 280 302 288 167 279 279 273 229
216 217 210 235 233 236 242 257 233 243 184 256 263 279 361 372 320 364 365 353 346 343 331 342 315 310 241 264 311 301 285 296 279 209 236 284 149 149 156 200 275 265 272 272
217 203 234 205 226 212 215 219 230 177 242 202 227 160 246 377 176 303 291 362 358 350 349 354 321 326 302 306 301 296 149 253 150 148 246 152 148 279 268 203 280 255 260 253
201 229 214 223 232 227 225 228 236 178 222 159 194 173 195 189 178 178 307 335 295 367 363 367 334 338 315 210 177 286 277 207 268 274 276 261 278 279 275 258 268 268 258 257
200 224 228 209 178 174 226 207 197 178 174 219 220 145 224 220 189 202 171 247 297 325 355 372 321 143 292 291 282 276 282 277 269 264 269 271 264 268 268 258 258 252 262 260
197 203 223 196 195 207 173 207 187 165 160 150 218 196 198 164 199 181 202 199 221 260 268 176 177 280 150 291 234 288 281 283 280 270 262 267 263 259 265 254 256 246 258 249
242 211 214 189 206 187 190 192 183 193 169 148 157 153 211 177 170 179 169 161 136 139 202 166 240 138 149 246 259 141 299 297 294 283 277 267 261 263 264 256 252 263 252 243
193 262 227 194 189 200 207 201 176 198 200 187 187 198 183 176 185 179 171 161 170 150 138 140 235 225 149 126 158 169 144 141 397 258 299 279 268 264 263 255 259 267 251 254
212 245 173 234 212 192 195 197 185 205 200 177 198 201 167 150 206 191 206 187 191 180 160 189 138 136 141 208 143 193 123 125 154 118 272 224 282 281 261 266 260 279 254 254
197 140 217 266 244 224 207 192 192 196 186 182 197 192 179 173 166 163 137 185 163 185 129 216 150 165 132 160 158 111 176 149 126 182 131 212 236 287 259 259 246 249 268 270
186 187 197 212 231 173 226 222 205 205 192 192 189 187 182 176 198 198 201 185 167 190 160 166 160 158 163 147 179 137 136 165 145 180 131 134 229 134 306 266 258 252 247 250
171 191 201 191 205 263 255 170 224 217 198 207 192 192 192 189 190 180 179 181 203 179 184 176 172 168 188 160 161 131 151 148 146 144 148 135 139 140 117 100 132 277 269 266
176 192 202 187 198 203 250 212 161 162 213 229 205 191 199 191 193 190 149 126 150 192 191 185 195 164 176 195 167 158 175 184 180 201 131 159 138 126 139 123 176 198 124 170
168 172 171 176 199 178 195 197 217 227 167 170 216 204 215 192 194 199 197 194 188 191 180 180 166 188 190 188 174 175 175 149 160 151 155 127 167 124 136 136 123 207 158 141
162 186 168 172 185 176 184 195 215 228 253 235 177 213 176 230 209 212 189 206 189 187 188 186 179 179 177 178 170 189 169 156 184 158 160 174 198 167 142 191 141 142 161 158
177 172 157 184 174 163 166 190 199 202 256 242 229 212 214 213 211 208 203 202 207 210 207 199 194 186 182 188 177 176 179 186 180 169 167 176 155 152 154 144 145 172 147 164
199 205 171 163 175 175 175 173 191 177 197 224 257 255 244 234 222 165 178 235 224 228 170 213 211 204 212 197 190 186 179 179 181 185 182 188 161 157 162 154 149 136 151 203
179 167 163 191 168 192 182 190 161 186 182 189 195 207 272 258 245 223 226 211 184 213 209 222 224 225 227 221 216 205 211 225 219 212 182 225 229 229 216 181 180 209 181 221
190 181 166 169 160 200 179 172 184 178 181 202 193 205 188 201 275 256 245 237 199 171 206 197 210 224 216 219 224 219 222 222 222 225 229 224 223 223 233 233 227 233 227 152
187 187 180 172 216 207 175 179 179 220 185 235 209 210 195 194 210 223 257 239 251 239 225 217 215 211 200 226 213 216 225 225 224 223 225 228 225 220 231 228 225 227 222 220
180 194 188 192 160 163 205 195 223 173 187 178 181 210 181 231 187 197 209 214 241 250 240 234 230 161 200 181 192 201 209 219 220 223 224 225 226 219 226 231 237 235 226 221
184 183 167 202 177 181 191 191 218 179 177 170 183 178 190 180 216 224 202 207 195 193 194 245 236 233 232 196 214 173 209 174 204 182 190 225 225 232 229 220 217 233 225 219
195 191 198 174 197 188 207 184 186 201 179 184 176 184 188 196 190 194 199 215 209 161 190 212 249 231 232 236 160 226 159 185 170 176 177 200 183 216 207 175 180 212 221 214
202 206 196 180 195 203 207 158 206 229 224 187 186 180 206 191 200 194 193 196 227 246 199 288 193 221 245 177 235 235 195 227 161 215 207 180 208 205 202 192 210 203 197 196
206 208 214 199 181 204 221 222 191 196 226 170 183 178 164 203 214 202 188 203 183 225 224 263 278 380 239 255 196 236 235 230 225 225 162 220 213 166 184 200 199 185 177 196
224 222 211 219 200 204 225 173 228 193 174 227 224 239 166 176 183 188 245 229 191 199 188 213 235 249 203 306 259 235 243 237 236 235 227 226 231 223 215 164 170 204 201 199

GFSNW_2pvu_pres_132.txt.gz
Presure
175 224 192 228 207 215 135 188 188 178 282 316 377 392 383 359 184 202 362 144 127 351 349 356 343 135 150 141 332 307 299 295 284 141 135 141 138 132 132 137 145 173 291 285
215 171 200 205 188 191 197 231 220 205 264 308 296 325 327 362 361 357 339 336 348 349 207 325 321 307 315 319 300 289 276 283 285 260 261 255 283 255 182 258 274 276 273 253
221 196 185 196 175 199 174 174 227 218 195 255 168 172 268 345 358 356 342 344 353 327 322 317 224 330 248 291 285 282 282 274 284 278 273 275 221 263 271 262 272 268 271 266
231 212 197 180 179 178 192 195 171 179 233 167 234 190 171 326 385 365 363 357 335 315 323 320 321 298 297 279 269 269 248 195 192 278 269 260 169 270 235 141 184 158 228 255
280 220 194 192 187 177 179 183 176 207 169 184 178 185 153 176 260 254 386 387 352 335 346 314 305 308 254 272 152 271 273 285 275 263 264 269 166 271 265 258 253 260 252 258
218 279 200 191 194 188 152 163 192 173 199 166 202 171 183 185 238 252 170 202 264 285 284 255 141 295 203 282 122 284 203 277 274 262 257 269 246 257 258 264 250 251 238 238
191 213 265 217 212 196 188 162 155 151 185 168 167 175 179 196 208 188 167 149 176 178 145 141 290 291 289 152 272 269 282 281 279 279 263 255 255 259 267 253 240 243 238 252
194 216 171 233 250 209 195 182 182 163 138 165 191 178 182 191 170 167 151 153 162 221 146 151 198 156 260 274 285 283 127 288 280 285 264 257 264 252 255 263 244 241 246 248
200 196 206 213 235 270 224 200 193 178 175 201 142 135 193 176 169 201 209 196 180 133 153 140 165 135 163 136 243 275 116 109 291 270 271 212 239 254 260 269 239 239 246 215
175 197 199 194 212 195 259 262 218 206 180 183 189 167 137 178 188 180 183 209 170 161 137 143 148 137 149 152 129 122 146 205 185 280 187 204 269 272 256 252 261 240 236 227
180 183 205 194 205 207 214 241 267 222 211 200 195 180 160 179 166 201 198 181 171 174 169 134 133 145 141 145 156 155 175 122 132 127 262 181 262 176 274 240 269 264 253 248
173 172 181 183 203 194 198 225 224 260 260 215 218 193 190 187 192 200 190 197 189 195 170 180 174 199 191 156 141 205 133 117 190 183 130 149 149 232 186 259 250 244 246 257
162 174 191 179 181 191 189 228 201 146 127 192 192 211 215 205 190 191 196 171 199 188 189 171 162 198 193 169 201 177 159 183 142 147 171 188 131 144 138 127 144 229 150 184
167 162 181 164 187 194 187 200 157 205 201 215 208 174 232 228 236 212 193 195 184 190 192 200 179 192 175 189 176 166 185 188 185 183 149 173 144 179 208 170 125 149 164 131
167 171 181 185 169 199 197 174 194 208 207 216 202 259 257 249 209 225 205 205 207 202 188 189 187 179 172 182 161 179 161 186 181 191 198 165 121 173 167 159 160 131 151 159
213 168 206 174 177 184 181 179 162 185 192 207 188 197 203 239 252 249 242 219 196 223 227 211 210 187 187 184 176 195 186 173 166 171 193 171 189 188 162 149 167 136 138 153
184 210 191 210 180 170 156 182 177 181 185 190 202 181 199 219 203 223 255 247 192 184 202 208 221 225 227 229 202 186 184 176 174 189 181 173 168 177 179 186 170 219 165 135
171 146 195 183 195 197 194 180 189 171 190 179 184 196 204 195 205 216 211 262 250 243 240 206 231 220 203 217 209 220 232 223 202 184 184 180 173 175 179 183 188 192 205 175
188 201 170 194 178 186 165 184 175 183 222 171 183 206 196 190 182 189 221 208 203 208 248 244 241 241 229 225 205 205 221 220 218 222 228 225 224 220 229 224 232 209 200 222
162 197 192 167 192 171 206 173 196 206 185 217 204 184 228 173 191 181 181 177 199 211 263 210 220 206 247 234 233 231 225 202 224 199 233 231 231 229 230 232 225 234 235 225
204 171 190 173 203 167 201 189 196 176 212 172 218 176 230 205 169 231 196 180 186 231 204 215 206 199 225 238 236 236 234 228 226 221 203 200 202 215 224 231 233 226 224 232
190 185 191 172 199 192 207 168 167 174 208 184 196 194 181 203 184 172 197 197 179 196 205 200 212 242 270 238 227 192 225 234 205 230 225 224 200 194 204 191 228 226 227 227
170 194 197 179 204 200 209 204 202 202 176 213 200 207 208 216 199 240 221 185 196 172 219 195 199 207 230 197 194 275 267 249 246 233 224 235 181 224 227 221 190 192 194 219
183 199 206 197 205 168 203 210 205 210 194 209 211 208 168 187 179 224 175 227 201 186 195 203 239 198 200 220 268 190 219 214 214 242 247 233 218 154 227 225 223 222 219 173
218 185 209 200 199 190 216 218 187 193 202 220 184 210 213 208 220 196 213 200 210 226 183 189 213 215 216 227 198 203 213 346 253 198 239 252 244 244 232 203 233 227 183 195
194 211 229 193 177 209 217 207 209 220 190 182 203 206 200 203 222 218 207 181 205 184 222 184 197 193 243 203 198 243 188 254 197 248 277 260 247 184 237 237 231 207 206 232
198 229 222 195 205 248 223 217 165 248 200 218 212 230 200 194 180 219 223 212 231 216 217 232 201 182 199 202 210 212 203 216 182 216 150 257 210 183 248 144 245 247 249 249